[[{"header":{"parameterUnit":"m.s-1","parameterCategory":1,"la1":31.0,"la2":29.5877,"lo1":-88.7671,"lo2":-86.6584,"dy":0.0162,"dx":0.0185,"nx":115,"ny":88,"refTime":"2024-06-20T12:00:00:Z","depth":0,"parameterNumber":2,"parameterNumberName":"U-component_of_WINDS"},"data":[0.0,0.0,0.0,0.0,0.0,0.0,0.0,0.0,0.0,0.0,0.0,0.0,0.0,0.0,0.0,0.0,0.0,0.0,0.0,0.0,0.0,0.0,0.0,0.0,0.0,0.0,0.0,0.0,0.0,0.0,0.0,0.0,0.0,0.0,0.0,0.0,0.0,0.0,0.0,0.0,0.0,0.0,0.0,0.0,0.0,0.0,0.0,0.0,0.0,0.0,0.0,0.0,0.0,0.0,0.0,0.0,0.0,0.0,0.0,0.0,0.0,0.0,0.0,0.0,0.0,0.0,0.0,0.0,0.0,0.0,0.0,0.0,0.0,0.0,0.0,0.0,0.0,0.0,0.0,0.0,0.0,0.0,0.0,0.0,0.0,0.0,0.0,0.0,0.0,0.0,0.0,0.0,0.0,0.0,0.0,0.0,0.0,0.0,0.0,0.0,0.0,0.0,0.0,0.0,0.0,0.0,0.0,0.0,0.0,0.0,0.0,0.0,0.0,0.0,0.0,0.0,0.0,0.0,0.0,0.0,0.0,0.0,0.0,0.0,0.0,0.0,0.0,0.0,0.0,0.0,0.0,0.0,0.0,0.0,0.0,0.0,0.0,0.0,0.0,0.0,0.0,0.0,0.0,0.0,0.0,0.0,0.0,0.0,0.0,0.0,0.0,0.0,0.0,0.0,0.0,0.0,0.0,0.0,0.0,0.0,0.0,0.0,0.0,0.0,0.0,0.0,0.0,0.0,0.0,0.0,0.0,0.0,0.0,0.0,0.0,0.0,0.0,0.0,0.0,0.0,0.0,0.0,0.0,0.0,0.0,0.0,0.0,0.0,0.0,0.0,0.0,0.0,0.0,0.0,0.0,0.0,0.0,0.0,0.0,0.0,0.0,0.0,0.0,0.0,0.0,0.0,0.0,0.0,0.0,0.0,0.0,0.0,0.0,0.0,0.0,0.0,0.0,0.0,0.0,0.0,0.0,0.0,0.0,0.0,0.0,0.0,0.0,0.0,0.0,0.0,0.0,0.0,0.0,0.0,0.0,0.0,0.0,0.0,0.0,0.0,0.0,0.0,0.0,0.0,0.0,0.0,0.0,0.0,0.0,0.0,0.0,0.0,0.0,0.0,0.0,0.0,0.0,0.0,0.0,0.0,0.0,0.0,0.0,0.0,0.0,0.0,0.0,0.0,0.0,0.0,0.0,0.0,0.0,0.0,0.0,0.0,0.0,0.0,0.0,0.0,0.0,0.0,0.0,0.0,0.0,0.0,0.0,0.0,0.0,0.0,0.0,0.0,0.0,0.0,0.0,0.0,0.0,0.0,0.0,0.0,0.0,0.0,0.0,0.0,0.0,0.0,0.0,0.0,0.0,0.0,0.0,0.0,0.0,0.0,0.0,0.0,0.0,0.0,0.0,0.0,0.0,0.0,0.0,0.0,0.0,0.0,0.0,0.0,0.0,0.0,0.0,0.0,0.0,0.0,0.0,0.0,0.0,0.0,0.0,0.0,0.0,0.0,0.0,0.0,0.0,0.0,0.0,0.0,0.0,0.0,0.0,0.0,0.0,0.0,0.0,0.0,0.0,0.0,0.0,0.0,0.0,0.0,0.0,0.0,0.0,0.0,0.0,0.0,0.0,0.0,0.0,0.0,0.0,0.0,0.0,0.0,0.0,0.0,0.0,0.0,0.0,0.0,0.0,0.0,0.0,0.0,0.0,0.0,0.0,0.0,0.0,0.0,0.0,0.0,0.0,0.0,0.0,0.0,0.0,0.0,0.0,0.0,0.0,0.0,0.0,0.0,0.0,0.0,0.0,0.0,0.0,0.0,0.0,0.0,0.0,0.0,0.0,0.0,0.0,0.0,0.0,0.0,0.0,0.0,0.0,0.0,0.0,0.0,0.0,0.0,0.0,0.0,0.0,0.0,0.0,0.0,0.0,0.0,0.0,0.0,0.0,0.0,0.0,0.0,0.0,0.0,0.0,0.0,0.0,0.0,0.0,0.0,0.0,0.0,0.0,0.0,0.0,0.0,0.0,0.0,0.0,0.0,0.0,0.0,0.0,0.0,0.0,0.0,0.0,0.0,0.0,0.0,0.0,0.0,0.0,0.0,0.0,0.0,0.0,0.0,0.0,0.0,0.0,0.0,0.0,0.0,0.0,0.0,0.0,0.0,0.0,0.0,0.0,0.0,0.0,0.0,0.0,0.0,0.0,0.0,0.0,0.0,0.0,0.0,0.0,0.0,0.0,0.0,0.0,0.0,0.0,0.0,0.0,0.0,0.0,0.0,0.0,0.0,0.0,0.0,0.0,0.0,0.0,0.0,0.0,0.0,0.0,0.0,0.0,0.0,0.0,0.0,0.0,0.0,0.0,0.0,0.0,0.0,0.0,0.0,0.0,0.0,0.0,0.0,0.0,0.0,0.0,0.0,0.0,0.0,0.0,0.0,0.0,0.0,0.0,0.0,0.0,0.0,0.0,0.0,0.0,0.0,0.0,0.0,0.0,0.0,0.0,0.0,0.0,0.0,0.0,0.0,0.0,0.0,0.0,0.0,0.0,0.0,0.0,0.0,0.0,0.0,0.0,0.0,0.0,0.0,0.0,0.0,0.0,0.0,0.0,0.0,0.0,0.0,0.0,0.0,0.0,0.0,0.0,0.0,0.0,0.0,0.0,0.0,0.0,0.0,0.0,0.0,0.0,0.0,0.0,0.0,0.0,0.0,0.0,0.0,0.0,0.0,0.0,0.0,0.0,0.0,0.0,0.0,0.0,0.0,0.0,0.0,0.0,0.0,0.0,0.0,0.0,0.0,0.0,0.0,0.0,0.0,0.0,0.0,0.0,0.0,0.0,0.0,0.0,0.0,0.0,0.0,0.0,0.0,0.0,0.0,0.0,0.0,0.0,0.0,0.0,0.0,0.0,0.0,0.0,0.0,0.0,0.0,0.0,0.0,0.0,0.0,0.0,0.0,0.0,0.0,0.0,0.0,0.0,0.0,0.0,0.0,0.0,0.0,0.0,0.0,0.0,0.0,0.0,0.0,0.0,0.0,0.0,0.0,0.0,0.0,0.0,0.0,0.0,0.0,0.0,0.0,0.0,0.0,0.0,0.0,0.0,0.0,0.0,0.0,0.0,0.0,0.0,0.0,0.0,0.0,0.0,0.0,0.0,0.0,0.0,0.0,0.0,0.0,0.0,0.0,0.0,0.0,0.0,0.0,0.0,0.0,0.0,0.0,0.0,0.0,0.0,0.0,0.0,0.0,0.0,0.0,0.0,0.0,0.0,0.0,0.0,0.0,0.0,0.0,0.0,0.0,0.0,0.0,0.0,0.0,0.0,0.0,0.0,0.0,0.0,0.0,0.0,0.0,0.0,0.0,0.0,0.0,0.0,0.0,0.0,0.0,0.0,0.0,0.0,0.0,0.0,0.0,0.0,0.0,0.0,0.0,0.0,0.0,0.0,0.0,0.0,0.0,0.0,0.0,0.0,0.0,0.0,0.0,0.0,0.0,0.0,0.0,0.0,0.0,0.0,0.0,0.0,0.0,0.0,0.0,0.0,0.0,0.0,0.0,0.0,0.0,0.0,0.0,0.0,0.0,0.0,0.0,0.0,0.0,0.0,0.0,0.0,0.0,0.0,0.0,0.0,0.0,0.0,0.0,0.0,0.0,0.0,0.0,0.0,0.0,0.0,0.0,0.0,0.0,0.0,0.0,0.0,0.0,0.0,0.0,0.0,0.0,0.0,0.0,0.0,0.0,0.0,0.0,0.0,0.0,0.0,0.0,0.0,0.0,0.0,0.0,0.0,0.0,0.0,0.0,0.0,0.0,0.0,0.0,0.0,0.0,0.0,0.0,0.0,0.0,0.0,0.0,0.0,0.0,0.0,0.0,0.0,0.0,0.0,0.0,0.0,0.0,0.0,0.0,0.0,0.0,0.0,0.0,0.0,0.0,0.0,0.0,0.0,0.0,0.0,0.0,0.0,0.0,0.0,0.0,0.0,0.0,0.0,0.0,0.0,0.0,0.0,0.0,0.0,0.0,0.0,0.0,0.0,0.0,0.0,0.0,0.0,0.0,0.0,0.0,0.0,0.0,0.0,0.0,0.0,0.0,0.0,0.0,0.0,0.0,0.0,0.0,0.0,0.0,0.0,0.0,0.0,0.0,0.0,0.0,0.0,0.0,0.0,0.0,0.0,0.0,0.0,0.0,0.0,0.0,0.0,0.0,0.0,0.0,0.0,0.0,0.0,0.0,0.0,0.0,0.0,0.0,0.0,0.0,0.9886,0.0,0.0,0.0,0.0,0.0,0.0,0.0,0.0,0.0,0.0,0.0,0.0,0.0,0.0,0.0,0.0,0.0,0.0,0.0,0.0,0.0,0.0,0.0,0.0,0.0,0.0,0.0,0.0,0.0,0.0,0.0,0.0,0.0,0.0,0.0,0.0,0.0,0.0,0.0,0.0,0.0,0.0,0.0,0.0,0.0,0.0,0.0,0.0,0.0,0.0,0.0,0.0,0.0,0.0,0.0,0.0,0.0,0.0,0.0,0.0,0.0,0.0,0.0,0.0,0.0,0.0,0.0,0.0,0.0,0.0,0.0,0.0,0.0,0.0,0.0,0.0,0.0,0.0,0.0,0.0,0.0,0.0,0.0,0.0,0.0,0.0,0.0,0.0,0.0,0.0,0.0,0.0,0.0,0.0,0.0,0.0,0.0,0.0,0.0,0.0,0.0,0.0,0.0,0.0,0.0,0.0,0.0,0.0,0.0,0.0,0.9931,0.9893,0.9893,0.9893,0.9853,0.0,0.0,0.0,0.0,0.0,0.0,0.0,0.0,0.0,0.0,0.0,0.0,0.0,0.0,0.0,0.0,0.0,0.0,0.0,0.0,0.0,0.0,0.0,0.0,0.0,0.0,0.0,0.0,0.0,0.0,0.0,0.0,0.0,0.0,0.0,0.0,0.0,0.0,0.0,0.0,0.0,0.0,0.0,0.0,0.0,0.0,0.0,0.0,0.0,0.0,0.0,0.0,0.0,0.0,0.0,0.0,0.0,0.0,0.0,0.0,0.0,0.0,0.0,0.0,0.0,0.0,0.0,0.0,0.0,0.0,0.0,0.0,0.0,0.0,0.0,0.0,0.0,0.0,0.0,0.0,0.0,0.0,0.0,0.0,0.0,0.0,0.0,0.0,0.0,0.0,0.0,0.0,0.0,0.0,0.0,0.0,0.0,0.0,0.0,0.0,0.0,0.0,0.0,0.0,0.0,0.0,0.0,0.0,0.0,0.0,0.0,0.0,1.015,0.9975,0.9774,0.0,0.0,0.0,0.0,0.0,0.0,0.0,0.0,0.0,0.0,0.0,0.0,0.0,0.0,0.0,0.0,0.0,0.0,0.0,0.0,0.0,0.0,0.0,0.0,0.0,0.0,0.0,0.0,0.0,0.0,0.0,0.0,0.0,0.0,0.0,0.0,0.0,0.0,0.0,0.0,0.0,0.0,0.0,0.0,0.0,0.0,0.0,0.0,0.0,0.0,0.0,0.0,0.0,0.0,0.0,0.0,0.0,0.0,0.0,0.0,0.0,0.0,0.0,0.0,0.0,0.0,0.0,0.0,0.0,0.0,0.0,0.0,0.0,0.0,0.0,0.0,0.0,0.0,0.0,0.0,0.0,0.0,0.0,0.0,0.0,0.0,0.0,0.0,0.0,0.0,0.0,0.0,0.0,0.0,0.0,0.0,0.0,0.0,0.0,0.0,0.0,0.0,0.0,0.0,0.0,0.0,0.0,0.0,0.0,0.0,1.0402,1.1414,1.0915,0.0,0.9703,0.0,0.0,0.0,0.0,0.0,0.0,0.0,0.0,0.0,0.0,0.0,0.0,0.0,0.0,0.0,0.0,0.0,0.0,0.0,0.0,0.0,0.0,0.0,0.0,0.0,0.0,0.0,0.0,0.0,0.0,0.0,0.0,0.0,0.0,0.0,0.0,0.0,0.0,0.0,0.0,0.0,0.0,0.0,0.0,0.0,0.0,0.0,0.0,0.0,0.0,0.0,0.0,0.0,0.0,0.0,0.0,0.0,0.0,0.0,0.0,0.0,0.0,0.0,0.0,0.0,0.0,0.0,0.0,0.0,0.0,0.0,0.0,0.0,0.0,0.0,0.0,0.0,0.0,0.0,0.0,0.0,0.0,0.0,0.0,0.0,0.0,0.0,0.0,0.0,0.0,0.0,0.0,0.0,0.0,0.0,0.0,0.0,0.0,0.0,0.0,0.0,0.0,0.0,0.0,0.0,0.0,0.0,0.0,0.0,0.0,1.113,1.159,1.1122,1.0478,0.0,0.0,0.0,0.0,0.0,0.0,0.0,0.0,0.0,0.0,0.0,0.0,0.0,0.0,0.0,0.0,0.0,0.0,0.0,0.0,0.0,0.0,0.0,0.0,0.0,0.0,0.0,0.0,0.0,0.0,0.0,0.0,0.0,0.0,0.0,0.0,0.0,0.0,0.0,0.0,0.0,0.0,0.0,0.0,0.0,0.0,0.0,0.0,0.0,0.0,0.0,0.0,0.0,0.0,0.0,0.0,0.0,0.0,0.0,0.0,0.0,0.0,0.0,0.0,0.0,0.0,0.0,0.0,0.0,0.0,0.0,0.0,0.0,0.0,0.0,0.0,0.0,0.0,0.0,0.0,0.0,0.0,0.0,0.0,0.0,0.0,0.0,0.0,0.0,0.0,0.0,0.0,0.0,0.0,0.0,0.0,0.0,0.0,0.0,0.0,0.0,0.0,0.0,0.0,0.0,0.0,0.0,0.0,0.0,0.0,1.1295,1.1671,1.1786,1.1286,1.0563,0.9679,0.0,0.0,0.0,0.0,0.0,0.0,0.0,0.0,0.0,0.0,0.0,0.0,0.0,0.0,0.0,0.0,0.0,0.0,0.0,0.0,0.0,0.0,0.0,0.0,0.0,0.0,0.0,0.0,0.0,0.0,0.0,0.0,0.0,0.0,0.0,0.0,0.0,0.0,0.0,0.0,0.0,0.0,0.0,0.0,0.0,0.0,0.0,0.0,0.0,0.0,0.0,0.0,0.0,0.0,0.0,0.0,0.0,0.0,0.0,0.0,0.0,0.0,0.0,0.0,0.0,0.0,0.0,0.0,0.0,0.0,0.0,0.0,0.0,0.0,0.0,0.0,0.0,0.0,0.0,0.0,0.0,0.0,0.0,0.0,0.0,0.0,0.0,0.0,0.0,0.0,0.0,0.0,0.0,0.0,0.0,0.0,0.0,0.0,0.0,0.0,0.0,0.0,0.0,0.0,0.0,0.0,0.0,0.0,1.2509,1.1939,1.1854,1.2333,1.1497,1.062,0.0,0.0,0.0,0.0,0.0,0.0,0.0,0.0,0.0,0.0,0.0,0.0,0.0,0.0,0.0,0.0,0.0,0.0,0.0,0.0,0.0,0.0,0.0,0.0,0.0,0.0,0.0,0.0,0.0,0.0,0.0,0.0,0.0,0.0,0.0,0.0,0.0,0.0,0.0,0.0,0.0,0.0,0.0,0.0,0.0,0.0,0.0,0.0,0.0,0.0,0.0,0.0,0.0,0.0,0.0,0.0,0.0,0.0,0.0,0.0,0.0,0.0,0.0,0.0,0.0,0.0,0.0,0.0,0.0,0.0,0.0,0.0,0.0,0.0,0.0,0.0,0.0,0.0,0.0,0.0,0.0,0.0,0.0,0.0,0.0,0.0,0.0,0.0,0.0,0.0,0.0,0.0,0.0,0.0,0.0,0.0,0.0,0.0,0.0,0.0,0.0,0.0,0.0,0.0,0.0,0.0,0.0,0.0,0.0,1.0709,1.1338,1.2074,1.2831,1.1552,1.0638,0.0,0.0,0.0,0.0,0.0,0.0,0.0,0.0,0.0,0.0,0.0,0.0,0.0,0.0,0.0,0.0,0.0,0.0,0.0,0.0,0.0,0.0,0.0,0.0,0.0,0.0,0.0,0.0,0.0,0.0,0.0,0.0,0.0,0.0,0.0,0.0,0.0,0.0,0.0,0.0,0.0,0.0,0.0,0.0,0.0,0.0,0.0,0.0,0.0,0.0,0.0,0.0,0.0,0.0,0.0,0.0,0.0,0.0,0.0,0.0,0.0,0.0,0.0,0.0,0.0,0.0,0.0,0.0,0.0,0.0,0.0,0.0,0.0,0.0,0.0,0.0,0.0,0.0,0.0,0.0,0.0,0.0,0.0,0.0,0.0,0.0,0.0,0.0,0.0,0.0,0.0,0.0,0.0,0.0,0.0,0.0,0.0,0.0,0.0,0.0,0.0,0.0,0.0,0.0,0.0,0.0,0.0,0.0,0.0,1.0653,0.0,1.268,0.0,1.1498,1.0428,0.0,0.0,0.0,0.0,0.0,0.0,0.0,0.0,0.0,0.0,0.0,0.0,0.0,0.0,0.0,0.0,0.0,0.0,0.0,0.0,0.0,0.0,0.0,0.0,0.0,0.0,0.0,0.0,0.0,0.0,0.0,0.0,0.0,0.0,0.0,0.0,0.0,0.0,0.0,0.0,0.0,0.0,0.0,0.0,0.0,0.0,0.0,0.0,0.0,0.0,0.0,0.0,0.0,0.0,0.0,0.0,0.0,0.0,0.0,0.0,0.0,0.0,0.0,0.0,0.0,0.0,0.0,0.0,0.0,0.0,0.0,0.0,0.0,0.0,0.0,0.0,0.0,0.0,0.0,0.0,0.0,0.0,0.0,0.0,0.0,0.0,0.0,0.0,0.0,0.0,0.0,0.0,0.0,0.0,0.0,0.0,0.0,0.0,0.0,0.0,0.0,0.0,0.0,0.0,0.0,0.0,0.0,0.0,1.0393,1.2707,1.3576,1.357,1.282,1.1367,0.9951,0.0,0.0,0.0,0.0,0.0,0.0,0.0,0.0,0.0,0.0,0.0,0.0,0.0,0.0,0.0,0.0,0.0,0.0,0.0,0.0,0.0,0.0,0.0,0.0,0.0,0.0,0.0,0.0,0.0,0.0,0.0,0.0,0.0,0.0,0.0,0.0,0.0,0.0,0.0,0.0,0.0,0.0,0.0,0.0,0.0,0.0,0.0,0.0,0.0,0.0,0.0,0.0,0.0,0.0,0.0,0.0,0.0,0.0,0.0,0.0,0.0,0.0,0.0,0.0,0.0,0.0,0.0,0.0,0.0,0.0,0.0,0.0,0.0,0.0,0.0,0.0,0.0,0.0,0.0,0.0,0.0,0.0,0.0,0.0,0.0,0.0,0.0,0.0,0.0,0.0,0.0,0.0,0.0,0.0,0.0,0.0,0.0,0.0,0.0,0.0,0.0,0.0,0.0,0.0,0.0,0.0,0.0,0.0,0.0,1.086,1.2246,1.3027,1.3006,1.1109,1.0175,0.0,0.0,0.0,0.0,0.0,0.0,0.0,0.0,0.0,0.0,0.0,0.0,0.0,0.0,0.0,0.0,0.0,0.0,0.0,0.0,0.0,0.0,0.0,0.0,0.0,0.0,0.0,0.0,0.0,0.0,0.0,0.0,0.0,0.0,0.0,0.0,0.0,0.0,0.0,0.0,0.0,0.0,0.0,0.0,0.0,0.0,0.0,0.0,0.0,0.0,0.0,0.0,0.0,0.0,0.0,0.0,0.0,0.0,0.0,0.0,0.0,0.0,0.0,0.0,0.0,0.0,0.0,0.0,0.0,0.0,0.0,0.0,0.0,0.0,0.0,0.0,0.0,0.0,0.0,0.0,0.0,0.0,0.0,0.0,0.0,0.0,0.0,0.0,0.0,0.0,0.0,0.0,0.0,0.0,0.0,0.0,0.0,0.0,0.0,0.0,0.0,0.0,0.0,0.0,0.0,0.0,0.0,0.0,0.0,1.1679,1.3145,1.3892,1.3636,1.1907,1.0839,1.0564,0.0,0.0,0.0,0.0,0.0,0.0,0.0,0.0,0.0,0.0,0.0,0.0,0.0,0.0,0.0,0.0,0.0,0.0,0.0,0.0,0.0,0.0,0.0,0.0,0.0,0.0,0.0,0.0,0.0,0.0,0.0,0.0,0.0,0.0,0.0,0.0,0.0,0.0,0.0,0.0,0.0,0.0,0.0,0.0,0.0,0.0,0.0,0.0,0.0,0.0,0.0,0.0,0.0,0.0,0.0,0.0,0.0,0.0,0.0,0.0,0.0,0.0,0.0,0.0,0.0,0.0,0.0,0.0,0.0,0.0,0.0,0.0,0.0,0.0,0.0,0.0,0.0,0.0,0.0,0.0,0.0,0.0,0.0,0.0,0.0,0.0,0.0,0.0,0.0,0.0,0.0,0.0,0.0,0.0,0.0,0.0,0.0,0.0,0.0,0.0,0.0,0.0,0.0,0.0,0.0,0.0,0.0,0.0,1.4478,1.5879,1.5962,1.4606,1.3454,1.1805,0.0,0.0,0.0,0.0,0.0,0.0,0.0,0.0,0.0,0.0,0.0,0.0,0.0,0.0,0.0,0.0,0.0,0.0,0.0,0.0,0.0,0.0,0.0,0.0,0.0,0.0,0.0,0.0,0.0,0.0,0.0,0.0,0.0,0.0,0.0,0.0,0.0,0.0,0.0,0.0,0.0,0.0,0.0,0.0,0.0,0.0,0.0,0.0,0.0,0.0,0.0,0.0,0.0,0.0,0.0,0.0,0.0,0.0,0.0,0.0,0.0,0.0,0.0,0.0,0.0,0.0,0.0,0.0,0.0,0.0,0.0,0.0,0.0,0.0,0.0,0.0,0.0,0.0,0.0,0.0,0.0,0.0,0.0,0.0,0.0,0.0,0.0,0.0,0.0,0.0,0.0,0.0,0.0,0.0,0.0,0.0,0.0,0.0,0.0,0.0,0.0,0.0,0.0,0.0,0.0,0.0,0.0,0.0,0.0,1.5791,1.7369,1.7641,1.6451,1.4001,1.2581,0.0,0.0,0.0,0.0,0.0,0.0,0.0,0.0,0.0,0.0,0.0,0.0,0.0,0.0,0.0,0.0,0.0,0.0,0.0,0.0,0.0,0.0,0.0,0.0,0.0,0.0,0.0,0.0,0.0,0.0,0.0,0.0,0.0,0.0,0.0,0.0,0.0,0.0,0.0,0.0,0.0,0.0,0.0,0.0,0.0,0.0,0.0,0.0,0.0,0.0,0.0,0.0,0.0,0.0,0.0,0.0,0.0,0.0,0.0,0.0,0.0,0.0,0.0,0.0,0.0,0.0,0.0,0.0,0.0,0.0,0.0,0.0,0.0,0.0,0.0,0.0,0.0,0.0,0.0,0.0,0.0,0.0,0.0,0.0,0.0,0.0,0.0,0.0,0.0,0.0,0.0,0.0,0.0,0.0,0.0,0.0,0.0,0.0,0.0,0.0,0.0,0.0,0.0,0.0,0.0,0.0,0.0,0.0,1.5157,1.6692,1.8204,1.8671,1.8044,1.5309,1.3582,0.0,0.0,0.0,0.0,0.0,0.0,0.0,0.0,0.0,0.0,0.0,0.0,0.0,0.0,0.0,0.0,0.0,0.0,0.0,0.0,0.0,0.0,0.0,0.0,0.0,0.0,0.0,0.0,0.0,0.0,0.0,0.0,0.0,0.0,0.0,0.0,0.0,0.0,0.0,0.0,0.0,0.0,0.0,0.0,0.0,0.0,0.0,0.0,0.0,0.0,0.0,0.0,0.0,0.0,0.0,0.0,0.0,0.0,0.0,0.0,0.0,0.0,0.0,0.0,0.0,0.0,0.0,0.0,0.0,0.0,0.0,0.0,0.0,0.0,0.0,0.0,0.0,0.0,0.0,0.0,0.0,0.0,0.0,0.0,0.0,0.0,0.0,0.0,0.0,0.0,0.0,0.0,0.0,0.0,0.0,0.0,0.0,0.0,0.0,0.0,0.0,0.0,0.0,0.0,0.0,0.0,0.0,0.0,1.5854,1.7217,1.8521,1.9196,1.912,1.6822,1.4699,0.0,0.0,0.0,0.0,0.0,0.0,0.0,0.0,0.0,0.0,0.0,0.0,0.0,0.0,0.0,0.0,0.0,0.0,0.0,0.0,0.0,0.0,0.0,0.0,0.0,0.0,0.0,0.0,0.0,0.0,0.0,0.0,0.0,0.0,0.0,0.0,0.0,0.0,0.0,0.0,0.0,0.0,0.0,0.0,0.0,0.0,0.0,0.0,0.0,0.0,0.0,0.0,0.0,0.0,0.0,0.0,0.0,0.0,0.0,0.0,0.0,0.0,0.0,0.0,0.0,0.0,0.0,0.0,0.0,0.0,0.0,0.0,0.0,0.0,0.0,0.0,0.0,0.0,0.0,0.0,0.0,0.0,0.0,0.0,0.0,0.0,0.0,0.0,0.0,0.0,0.0,0.0,0.0,0.0,0.0,0.0,0.0,0.0,0.0,0.0,0.0,0.0,0.0,0.0,0.0,0.0,0.0,0.0,1.6032,1.6823,1.838,1.9143,1.904,1.6982,1.5359,0.0,0.0,0.0,0.0,0.0,0.0,0.0,0.0,0.0,0.0,0.0,0.0,0.0,0.0,0.0,0.0,0.0,0.0,0.0,0.0,0.0,0.0,0.0,0.0,0.0,0.0,0.0,0.0,0.0,0.0,0.0,0.0,0.0,0.0,0.0,0.0,0.0,0.0,0.0,0.0,0.0,0.0,0.0,0.0,0.0,0.0,0.0,0.0,0.8893,0.0,0.0,0.0,0.0,0.0,0.0,0.0,0.0,0.0,0.0,0.0,0.0,0.0,0.0,0.0,0.0,0.0,0.0,0.0,0.0,0.0,0.0,0.0,0.0,0.0,0.0,0.0,0.0,0.0,0.0,0.0,0.0,0.0,0.0,0.0,0.0,0.0,0.0,0.0,0.0,0.0,0.0,0.0,0.0,0.0,0.0,0.0,0.0,0.0,0.0,0.0,0.0,0.0,0.0,0.0,0.0,0.0,0.0,0.0,1.6307,1.7158,1.8162,1.8642,1.8528,1.703,1.5684,0.0,0.0,0.0,0.0,0.0,0.0,0.0,0.0,0.0,0.0,0.0,0.0,0.0,0.0,0.0,0.0,0.0,0.0,0.0,0.0,0.0,0.0,0.0,0.0,0.0,0.0,0.0,0.0,0.0,0.0,0.0,0.0,0.0,0.0,0.0,0.0,0.0,0.0,0.0,0.0,0.0,0.0,0.0,0.0,0.0,0.0,0.0,0.0,0.0,0.0,0.0,0.0,0.0,0.0,0.0,0.0,0.0,0.0,0.0,0.0,0.0,0.0,0.0,0.0,0.0,0.0,0.0,0.0,0.0,0.0,0.0,0.0,0.0,0.0,0.0,0.0,0.0,0.0,0.0,0.0,0.0,0.0,0.0,0.0,0.0,0.0,0.0,0.0,0.0,0.0,0.0,0.0,0.0,0.0,0.0,0.0,0.0,0.0,0.0,0.0,0.0,0.0,0.0,0.0,0.0,0.0,0.0,1.5105,1.6578,1.7709,1.798,1.8093,1.8093,1.6932,1.5725,1.4488,0.0,0.0,0.0,0.0,0.0,0.0,0.0,0.0,0.0,0.0,0.0,0.0,0.0,0.0,0.0,0.0,0.0,0.0,0.0,0.0,0.0,0.0,0.0,0.0,0.0,0.0,0.0,0.0,0.0,0.0,0.0,0.0,0.0,0.0,0.0,0.0,0.0,0.0,0.9134,1.0001,0.0,0.0,0.0,0.0,0.0,0.0,0.0,0.0,0.8521,0.0,0.0,0.0,0.0,0.0,0.0,0.0,0.0,0.0,0.0,0.0,0.0,0.0,0.0,0.0,0.0,0.0,0.0,0.0,0.0,0.0,0.0,0.0,0.0,0.0,0.0,0.0,0.0,0.0,0.0,0.0,0.0,0.0,0.0,0.0,0.0,0.0,0.0,0.0,0.0,0.0,0.0,0.0,0.0,0.0,0.0,0.0,0.0,0.0,0.0,0.0,0.0,0.0,0.0,0.0,0.0,1.4641,1.5599,1.6703,1.8011,1.8085,1.8093,1.8054,1.6607,1.5229,1.3947,0.0,0.0,0.0,0.0,0.0,0.0,0.0,0.0,0.0,0.0,0.0,0.0,0.0,0.0,0.0,0.0,0.0,0.0,0.0,0.0,0.0,0.0,0.0,0.0,0.0,0.0,0.0,0.0,0.0,0.0,0.0,0.0,0.0,0.0,0.0,0.0,0.0,0.0,0.0,0.982,0.9976,0.0,0.0,0.0,0.0,0.0,0.0,0.0,0.0,0.851,0.0,0.0,0.0,0.0,0.0,0.0,0.0,0.0,0.0,0.0,0.0,0.0,0.0,0.0,0.0,0.0,0.0,0.0,0.0,0.0,0.0,0.0,0.0,0.0,0.0,0.0,0.0,0.0,0.0,0.0,0.0,0.0,0.0,0.0,0.0,0.0,0.0,0.0,0.0,0.0,0.0,0.0,0.0,0.0,0.0,0.0,0.0,0.0,0.0,0.0,0.0,0.0,0.0,0.0,0.0,1.4653,1.6095,1.7397,1.8514,1.8242,1.7957,1.7619,1.6141,1.4695,0.0,0.0,0.0,0.0,0.0,0.0,0.0,0.0,0.0,0.0,0.0,0.0,0.0,0.0,0.0,0.0,0.0,0.0,0.0,0.0,0.0,0.0,0.0,0.0,0.0,0.0,0.0,0.0,0.0,0.0,0.0,0.0,0.0,0.0,0.0,0.0,0.0,0.0,0.0,0.0,0.9825,1.0035,1.0203,0.0,0.0,0.0,0.0,0.0,0.0,0.9011,0.8814,0.0,0.0,0.0,0.0,0.0,0.0,0.0,0.0,0.0,0.0,0.0,0.0,0.0,0.0,0.0,0.0,0.0,0.0,0.0,0.0,0.0,0.0,0.0,0.0,0.0,0.0,0.0,0.0,0.0,0.0,0.0,0.0,0.0,0.0,0.0,0.0,0.0,0.0,0.0,0.0,0.0,0.0,0.0,0.0,0.0,0.0,0.0,0.0,0.0,0.0,0.0,0.0,0.0,0.0,0.0,1.4717,1.657,1.799,1.8924,1.8415,1.782,1.7194,1.5757,1.4338,0.0,0.0,0.0,0.0,0.0,0.0,0.0,0.0,0.0,0.0,0.0,0.0,0.0,0.0,0.0,0.0,0.0,0.0,0.0,0.0,0.0,0.0,0.0,0.0,0.0,0.0,0.0,0.0,0.0,0.0,0.0,0.0,0.0,0.0,0.0,0.0,0.0,0.0,0.0,0.0,0.0,1.0065,1.001,0.9719,0.0,0.0,0.0,0.0,0.8905,0.9003,0.0,0.0,0.0,0.0,0.0,0.0,0.0,0.0,0.0,0.0,0.0,0.0,0.0,0.0,0.0,0.0,0.0,0.0,0.0,0.0,0.0,0.0,0.0,0.0,0.0,0.0,0.0,0.0,0.0,0.0,0.0,0.0,0.0,0.0,0.0,0.0,0.0,0.0,0.0,0.0,0.0,0.0,0.0,0.0,0.0,0.0,0.0,0.0,0.0,0.0,0.0,0.0,0.0,0.0,0.0,0.0,1.576,1.6977,1.8052,1.8914,1.8402,1.782,1.7208,1.577,1.4338,0.0,0.0,0.0,0.0,0.0,0.0,0.0,0.0,0.0,0.0,0.0,0.0,0.0,0.0,0.0,0.0,0.0,0.0,0.0,0.0,0.0,0.0,0.0,0.0,0.0,0.0,0.0,0.0,0.0,0.0,0.0,0.0,0.0,0.0,0.0,0.0,0.0,0.0,0.0,0.0,0.0,0.9412,0.962,0.9411,0.9211,0.0,0.0,0.9212,0.9446,0.9036,0.0,0.0,0.0,0.0,0.0,0.0,0.0,0.0,0.0,0.0,0.0,0.0,0.0,0.0,0.0,0.0,0.0,0.0,0.0,0.0,0.0,0.0,0.0,0.0,0.0,0.0,0.0,0.0,0.0,0.0,0.0,0.0,0.0,0.0,0.0,0.0,0.0,0.0,0.0,0.0,0.0,0.0,0.0,0.0,0.0,0.0,0.0,0.0,0.0,0.0,0.0,0.0,0.0,0.0,0.0,1.3927,1.5758,1.735,1.8466,1.9067,1.8854,1.8388,1.7738,1.6074,1.4618,0.0,0.0,0.0,0.0,0.0,0.0,0.0,0.0,0.0,0.0,0.0,0.0,0.0,0.0,0.0,0.0,0.0,0.0,0.0,0.0,0.0,0.0,0.0,0.0,0.0,0.0,0.0,0.0,0.0,0.0,0.0,0.0,0.0,0.0,0.0,0.0,0.0,0.0,0.0,0.0,0.0,0.0,0.9322,0.9377,0.0,0.0,0.0,0.9121,0.8411,0.0,0.0,0.0,0.0,0.0,0.0,0.0,0.0,0.0,0.0,0.0,0.0,0.0,0.0,0.0,0.0,0.0,0.0,0.0,0.0,0.0,0.0,0.0,0.0,0.0,0.0,0.0,0.0,0.0,0.0,0.0,0.0,0.0,0.0,0.0,0.0,0.0,0.0,0.0,0.0,0.0,0.0,0.0,0.0,0.0,0.0,0.0,0.0,0.0,0.0,0.0,0.0,0.0,0.0,0.0,0.0,0.0,1.5636,1.7754,1.8972,1.9195,1.9063,1.8694,1.8097,1.6328,0.0,0.0,0.0,0.0,0.0,0.0,0.0,0.0,0.0,0.0,0.0,0.0,0.0,0.0,0.0,0.0,0.0,0.0,0.0,0.0,0.0,0.0,0.0,0.0,0.0,0.0,0.0,0.6081,0.0,0.0,0.0,0.0,0.0,0.0,0.0,0.0,0.0,0.0,0.0,0.0,0.0,0.0,0.9356,0.883,0.9139,0.9124,0.0,0.0,0.8733,0.7657,0.8116,0.8303,0.0,0.0,0.0,0.0,0.0,0.0,0.0,0.0,0.0,0.0,0.0,0.0,0.0,0.0,0.0,0.0,0.0,0.0,0.0,0.0,0.0,0.0,0.0,0.0,0.0,0.0,0.0,0.0,0.0,0.0,0.0,0.0,0.0,0.0,0.0,0.0,0.0,0.0,0.0,0.0,0.0,0.0,0.0,0.0,0.0,0.0,0.0,0.0,0.0,0.0,0.0,0.0,0.0,0.0,1.4537,1.5736,1.824,1.9433,1.9196,1.8652,1.8267,1.8093,1.6526,1.5078,0.0,0.0,0.0,0.0,0.0,0.0,0.0,0.0,0.0,0.0,0.0,0.0,0.0,0.0,0.0,0.0,0.0,0.0,0.0,0.0,0.0,0.0,0.0,0.0,0.0,0.0,0.0,0.0,0.0,0.0,0.0,0.0,0.0,0.0,0.0,0.0,0.0,0.0,0.0,0.0,0.0,0.9036,0.794,0.8506,0.8793,0.0,0.7919,0.7844,0.7934,0.7738,0.7445,0.6916,0.0,0.0,0.0,0.0,0.0,0.0,0.0,0.0,0.0,0.0,0.0,0.0,0.0,0.0,0.0,0.0,0.0,0.0,0.0,0.0,0.0,0.0,0.0,0.0,0.0,0.0,0.0,0.0,0.7624,0.0,0.0,0.0,0.0,0.0,0.0,0.0,0.0,0.0,0.0,0.0,0.0,0.0,0.0,0.0,0.0,0.0,0.0,0.0,0.0,0.0,0.0,0.0,0.0,1.4899,1.6199,1.8533,1.9632,1.9433,1.8895,1.8535,1.8414,1.6727,1.5216,0.0,0.0,0.0,0.0,0.0,0.0,0.0,0.0,0.0,0.0,0.0,0.0,0.0,0.0,0.0,0.0,0.0,0.0,0.0,0.0,0.0,0.0,0.0,0.0,0.0,0.0,0.0,0.0,0.7144,0.7158,0.6753,0.0,0.0,0.0,0.0,0.0,0.0,0.0,0.0,0.0,0.0,0.8894,0.8329,0.8544,0.0,0.0,0.8079,0.8084,0.7595,0.7495,0.7308,0.6708,0.6492,0.0,0.0,0.0,0.0,0.0,0.0,0.0,0.0,0.0,0.0,0.0,0.0,0.0,0.0,0.0,0.0,0.0,0.0,0.0,0.0,0.0,0.0,0.0,0.0,0.0,0.0,0.818,0.7852,0.0,0.0,0.0,0.0,0.0,0.0,0.0,0.0,0.0,0.0,0.0,0.0,0.0,0.0,0.0,0.0,0.0,0.0,0.0,0.0,0.0,0.0,0.0,0.0,1.5021,1.638,1.8683,1.9776,1.9591,1.9055,1.871,1.8562,1.703,1.5561,0.0,0.0,0.0,0.0,0.0,0.0,0.0,0.0,0.0,0.0,0.0,0.0,0.0,0.0,0.0,0.0,0.0,0.0,0.0,0.0,0.0,0.0,0.0,0.0,0.0,0.0,0.0,0.0,0.7358,0.7309,0.6893,0.0,0.0,0.0,0.0,0.0,0.0,0.0,0.0,0.0,0.0,0.9012,0.8683,0.8646,0.8416,0.7729,0.8074,0.8078,0.722,0.7187,0.7149,0.678,0.0,0.0,0.0,0.0,0.0,0.0,0.0,0.0,0.0,0.0,0.0,0.0,0.0,0.0,0.0,0.0,0.0,0.0,0.0,0.0,0.0,0.0,0.0,0.0,0.0,0.0,0.0,0.8211,0.0,0.0,0.8225,0.0,0.0,0.0,0.0,0.0,0.0,0.0,0.0,0.0,0.0,0.0,0.0,0.0,0.0,0.0,0.0,0.0,0.0,0.0,0.0,0.0,0.0,1.4871,1.612,1.8683,1.9874,1.9604,1.903,1.8647,1.8573,1.741,1.6138,1.4792,0.0,0.0,0.0,0.0,0.0,0.0,0.0,0.0,0.0,0.0,0.0,0.0,0.0,0.0,0.0,0.0,0.0,0.0,0.0,0.0,0.0,0.0,0.0,0.0,0.0,0.0,0.6761,0.6844,0.7004,0.0,0.0,0.0,0.0,0.0,0.0,0.0,0.0,0.0,0.9343,0.9513,0.9451,0.8788,0.8766,0.8434,0.7389,0.7634,0.7664,0.6945,0.683,0.6897,0.0,0.0,0.0,0.0,0.0,0.0,0.0,0.0,0.0,0.0,0.0,0.0,0.0,0.0,0.0,0.0,0.0,0.0,0.0,0.0,0.0,0.0,0.0,0.0,0.0,0.0,0.0,0.9969,0.9538,0.0,0.0,0.0,0.0,0.0,0.0,0.0,0.0,0.0,0.0,0.0,1.3198,1.3614,0.0,0.0,0.0,0.0,0.0,0.0,0.0,0.0,0.0,0.0,0.0,0.0,1.617,1.7191,1.9045,1.995,1.9836,1.8845,1.8296,1.8253,1.7404,1.5975,1.3947,0.0,0.0,0.0,0.0,0.0,0.0,0.0,0.0,0.0,0.0,0.0,0.0,0.0,0.0,0.0,0.0,0.0,0.0,0.0,0.0,0.0,0.0,0.0,0.0,0.0,0.7072,0.0,0.0,0.0,0.0,0.0,0.0,0.0,0.0,0.0,0.0,0.9942,1.0301,1.0362,1.0238,0.9878,0.9062,0.8994,0.8771,0.0,0.0,0.0,0.0,0.0,0.0,0.0,0.0,0.0,0.0,0.0,0.0,0.0,0.0,0.6847,0.6139,0.6149,0.6323,0.6379,0.0,0.0,0.0,0.0,0.0,0.0,0.0,0.0,0.0,0.0,0.0,0.0,0.0,0.0,1.1315,1.0941,1.0755,0.0,0.0,0.0,0.0,0.0,0.0,0.0,0.0,1.3703,1.4188,1.4345,1.4722,1.475,1.4389,1.4016,1.3106,0.0,0.0,0.0,0.0,0.0,0.0,0.0,0.0,1.6701,1.7782,1.9284,1.9964,1.9707,1.903,1.8392,1.7795,1.6977,1.5803,1.4235,1.3299,1.2247,0.0,0.0,0.0,0.0,0.0,0.0,0.0,0.0,0.0,0.0,0.0,0.0,0.0,0.0,0.0,0.0,0.0,0.0,0.0,0.0,0.0,0.0,0.0,0.7529,0.0,0.0,0.0,0.0,0.0,0.0,0.0,0.0,0.0,1.0025,1.0623,1.1178,1.1429,1.1188,1.0696,0.9875,0.0,0.0,0.0,0.0,0.0,0.0,0.0,0.7367,0.7366,0.7402,0.7614,0.805,0.8112,0.805,0.794,0.0,0.0,0.6962,0.686,0.6953,0.7028,0.7173,0.7329,0.7394,0.7521,0.7716,0.0,0.0,0.0,0.0,1.2196,0.0,0.0,0.0,1.2858,1.2648,0.0,1.1902,0.0,0.0,0.0,0.0,1.1768,1.3011,0.0,0.0,1.5487,1.6153,1.5739,1.5718,1.58,1.5894,1.5442,1.4998,1.4478,1.3132,1.2225,0.0,0.0,0.0,0.0,0.0,1.6536,1.793,1.94,1.9875,1.9304,1.9579,1.8965,1.7302,1.6278,1.5728,1.5663,1.48,1.3872,1.2863,1.1583,0.0,0.0,0.0,0.0,0.0,0.0,0.0,0.0,0.0,0.0,0.0,0.0,0.0,0.0,0.0,0.0,0.0,0.0,0.0,0.0,0.7974,0.0,0.0,0.0,0.0,0.0,0.0,0.0,0.0,0.0,1.0828,1.0059,1.1144,1.2151,1.2441,0.0,0.0,0.0,0.0,1.0396,0.8415,0.8949,0.9127,0.7825,0.8077,0.8428,0.8435,0.0,0.0,0.8732,0.8411,0.8192,0.8168,0.8875,0.9079,0.8096,0.7645,0.7486,0.7631,0.7712,0.7693,0.7879,0.8265,0.849,1.5463,0.0,0.0,0.0,0.0,1.4097,1.4233,1.4415,1.4718,1.4408,1.3714,1.3591,0.0,0.0,0.0,0.0,0.0,0.0,1.4482,1.5114,1.5761,1.614,1.6339,1.6448,1.6493,1.6535,1.6411,1.6219,1.5986,1.557,1.4584,1.3102,0.0,0.0,0.0,0.0,1.7478,1.8575,1.9296,1.9721,1.9901,1.9461,1.879,1.7861,1.6781,1.6036,1.5704,1.5445,1.486,1.3915,1.2861,0.0,0.0,0.0,0.0,0.0,0.0,0.0,0.0,0.0,0.0,0.0,0.0,0.0,0.0,0.0,0.0,0.0,0.0,0.0,0.7717,0.8253,0.8505,0.0,0.0,0.0,0.0,0.0,0.0,0.0,0.0,0.0,1.1752,1.2214,1.2608,0.0,0.0,1.2473,1.1552,1.1446,1.1126,1.0211,0.9895,0.0,0.9408,0.9258,0.9295,0.9567,0.9744,0.9723,0.9395,0.9398,0.9453,0.9444,0.9778,0.9913,0.9687,0.9649,0.9711,0.9764,0.9621,0.9598,0.9811,0.9694,0.9608,1.7131,1.6312,1.5447,1.5246,1.5448,1.5555,1.5779,1.608,1.6316,1.612,1.5646,1.546,1.5209,1.494,1.4777,0.0,0.0,0.0,1.577,1.6508,1.6588,1.6673,1.6756,1.6854,1.6816,1.6733,1.6708,1.6775,1.6882,1.6683,1.6165,1.5304,0.0,1.4913,1.6178,1.6938,1.7938,1.9117,1.9331,1.9539,1.9785,1.8805,1.8215,1.8093,1.699,1.6346,1.6215,1.6067,1.5715,1.5142,1.3832,1.2461,0.0,0.0,0.0,0.0,0.0,0.0,0.0,0.0,0.0,0.0,0.0,0.7506,0.6943,0.0,0.0,0.0,0.8201,0.8432,0.8918,0.919,0.0,0.0,0.0,0.0,0.0,0.0,0.0,1.1496,1.2383,1.3084,1.3298,1.3496,1.3643,1.3701,1.377,1.3522,1.2715,0.0,1.2473,1.1796,1.1459,1.1136,1.0802,1.0733,1.0714,1.0565,1.0651,1.0513,1.0108,1.0275,1.0441,1.0344,1.0637,1.0974,1.0974,1.1244,1.1299,1.0796,1.0589,1.052,1.0675,1.0554,1.0601,1.8412,1.832,1.7427,1.6901,1.6704,1.6658,1.7022,1.7668,1.7605,1.7636,1.7668,1.7254,1.7038,1.7022,1.6674,0.0,1.7053,1.7068,1.7275,1.7699,1.7714,1.7482,1.7079,1.7083,1.6969,1.6739,1.6728,1.6935,1.7309,1.6899,1.7094,1.7803,1.6614,1.6498,1.7422,1.7313,1.802,1.9563,1.9407,1.9254,1.9161,1.7972,1.7575,1.8054,1.7036,1.6618,1.6913,1.6591,1.6388,1.6332,1.4593,1.3193,1.2246,0.0,0.0,0.0,0.0,0.0,0.0,0.0,0.0,0.0,0.0,0.0,0.0,0.0,0.0,0.0,0.9663,0.0,1.0707,1.0553,0.0,0.0,0.0,1.1481,1.2567,1.2806,1.3138,1.3843,0.0,0.0,1.4625,1.4844,1.5048,1.5207,1.5064,1.4786,1.4268,1.4317,1.4128,1.3215,1.3369,1.3172,1.2206,1.2361,1.2352,1.1584,1.1424,1.1256,1.0823,1.0991,1.1121,1.0744,1.1386,1.1983,1.2022,1.2314,1.2328,1.1154,1.0884,1.0856,1.0956,1.1128,1.131,1.929,1.9288,1.9198,1.8553,1.7616,1.785,1.7801,1.759,1.8002,1.8008,1.7683,1.7569,1.7518,1.7533,1.7445,1.744,1.7533,1.7544,1.758,1.7699,1.7796,1.7785,1.7696,1.7854,1.7888,1.7817,1.7817,1.7799,1.7757,1.7642,1.7524,1.744,1.7129,1.7329,1.8045,1.7748,1.8178,1.9443,1.8865,1.8709,1.9041,1.8735,1.8415,1.8093,1.7393,1.6867,1.6558,1.645,1.6388,1.6378,1.5598,1.4423,1.2811,1.1049,0.0,0.0,0.0,0.0,0.0,0.0,0.0,0.0,0.0,0.8836,0.7513,0.0,0.9128,0.0,1.0331,1.1021,1.129,1.1387,0.0,0.0,1.1917,1.2169,1.3242,1.3468,1.3702,1.4083,1.4581,1.4981,1.518,1.5463,1.5803,1.6239,1.5846,1.5372,1.5012,1.498,1.4922,1.4692,1.4525,1.4323,1.4028,1.382,1.3424,1.2574,1.2457,1.2221,1.1551,1.1524,1.1509,1.1246,1.158,1.2046,1.2283,1.2531,1.2685,1.2519,1.2196,1.1993,1.2164,1.1984,1.1805,2.0079,2.0154,2.0378,1.9688,1.8455,1.8883,1.8906,1.8685,1.9021,1.8961,1.863,1.8413,1.833,1.8319,1.833,1.8319,1.833,1.8314,1.8314,1.833,1.8399,1.8333,1.8124,1.8239,1.8176,1.7972,1.7987,1.8019,1.8114,1.8124,1.8119,1.8093,1.8093,1.8301,1.8706,1.8052,1.8412,1.9862,1.9114,1.8805,1.8962,1.8469,1.8057,1.7786,1.6978,1.6405,1.6088,1.5905,1.587,1.6042,1.5372,1.4287,1.288,1.1435,0.9921,0.0,0.0,0.0,0.0,0.0,0.0,0.0,0.0,0.0,0.0,0.0,0.9962,1.0117,1.1172,1.2017,1.2408,1.253,1.2916,1.3736,1.359,1.3825,1.4881,1.5033,1.5204,1.5552,1.6006,1.6279,1.6267,1.6401,1.656,1.671,1.6376,1.6087,1.5905,1.5875,1.5863,1.5858,1.5716,1.5522,1.5444,1.4791,1.418,1.3691,1.3326,1.2893,1.2305,1.2372,1.2366,1.2076,1.2357,1.2706,1.2875,1.2982,1.3105,1.3222,1.3324,1.3204,1.2945,1.2777,1.2721,2.084,2.0977,2.1221,2.0608,1.9521,2.0022,2.0048,1.9762,1.979,1.9767,1.9689,1.9409,1.9305,1.9357,1.9226,1.9233,1.9264,1.9133,1.9098,1.9098,1.9098,1.8891,1.8491,1.8543,1.833,1.7874,1.7936,1.8148,1.847,1.848,1.8673,1.8988,1.9015,1.9086,1.9177,1.8286,1.8561,2.0054,1.9541,1.9136,1.8877,1.7811,1.7254,1.7253,1.6267,1.5693,1.5601,1.5228,1.5183,1.5542,1.465,1.373,1.2874,1.1557,1.0447,0.0,0.8871,0.0,0.0,0.0,0.0,0.0,0.0,0.0,0.0,1.0615,1.0849,1.1247,1.2193,1.3068,1.3744,1.3848,1.4372,1.5589,1.5542,1.5753,1.6654,1.6813,1.6964,1.731,1.7618,1.7673,1.7379,1.7363,1.7199,1.6876,1.6789,1.671,1.6673,1.6637,1.664,1.6765,1.6821,1.6658,1.6368,1.5597,1.4972,1.4831,1.4263,1.3621,1.3203,1.3334,1.3384,1.303,1.3177,1.3507,1.3641,1.3668,1.3717,1.3907,1.4369,1.4394,1.3654,1.3727,1.3853,2.1672,2.1722,2.1916,2.1849,2.163,2.19,2.0473,1.8007,1.8093,1.8566,1.9257,1.9882,2.0379,2.064,1.9972,1.9831,2.0103,1.9423,1.9098,1.9098,1.9098,1.9056,1.8994,1.9357,1.9312,1.8874,1.9216,1.9247,1.8973,1.8973,1.8812,1.8548,1.8522,1.8665,1.8876,0.0,0.0,0.0,1.9072,1.9214,1.83,1.7729,1.7219,1.674,1.6177,0.0,1.5148,1.5049,1.5038,1.5121,1.4933,0.0,0.0,0.0,0.0,0.0,0.0,0.0,0.0,0.0,0.0,0.0,1.0732,1.065,1.0536,1.1233,1.1981,1.2662,1.3361,1.4117,1.4834,1.5144,1.5518,1.6031,1.6281,1.6614,1.714,1.7435,1.7626,1.7689,1.7761,1.7777,1.7721,1.7705,1.7578,1.7252,1.7196,1.7056,1.6765,1.6721,1.6829,1.7119,1.7395,1.7431,1.7101,1.6808,1.6463,1.6237,1.5558,1.4944,1.4612,1.4129,1.3795,1.3489,1.3451,1.3832,1.454,1.4549,1.4673,1.5518,1.5623,1.5318,1.4519,1.4905,1.5379,2.2488,2.2531,2.2764,2.2452,0.0,2.2171,2.0962,1.8832,1.9845,2.0465,2.0791,2.1,2.122,2.1414,2.0503,2.0213,2.0351,1.9268,1.8891,1.9088,1.8853,1.8988,1.9467,1.9679,1.9793,1.9748,1.9975,1.9869,1.9461,1.944,1.9202,1.8739,1.9087,1.9302,1.9442,1.9696,1.9377,1.8444,1.9341,1.9361,1.8523,1.804,1.7394,1.6569,1.6059,0.0,0.0,0.0,0.0,0.0,0.0,0.0,0.0,0.0,0.0,1.1062,1.0491,1.0327,1.0656,1.0846,1.1193,1.1754,1.1924,1.1956,1.1788,1.2552,1.333,1.4053,1.4442,1.4927,1.561,1.584,1.6242,1.6873,1.7,1.7199,1.7713,1.7922,1.8055,1.8079,1.8206,1.8232,1.8057,1.8055,1.7912,1.7602,1.7538,1.7474,1.7278,1.7111,1.7135,1.749,1.7832,1.7978,1.7778,1.7553,1.7398,1.7102,1.6504,1.5994,1.5819,1.5481,1.5171,1.5064,1.5038,1.5236,1.5621,1.5686,1.5754,1.6264,1.6578,1.6631,1.6206,1.6221,1.6234,2.3101,2.3113,2.3341,2.2815,2.1867,2.2201,2.1743,2.0847,2.2144,0.0,0.0,2.2139,2.2097,2.2108,2.1189,2.0816,2.0806,1.9572,1.9154,1.9423,1.9061,1.9237,1.9907,2.0,2.0151,2.0403,2.0485,2.0289,1.9917,1.9834,1.9623,1.9304,1.9708,1.9993,2.0112,2.0532,2.0445,1.9903,1.9789,1.9541,1.9043,1.8212,1.7437,1.6682,1.5953,1.5393,1.5031,1.501,1.5186,1.5559,1.558,1.5057,1.3973,1.3888,1.324,1.1845,1.1692,1.1805,1.2076,1.2115,1.2274,1.2662,1.31,1.3362,1.337,1.3878,1.453,1.53,1.5391,1.565,1.6325,1.6397,1.6786,1.7777,1.7641,1.7715,1.8287,1.8398,1.839,1.84,1.8614,1.8701,1.8438,1.839,1.8263,1.7984,1.7888,1.7888,1.7856,1.7657,1.7602,1.7856,1.816,1.8376,1.8348,1.814,1.7917,1.7893,1.7271,1.681,1.6793,1.6699,1.6612,1.6422,1.6588,1.6615,1.6739,1.6751,1.6864,1.6988,1.7466,1.7901,1.7856,1.75,1.7101,2.3101,2.3101,2.3144,2.3168,2.3226,2.329,2.3309,2.3198,2.2336,2.1924,2.1942,2.2677,2.3215,2.3556,2.2625,2.2428,2.2729,2.1776,2.1155,2.0824,2.0752,2.0568,2.0341,2.0723,2.0734,2.0454,2.0806,2.0765,2.032,1.9962,1.9761,1.9665,1.9406,1.9545,2.0015,1.9616,1.9868,2.0831,2.0011,1.9553,1.9559,1.7643,1.6857,1.7193,1.587,1.507,1.501,1.5021,1.5028,1.509,1.5101,1.4696,1.3893,1.384,1.3392,1.2551,1.2439,1.2463,1.2511,1.2495,1.267,1.302,1.3869,1.4383,1.4391,1.447,1.4964,1.5916,1.6055,1.6349,1.7016,1.7104,1.7419,1.8089,1.8176,1.8319,1.8684,1.8701,1.8709,1.8709,1.8765,1.8796,1.8717,1.8701,1.8574,1.8311,1.8224,1.8224,1.8216,1.8184,1.8168,1.8255,1.8495,1.8701,1.8678,1.868,1.8566,1.8635,1.8017,1.7552,1.7552,1.7138,1.68,1.6652,1.6753,1.6927,1.7412,1.7552,1.7769,1.8187,1.8481,1.8566,1.8566,1.8455,1.8401,2.3101,2.3101,2.3101,2.3166,2.3297,2.3438,2.3602,2.3749,2.3152,2.29,2.291,2.3338,2.3654,2.3756,2.3023,2.2705,2.2778,2.1732,2.1268,2.1268,2.0667,2.0677,2.1118,2.1005,2.1024,2.1158,2.1364,2.1248,2.0775,2.0338,2.0014,1.9806,1.9695,1.9786,2.0058,1.9797,1.9781,2.0015,1.9892,1.9725,1.9514,1.8545,1.7767,1.7202,1.6427,1.5966,1.5766,1.5753,1.5856,1.6066,1.6087,1.5776,1.5083,1.4693,1.4079,1.3155,1.2782,1.2606,1.2606,1.2758,1.31,1.3616,1.4234,1.4771,1.5181,1.5361,1.573,1.6408,1.6659,1.6942,1.7276,1.7459,1.7769,1.8247,1.8303,1.8438,1.8733,1.8804,1.8804,1.8804,1.8804,1.8804,1.8804,1.8804,1.8765,1.8582,1.8558,1.8589,1.8558,1.8581,1.8589,1.8574,1.8701,1.8781,1.8812,1.8804,1.8804,1.8804,1.8519,1.8303,1.828,1.7939,1.7831,1.78,1.7776,1.7916,1.8257,1.828,1.8465,1.8635,1.8804,1.8804,1.8804,1.8804,1.8804,2.3201,2.3101,2.3101,2.3101,2.3113,2.3319,2.3503,2.3646,2.3636,2.3646,2.3646,2.3754,2.3797,2.3749,2.3253,2.2949,2.2684,2.1886,2.1649,2.1772,2.0971,2.1006,2.1689,2.1296,2.1314,2.1711,2.1769,2.1611,2.123,2.0785,2.0296,1.9855,1.9851,1.9998,2.0254,2.0106,1.9843,1.9521,1.9843,1.9901,1.9566,1.932,1.8629,1.7656,1.7288,1.6969,1.656,1.6529,1.6643,1.6841,1.6791,1.6442,1.5821,1.5235,1.4482,1.3547,1.3025,1.2782,1.2845,1.3132,1.3553,1.4069,1.4496,1.5004,1.5629,1.5999,1.6349,1.6686,1.704,1.7307,1.7443,1.7721,1.8055,1.8367,1.8414,1.8511,1.8757,1.8804,1.8804,1.8804,1.8804,1.8804,1.8804,1.8804,1.8796,1.8788,1.8804,1.8804,1.8804,1.886,1.8955,1.8947,1.8931,1.8947,1.8939,1.905,1.9027,1.8986,1.9019,1.894,1.8854,1.8837,1.8845,1.8728,1.8712,1.8689,1.8758,1.8781,1.8781,1.8804,1.8804,1.8804,1.8804,1.8804,1.8804,2.3484,2.312,2.312,2.3101,2.3101,2.3113,2.3166,2.3178,2.3166,2.3157,2.3232,2.3624,2.3776,2.3819,2.3708,2.3648,2.3615,2.3568,2.3297,2.3006,2.2925,2.2503,2.1858,2.1905,2.183,2.1581,2.1693,2.1709,2.1604,2.1191,2.0596,1.9834,1.9393,1.9707,2.0501,2.012,2.0069,2.0611,2.0113,1.9898,1.9971,1.9014,1.8696,1.9151,1.8159,1.742,1.6946,1.6929,1.6779,1.6451,1.6208,1.5689,1.4962,1.4553,1.4065,1.3406,1.3248,1.3323,1.3496,1.3815,1.4012,1.4139,1.4744,1.5295,1.5669,1.6015,1.6329,1.6702,1.7059,1.7435,1.7721,1.8041,1.8383,1.8654,1.8717,1.8781,1.8773,1.8804,1.8804,1.8804,1.8804,1.8804,1.8804,1.8804,1.8804,1.8804,1.8804,1.8804,1.882,1.9042,1.9209,1.9288,1.9336,1.9344,1.9367,1.9598,1.9535,1.9383,1.9566,1.9423,1.9082,1.9074,1.9241,1.8947,1.8804,1.8804,1.8804,1.8804,1.8804,1.8804,1.8804,1.8804,1.8804,1.8804,1.8804,2.3626,2.3453,2.3332,2.3214,2.311,2.3101,2.3101,2.3101,2.3101,2.3101,2.3113,2.3297,2.3375,2.3375,2.3569,2.3537,2.3396,2.3559,2.3544,2.3345,2.2978,2.2584,2.2231,2.187,2.1588,2.1351,2.1416,2.1312,2.1065,2.0728,2.0186,1.9525,1.9356,1.9386,1.947,1.9435,1.9462,1.9422,1.9435,1.9353,1.9139,1.8823,1.8579,1.8466,1.8067,1.7612,1.719,1.7104,1.7109,1.7041,1.691,1.6544,1.5861,1.5281,1.4632,1.3941,1.34,1.3301,1.3708,1.3857,1.4057,1.4358,1.4895,1.5343,1.5704,1.619,1.6654,1.7024,1.7387,1.7729,1.8063,1.8384,1.8654,1.8781,1.8804,1.8804,1.8804,1.8804,1.8804,1.8804,1.8804,1.8804,1.8804,1.8804,1.8804,1.8804,1.8804,1.8804,1.882,1.8962,1.9011,1.9105,1.9399,1.9662,1.9678,1.9598,1.9558,1.9439,1.9288,1.9074,1.9233,1.8995,1.9019,1.9137,1.8955,1.8812,1.8804,1.8804,1.8804,1.8781,1.8781,1.8766,1.8635,1.872,1.8743,2.3814,2.3705,2.3603,2.3409,2.3188,2.3276,2.323,2.3101,2.3101,2.3101,2.3101,2.3101,2.3101,2.3144,2.3319,2.3276,2.3166,2.3385,2.346,2.3355,2.2951,2.2635,2.2307,2.1908,2.1491,2.1189,2.1186,2.1063,2.073,2.0313,1.991,1.9583,1.9353,1.9113,1.8945,1.9236,1.9166,1.8787,1.9166,1.9098,1.8579,1.859,1.8472,1.8117,1.807,1.7849,1.7427,1.7397,1.741,1.7393,1.7348,1.6986,1.6276,1.5623,1.4924,1.4234,1.3623,1.3466,1.3861,1.3876,1.4055,1.4453,1.4864,1.5249,1.564,1.6206,1.6805,1.7366,1.7657,1.7928,1.8263,1.8598,1.8788,1.8804,1.8804,1.8804,1.8804,1.8804,1.8804,1.8804,1.8804,1.8804,1.8804,1.8804,1.8804,1.8804,1.8804,1.8758,1.8767,1.8799,1.8855,1.8785,1.9351,1.9764,1.9852,1.9861,1.9646,1.9495,1.9336,1.9296,1.9391,1.9105,1.8979,1.9248,1.9002,1.8836,1.8812,1.8804,1.8735,1.872,1.8674,1.8581,1.8396,1.8535,1.8535,2.4046,2.3762,2.3895,2.3742,2.3422,2.3618,2.3493,2.314,2.3101,2.3101,2.3101,2.3101,2.3101,2.3101,2.3144,2.3123,2.3144,2.3373,2.3341,2.3178,2.3333,2.289,2.1976,2.2072,2.1709,2.1025,2.108,2.1127,2.1075,2.033,2.0099,2.0325,1.9249,1.9025,1.957,1.9711,1.9598,1.9131,1.9472,1.9326,1.8439,1.833,1.8378,1.8405,1.8442,1.8238,1.7903,1.7875,1.7668,1.7246,1.7048,1.6457,1.5501,1.5081,1.4573,1.3924,1.3942,1.4014,1.4047,1.404,1.4096,1.4227,1.4633,1.505,1.5451,1.5984,1.671,1.7665,1.7793,1.7954,1.8281,1.8599,1.8781,1.8781,1.8804,1.8781,1.8804,1.8781,1.8804,1.8804,1.8804,1.8804,1.8804,1.8804,1.8781,1.8781,1.8781,1.8728,1.8582,1.8769,1.8831,1.8805,1.9117,1.9576,1.9843,1.9811,1.9931,1.9708,1.9367,1.959,1.9511,1.9407,1.9344,1.9265,1.8933,1.8752,1.8774,1.8735,1.862,1.8535,1.8326,1.821,1.8141,1.8133,1.8133,2.4067,2.3846,2.3899,2.388,2.3781,2.3625,2.3544,2.3525,2.323,2.3101,2.3101,2.3101,2.3101,2.3101,2.3101,2.3101,2.3101,2.321,2.3188,2.3101,2.32,2.2897,2.2335,2.2105,2.1714,2.1144,2.0908,2.0828,2.0769,2.0309,2.0101,2.0028,1.9515,1.9187,1.909,1.9055,1.8856,1.853,1.8856,1.8752,1.8215,1.811,1.8144,1.8178,1.8178,1.8126,1.7978,1.7951,1.7939,1.7896,1.7786,1.7205,1.5999,1.483,1.4029,1.3681,1.3666,1.3783,1.3891,1.3891,1.4055,1.4399,1.4585,1.501,1.5627,1.6116,1.6744,1.7553,1.7847,1.8039,1.8345,1.8549,1.8612,1.8589,1.8612,1.8612,1.8635,1.872,1.8804,1.8804,1.8804,1.8804,1.8758,1.8804,1.8743,1.8651,1.8754,1.8652,1.8404,1.8526,1.8701,1.8692,1.8962,1.9265,1.9363,1.941,1.9397,1.9103,1.89,1.8876,1.8831,1.8715,1.8637,1.887,1.866,1.8466,1.8435,1.8388,1.8319,1.828,1.8071,1.7999,1.7885,1.7968,1.7953,2.4144,2.4025,2.4065,2.4063,2.3937,2.3643,2.3567,2.3638,2.3198,2.3035,2.3091,2.3101,2.3101,2.3101,2.3101,2.3101,2.3123,2.3178,2.3188,2.3123,2.3188,2.2963,2.2519,2.2227,2.1766,2.122,2.0781,2.0596,2.0556,2.0269,2.0122,2.0117,1.959,1.9139,1.8838,1.8685,1.8442,1.8313,1.8615,1.8693,1.8447,1.8428,1.8332,1.8215,1.8196,1.8144,1.8018,1.8008,1.8059,1.8178,1.8202,1.7569,1.6149,1.4822,1.3902,1.3564,1.3492,1.3554,1.3681,1.3699,1.3914,1.437,1.4589,1.4988,1.5657,1.6065,1.6692,1.7347,1.7617,1.7839,1.821,1.8288,1.8264,1.8334,1.8381,1.8381,1.8388,1.8489,1.8558,1.855,1.855,1.855,1.8573,1.8573,1.8489,1.8381,1.8612,1.8548,1.8169,1.8357,1.8529,1.8428,1.8694,1.8867,1.8884,1.8847,1.8951,1.8724,1.8454,1.8361,1.8314,1.8185,1.817,1.8407,1.8384,1.8178,1.8063,1.8017,1.7994,1.7978,1.795,1.7897,1.7876,1.7877,1.7877,2.4168,2.4223,2.4406,2.4253,2.3967,2.3777,2.3593,2.3451,2.3012,2.2949,2.3113,2.3089,2.3069,2.3101,2.3101,2.3101,2.3135,2.3319,2.3297,2.3144,2.3341,2.3113,2.2578,2.249,2.1991,2.12,2.0801,2.0615,2.0576,2.0233,2.0175,2.0292,1.9365,1.9051,1.9287,1.8898,1.8637,1.8685,1.9033,1.9237,1.9268,1.918,1.9004,1.8656,1.8578,1.8383,1.8057,1.8018,1.8008,1.8025,1.8025,1.7278,1.5921,1.4895,1.4204,1.3619,1.3492,1.3492,1.3499,1.3539,1.3733,1.4106,1.4505,1.495,1.5398,1.583,1.6383,1.7043,1.7183,1.7384,1.7918,1.7885,1.7838,1.804,1.8087,1.8087,1.8087,1.811,1.811,1.8156,1.8179,1.811,1.811,1.8233,1.8233,1.824,1.8468,1.851,1.8053,1.834,1.8375,1.8181,1.841,1.8746,1.8516,1.8274,1.8422,1.8471,1.8205,1.8038,1.8097,1.802,1.7959,1.8119,1.8042,1.7861,1.7823,1.7776,1.7714,1.7712,1.774,1.7824,1.7849,1.7844,1.7816,2.382,2.4177,2.4251,2.4301,2.4271,2.3986,2.3914,2.3923,2.3248,2.307,2.3214,2.3007,2.2969,2.3079,2.3101,2.3101,2.3123,2.3188,2.3178,2.3123,2.3188,2.312,2.2888,2.2646,2.204,2.1259,2.0801,2.0615,2.0586,2.0459,2.0488,2.0419,1.9873,1.9591,1.9687,1.9307,1.9082,1.9083,1.9219,1.9277,1.9277,1.9287,1.9237,1.9082,1.8763,1.8529,1.8412,1.8147,1.8018,1.8008,1.7991,1.7295,1.5833,1.451,1.3768,1.3546,1.3492,1.3492,1.3521,1.3737,1.3979,1.4308,1.469,1.5079,1.5491,1.5722,1.6216,1.6913,1.6955,1.7086,1.7619,1.7574,1.7551,1.7791,1.7815,1.7838,1.7831,1.7978,1.8087,1.8087,1.8087,1.8087,1.814,1.8247,1.832,1.8253,1.8621,1.8725,1.8341,1.8476,1.8739,1.855,1.8736,1.8793,1.8687,1.849,1.842,1.8344,1.8062,1.7841,1.7877,1.784,1.7794,1.7764,1.7681,1.7628,1.7567,1.7543,1.7504,1.7568,1.7704,1.7759,1.7794,1.7821,1.7872,2.3513,2.3861,2.4093,2.4276,2.4344,2.3931,2.3908,2.4031,2.3411,2.3271,2.34,2.306,2.3089,2.3293,2.3026,2.2991,2.3141,2.2959,2.2838,2.2882,2.3047,2.3091,2.3042,2.2693,2.2254,2.1718,2.1269,2.1104,2.1065,2.0918,2.084,2.0752,2.0196,2.0,2.0068,1.9618,1.9423,1.9686,1.9619,1.9618,1.9745,1.9774,1.9706,1.9512,1.924,1.9007,1.8869,1.8596,1.834,1.8076,1.8008,1.727,1.5798,1.4832,1.4093,1.3583,1.3499,1.3554,1.3667,1.3865,1.4206,1.4575,1.4811,1.5092,1.5495,1.5677,1.6147,1.6652,1.6825,1.6973,1.7409,1.7403,1.738,1.7535,1.7551,1.7551,1.7574,1.7691,1.7776,1.7776,1.7776,1.786,1.801,1.813,1.8323,1.8303,1.8694,1.8891,1.8553,1.8719,1.8818,1.8899,1.8964,1.8964,1.8961,1.8774,1.8519,1.8252,1.7962,1.7807,1.7752,1.7582,1.7471,1.7494,1.7434,1.7457,1.7426,1.7403,1.7371,1.7499,1.768,1.7933,1.8072,1.805,1.8018,2.3229,2.3329,2.3845,2.4044,2.4057,2.366,2.3669,2.3851,2.3494,2.343,2.3504,2.3187,2.3328,2.3557,2.2936,2.284,2.3162,2.2736,2.2476,2.2564,2.2806,2.2991,2.2923,2.2555,2.2324,2.2238,2.1899,2.1754,2.1616,2.1304,2.1199,2.0974,2.0382,2.0167,2.0362,1.9776,1.9845,2.0323,2.0119,2.0138,2.042,2.0459,2.0323,1.9904,1.9807,1.9621,1.9365,1.9081,1.8741,1.8196,1.8012,1.7266,1.6149,1.5778,1.4969,1.3862,1.3638,1.3759,1.3964,1.4106,1.4362,1.4876,1.503,1.5117,1.5554,1.5854,1.6132,1.6507,1.6735,1.7005,1.7245,1.7309,1.7333,1.7309,1.7356,1.7356,1.7309,1.7356,1.7403,1.738,1.7317,1.7443,1.78,1.7878,1.8077,1.8355,1.8685,1.8719,1.8621,1.8753,1.8972,1.9004,1.8916,1.881,1.8697,1.8531,1.8272,1.802,1.774,1.7572,1.7471,1.729,1.7145,1.7169,1.7216,1.7239,1.7216,1.7145,1.7245,1.7399,1.7724,1.813,1.8239,1.8118,1.7956,2.2358,2.2703,2.2887,2.3163,2.3479,2.3388,2.3657,2.4039,2.3629,2.3482,2.3397,2.3294,2.3241,2.3212,2.3009,2.2953,2.2934,2.2599,2.2397,2.2419,2.2508,2.2574,2.251,2.2186,2.2017,2.1981,2.1706,2.1387,2.1387,2.1312,2.1072,2.0788,2.0716,2.0581,2.0569,2.0505,2.0495,2.0577,2.05,2.028,2.0137,2.0137,2.0158,2.0198,1.9869,1.9723,1.9605,1.8824,1.8634,1.8868,1.777,1.7377,1.7278,1.6331,1.5458,1.5042,1.4516,1.425,1.4355,1.4533,1.4834,1.5234,1.5448,1.5775,1.6111,1.6213,1.6426,1.6705,1.6873,1.6989,1.7229,1.7286,1.7286,1.7309,1.7286,1.7286,1.7309,1.7309,1.7309,1.7309,1.7286,1.7447,1.7702,1.795,1.8223,1.8584,1.8855,1.9011,1.8814,1.8759,1.8958,1.8679,1.8535,1.8447,1.8334,1.8178,1.7994,1.7761,1.7481,1.721,1.7095,1.6956,1.6834,1.6777,1.6871,1.6918,1.6847,1.6753,1.6989,1.7298,1.7512,1.7782,1.7921,1.7895,1.7736,2.1878,2.2182,2.24,2.2828,2.3254,2.3279,2.3662,2.4081,2.3938,2.3757,2.3647,2.3453,2.3401,2.3359,2.292,2.2775,2.2796,2.2341,2.2109,2.2087,2.2109,2.2211,2.2287,2.2114,2.2069,2.2041,2.1802,2.1738,2.1691,2.1549,2.1312,2.1155,2.1039,2.1039,2.1138,2.1018,2.1058,2.1061,2.0945,2.0642,2.0245,2.0216,2.0123,2.0147,1.985,1.9784,1.9698,1.8504,1.806,1.8323,1.7561,1.7073,1.7467,1.6413,1.565,1.5535,1.4793,1.4395,1.4577,1.4745,1.5073,1.5525,1.5857,1.6075,1.6323,1.6432,1.6561,1.6677,1.6761,1.6865,1.6994,1.7099,1.7122,1.7028,1.7106,1.7216,1.7286,1.7309,1.7263,1.7192,1.7191,1.7299,1.758,1.7804,1.819,1.8632,1.8877,1.8953,1.8887,1.8874,1.8764,1.8455,1.8244,1.8161,1.7962,1.778,1.7542,1.7315,1.7054,1.6784,1.6752,1.6643,1.6628,1.6588,1.6588,1.6602,1.6576,1.6639,1.6909,1.7161,1.7278,1.7456,1.7648,1.7535,1.7389,2.1615,2.1649,2.2123,2.2652,2.3029,2.3129,2.3413,2.3994,2.4016,2.402,2.3966,2.3688,2.3612,2.3758,2.2843,2.2497,2.2606,2.2049,2.1813,2.1754,2.1776,2.1932,2.2211,2.2195,2.2167,2.2189,2.2299,2.2211,2.2045,2.1854,2.1725,2.1506,2.1285,2.1391,2.1421,2.1323,2.1419,2.1468,2.124,2.0893,2.0575,2.0491,2.0379,2.0193,2.0207,2.0084,1.9682,1.859,1.7797,1.7991,1.7135,1.6815,1.6809,1.614,1.572,1.5478,1.4904,1.4504,1.4734,1.4895,1.5148,1.581,1.5982,1.6128,1.637,1.6489,1.6541,1.6577,1.6575,1.6657,1.6692,1.6855,1.6847,1.6753,1.6847,1.7035,1.7169,1.7239,1.7153,1.6996,1.6949,1.7082,1.7258,1.7439,1.7684,1.8203,1.847,1.8465,1.8475,1.8431,1.8345,1.8246,1.8026,1.7879,1.7615,1.7325,1.708,1.6826,1.6541,1.6333,1.6419,1.6387,1.6437,1.644,1.6305,1.636,1.6514,1.6666,1.6846,1.6985,1.7094,1.7348,1.7587,1.7178,1.6928,2.107,2.107,2.1198,2.1547,2.1996,2.2055,2.2602,2.3479,2.3513,2.3559,2.3688,2.3904,2.3681,2.3145,2.2882,2.2657,2.2405,2.197,2.1696,2.1687,2.1687,2.1731,2.1865,2.1887,2.1865,2.1887,2.1865,2.1865,2.1819,2.1789,2.1561,2.1309,2.1401,2.1324,2.1293,2.1392,2.1305,2.1272,2.1167,2.0957,2.0634,2.0581,2.0557,2.0533,2.0707,2.0677,2.0329,1.9442,1.8588,1.7781,1.6843,1.6407,1.683,1.6327,1.6009,1.5957,1.5428,1.507,1.532,1.5367,1.5579,1.5974,1.6104,1.6218,1.6511,1.6546,1.657,1.6591,1.6593,1.6541,1.6534,1.6636,1.6636,1.6588,1.6612,1.6706,1.6753,1.677,1.6777,1.6706,1.669,1.6802,1.7091,1.7112,1.739,1.7789,1.7874,1.7865,1.7911,1.7963,1.7884,1.7798,1.7476,1.7229,1.7007,1.6699,1.6421,1.6264,1.6033,1.5948,1.603,1.6045,1.6089,1.6038,1.595,1.6079,1.6248,1.637,1.6468,1.667,1.6839,1.6939,1.6918,1.6634,1.6577,2.0899,2.0899,2.0899,2.1198,2.1649,2.1725,2.2148,2.2803,2.2929,2.3123,2.3428,2.3689,2.355,2.3206,2.316,2.2959,2.2556,2.2176,2.1883,2.1764,2.1687,2.1687,2.1687,2.1687,2.1687,2.1687,2.1709,2.1687,2.1687,2.1678,2.159,2.1407,2.1489,2.1498,2.141,2.1467,2.1498,2.1442,2.137,2.1178,2.0839,2.0787,2.0659,2.061,2.0627,2.0477,2.0209,1.8902,1.8083,1.732,1.631,1.6025,1.6753,1.6316,1.6093,1.6297,1.5719,1.5352,1.5447,1.5534,1.5666,1.61,1.6158,1.6334,1.6476,1.6494,1.6407,1.6383,1.6305,1.6211,1.6228,1.6353,1.6353,1.6282,1.6359,1.6359,1.6305,1.6447,1.6548,1.6478,1.64,1.6493,1.6617,1.6725,1.6953,1.7288,1.7401,1.74,1.7438,1.7443,1.7325,1.7165,1.6789,1.6502,1.63,1.6046,1.5708,1.5608,1.5521,1.5557,1.5706,1.5702,1.5669,1.5689,1.5732,1.5759,1.5901,1.6013,1.6114,1.6236,1.6322,1.634,1.6279,1.6102,1.621,2.0899,2.0899,2.0899,2.1173,2.1522,2.1573,2.1852,2.2325,2.2375,2.266,2.3154,2.3254,2.3345,2.3341,2.3447,2.3261,2.2867,2.2455,2.2094,2.1879,2.1723,2.1696,2.1687,2.1687,2.1687,2.1687,2.1687,2.1687,2.1597,2.1651,2.1592,2.1602,2.17,2.1645,2.1682,2.1709,2.1663,2.1645,2.1636,2.1535,2.1242,2.1178,2.1053,2.0824,2.0615,2.0407,2.0077,1.8984,1.7775,1.7176,1.6081,1.6011,1.6165,1.6042,1.5759,1.6323,1.566,1.5443,1.5506,1.5524,1.5688,1.6116,1.614,1.6228,1.6329,1.6258,1.617,1.6076,1.5998,1.5855,1.5784,1.5998,1.5998,1.5927,1.6028,1.6004,1.595,1.6228,1.6282,1.6194,1.614,1.6181,1.6181,1.6228,1.6512,1.6742,1.6846,1.6908,1.6922,1.6873,1.6714,1.6621,1.6296,1.6092,1.5917,1.5849,1.5457,1.5434,1.5303,1.5418,1.5564,1.5645,1.5698,1.5612,1.5597,1.5641,1.5677,1.5803,1.5865,1.587,1.5857,1.5903,1.581,1.5617,1.5765,2.0899,2.0899,2.0899,2.0976,2.1027,2.1019,2.1351,2.1776,2.1818,2.2148,2.2652,2.307,2.3042,2.303,2.3329,2.3255,2.2799,2.2421,2.2194,2.2021,2.1807,2.1653,2.1603,2.1567,2.1612,2.1687,2.162,2.1419,2.132,2.1463,2.1351,2.1244,2.1432,2.1597,2.1597,2.1687,2.1562,2.1508,2.153,2.148,2.1416,2.138,2.1406,2.1229,2.1,2.0889,2.079,2.0474,1.9626,1.7933,1.7692,1.6917,1.6079,1.5429,1.5377,1.5561,1.5547,1.5444,1.5564,1.5691,1.5748,1.5849,1.5832,1.5855,1.5903,1.5879,1.5838,1.5832,1.5784,1.5706,1.5588,1.5737,1.5832,1.5808,1.5784,1.5838,1.5808,1.5882,1.5967,1.5899,1.5872,1.5896,1.5927,1.5927,1.6024,1.617,1.616,1.6189,1.6175,1.6091,1.5946,1.5879,1.5849,1.5703,1.5576,1.5572,1.546,1.5587,1.5537,1.5569,1.5701,1.5795,1.5788,1.5592,1.557,1.5627,1.5654,1.5642,1.5624,1.5613,1.5568,1.5525,1.5318,1.5156,1.522,2.1169,2.1119,2.0978,2.0899,2.0899,2.0899,2.1045,2.1267,2.1292,2.1564,2.2021,2.2375,2.2566,2.2644,2.2832,2.2743,2.2423,2.2214,2.1984,2.1781,2.1572,2.1384,2.1297,2.1248,2.1106,2.1032,2.0947,2.1037,2.0975,2.0938,2.088,2.0744,2.0871,2.097,2.097,2.0947,2.0992,2.0992,2.0992,2.0992,2.0992,2.0992,2.1082,2.115,2.0699,2.0444,2.0592,1.9552,1.8902,1.804,1.7447,1.6716,1.599,1.5414,1.5163,1.5368,1.5447,1.5406,1.5449,1.5428,1.5428,1.5428,1.5458,1.5458,1.5458,1.5434,1.5475,1.5452,1.5458,1.541,1.5291,1.541,1.541,1.5434,1.5458,1.5458,1.5491,1.5588,1.5652,1.5676,1.5682,1.5725,1.5808,1.5761,1.5659,1.5588,1.554,1.5519,1.5528,1.5417,1.5316,1.5335,1.5361,1.5344,1.5294,1.5339,1.5463,1.5626,1.5624,1.5655,1.5406,1.5285,1.5425,1.5472,1.5505,1.5219,1.5463,1.5394,1.5401,1.537,1.5276,1.5144,1.4884,1.4742,1.4838,2.1344,2.1365,2.105,2.0899,2.0899,2.0899,2.0899,2.0899,2.0925,2.1147,2.1496,2.17,2.1979,2.2291,2.2408,2.2347,2.2007,2.1988,2.1747,2.1533,2.1362,2.1152,2.099,2.0864,2.0886,2.0798,2.0403,2.042,2.0532,2.051,2.0314,2.0246,2.0224,2.0292,2.036,2.045,2.0292,2.0292,2.0292,2.0292,2.0292,2.0314,2.0473,2.0772,1.976,1.9641,1.9908,1.903,1.8256,1.772,1.705,1.6247,1.6048,1.5475,1.5196,1.5302,1.538,1.5285,1.5196,1.5124,1.5178,1.5202,1.5131,1.5131,1.5131,1.5178,1.5124,1.5029,1.5107,1.5107,1.5035,1.5089,1.5107,1.5131,1.5155,1.5145,1.5295,1.5422,1.5542,1.5528,1.5491,1.5568,1.5678,1.5654,1.556,1.5339,1.5261,1.5135,1.51,1.4961,1.4878,1.4908,1.4916,1.4955,1.4998,1.5131,1.5339,1.5609,1.5542,1.5503,1.4998,1.4518,1.4613,1.4522,1.4387,1.4188,1.4665,1.511,1.5102,1.5035,1.4955,1.482,1.4618,1.4544,1.4592,2.1186,2.1365,2.105,2.0899,2.0899,2.0891,2.0899,2.0899,2.0899,2.0925,2.1096,2.1471,2.17,2.1844,2.2249,2.2391,2.2272,2.1935,2.1725,2.1582,2.1378,2.12,2.1193,2.1256,2.103,2.0781,2.0344,1.9991,1.996,2.0121,2.0011,1.9806,1.9996,2.0246,2.0087,2.0065,2.0292,2.0269,2.0246,2.0224,2.0224,2.0201,2.0269,2.0275,1.9988,1.9657,1.9352,1.8661,1.8233,1.7378,1.6809,1.6247,1.5872,1.5387,1.5005,1.4933,1.4987,1.5131,1.5059,1.5011,1.5005,1.4981,1.5011,1.5083,1.5029,1.4987,1.4933,1.476,1.4909,1.4933,1.4814,1.4963,1.5059,1.5035,1.4987,1.5126,1.5296,1.5288,1.5394,1.5545,1.5538,1.5518,1.5566,1.5489,1.5418,1.5186,1.4987,1.4855,1.4736,1.4616,1.4568,1.4599,1.4698,1.4715,1.4707,1.4855,1.4977,1.5372,1.5159,1.5016,1.4346,1.364,1.3138,1.305,1.2951,1.3263,1.385,1.4281,1.4588,1.4678,1.4568,1.4473,1.4376,1.4352,1.4376,2.1144,2.1181,2.0836,2.0668,2.0694,2.0822,2.0899,2.0899,2.0899,2.0899,2.0917,2.1121,2.1249,2.1343,2.1522,2.1573,2.1565,2.1451,2.1343,2.1352,2.1163,2.0974,2.081,2.0778,2.0728,2.0515,2.0183,1.9812,1.963,1.9425,1.9302,1.9256,1.9356,1.9402,1.9563,1.9463,1.9417,1.9425,1.9425,1.9425,1.9448,1.9494,1.9608,1.9828,1.9011,1.868,1.8565,1.7653,1.7311,1.6685,1.6278,1.5829,1.5486,1.5016,1.4562,1.452,1.4568,1.464,1.464,1.4646,1.4688,1.4664,1.4664,1.464,1.4664,1.4664,1.464,1.449,1.4562,1.4586,1.4544,1.4592,1.4616,1.4664,1.4718,1.4867,1.506,1.5227,1.5293,1.5465,1.5582,1.5498,1.5432,1.5338,1.5219,1.4981,1.4791,1.4688,1.4568,1.4448,1.44,1.4376,1.4497,1.4591,1.4558,1.4581,1.4439,1.4548,1.4083,1.3848,1.334,1.2748,1.1995,1.1559,1.1464,1.2024,1.2862,1.351,1.387,1.4035,1.417,1.4119,1.4068,1.413,1.4165,2.0891,2.0831,2.0633,2.0462,2.0403,2.0694,2.0796,2.0796,2.0865,2.0899,2.0873,2.0873,2.0848,2.0865,2.0899,2.0917,2.0942,2.0899,2.0899,2.0899,2.0867,2.0742,2.0591,2.0453,2.0325,1.9942,1.9911,1.9689,1.9437,1.9178,1.898,1.8797,1.892,1.8874,1.8827,1.8897,1.8943,1.8943,1.892,1.8897,1.8874,1.8874,1.9081,1.8912,1.8303,1.7622,1.7668,1.6951,1.6393,1.6055,1.5551,1.5194,1.5272,1.4795,1.4418,1.4346,1.44,1.437,1.4394,1.4376,1.4322,1.4322,1.4322,1.4394,1.437,1.4322,1.4322,1.4346,1.4346,1.4346,1.4322,1.4346,1.437,1.4394,1.4376,1.4509,1.4642,1.4846,1.5097,1.53,1.5404,1.5413,1.5314,1.5176,1.5004,1.477,1.4611,1.4478,1.4346,1.4202,1.4082,1.401,1.4002,1.3942,1.3576,1.3672,1.3713,1.3529,1.3053,1.2426,1.1764,1.1102,1.035,1.008,0.9949,0.9936,1.0289,1.1752,1.3141,1.34,1.3628,1.3756,1.3794,1.3741,1.3628,2.0259,2.029,2.0491,2.0387,2.0163,2.0403,2.0514,2.0547,2.0771,2.084,2.0789,2.0668,2.0668,2.0763,2.0642,2.0642,2.0873,2.0899,2.084,2.084,2.0858,2.0647,2.0481,2.0397,2.032,2.0041,1.9874,1.9702,1.9537,1.9282,1.9026,1.8838,1.8784,1.8806,1.8797,1.8775,1.8743,1.8735,1.8712,1.8712,1.8735,1.8735,1.8781,1.8804,1.8612,1.8125,1.684,1.6346,1.5872,1.5415,1.4771,1.4627,1.4843,1.4484,1.4178,1.4058,1.4034,1.4034,1.4064,1.4202,1.4322,1.4322,1.4322,1.4322,1.4322,1.4274,1.4274,1.4202,1.4082,1.4106,1.4178,1.4274,1.4064,1.4027,1.3984,1.4166,1.4325,1.4523,1.4764,1.5073,1.5159,1.507,1.4991,1.4797,1.4781,1.4558,1.4238,1.4106,1.4034,1.3889,1.3673,1.3552,1.3461,1.3079,1.2253,1.2156,1.2122,1.1852,1.1428,1.0659,0.9877,0.9229,0.8848,0.8452,0.8284,0.7995,0.8083,0.9872,1.1434,1.2532,1.3012,1.2859,1.2474,1.2098,1.2154,2.0393,2.0208,2.0128,2.0013,1.9887,2.0138,2.0241,2.0274,2.037,2.0395,2.0421,2.0326,2.0326,2.0344,2.0326,2.03,2.0395,2.0395,2.0421,2.0395,2.037,2.0344,2.0248,2.0223,2.0174,2.0055,1.9933,1.9765,1.96,1.9418,1.9227,1.903,1.8791,1.8785,1.8785,1.8753,1.8659,1.8582,1.8481,1.8396,1.8365,1.8388,1.8365,1.8365,1.7816,1.71,1.6018,1.5415,1.4843,1.437,1.3968,1.4082,1.4226,1.3938,1.3727,1.3504,1.348,1.3461,1.3606,1.3913,1.4298,1.4322,1.4322,1.4274,1.4178,1.401,1.3841,1.3727,1.3606,1.3534,1.3418,1.3394,1.3322,1.3398,1.3566,1.3802,1.3946,1.413,1.4333,1.4599,1.4614,1.4534,1.4449,1.4324,1.4383,1.4374,1.4025,1.3727,1.363,1.3353,1.3063,1.2646,1.2452,1.1752,1.0918,1.0672,1.0539,1.016,0.9784,0.9212,0.854,0.8064,0.7651,0.7162,0.7033,0.7207,0.7709,0.8601,0.9707,1.0862,1.1464,1.1648,1.1161,1.0596,1.0689,2.0502,2.0181,1.9894,1.9704,1.9624,1.9879,1.9983,1.9975,2.0078,2.0112,2.0112,2.0034,2.0034,2.006,2.0009,2.006,2.0112,2.0163,2.0138,2.0138,2.0163,2.006,2.0009,1.9957,1.9905,1.9905,1.9846,1.9692,1.9498,1.9511,1.9361,1.9112,1.885,1.8823,1.8874,1.8791,1.8644,1.8488,1.8479,1.8324,1.8316,1.8424,1.847,1.8311,1.7693,1.6734,1.5735,1.4956,1.4087,1.3635,1.3322,1.3298,1.3298,1.3255,1.3109,1.291,1.2783,1.2764,1.3001,1.334,1.3841,1.3751,1.3751,1.3775,1.3751,1.3509,1.3316,1.3268,1.3007,1.2816,1.2829,1.3035,1.3071,1.3218,1.335,1.3539,1.355,1.3658,1.3886,1.4106,1.4098,1.4125,1.4048,1.3931,1.38,1.3785,1.352,1.3242,1.3098,1.2729,1.2155,1.1687,1.1219,1.0362,0.9453,0.9293,0.9049,0.843,0.8111,0.8009,0.748,0.7097,0.693,0.6771,0.6745,0.6782,0.7137,0.7701,0.8439,0.9257,0.9819,1.0369,1.0038,0.9547,0.9413,2.0502,2.0181,1.992,1.9625,1.939,1.9576,1.9706,1.9724,1.9931,2.0034,1.9983,1.9809,1.9828,1.9931,1.9776,1.9802,1.9923,2.0001,2.0009,1.9983,1.9957,1.9905,1.9783,1.968,1.9628,1.9376,1.9394,1.9432,1.9332,1.9339,1.9291,1.9225,1.9006,1.8882,1.906,1.9071,1.8895,1.8674,1.8864,1.8709,1.8601,1.8698,1.8766,1.8531,1.793,1.6988,1.562,1.4796,1.3912,1.298,1.2813,1.2789,1.2789,1.2783,1.271,1.2643,1.2643,1.2691,1.2764,1.2807,1.288,1.305,1.3171,1.3098,1.2953,1.2837,1.2813,1.2789,1.2651,1.2771,1.2916,1.2993,1.2893,1.2887,1.2985,1.308,1.3064,1.3158,1.3356,1.3448,1.3646,1.3778,1.3682,1.3543,1.3295,1.3129,1.2945,1.2764,1.2569,1.2146,1.1551,1.071,1.0141,0.9253,0.8432,0.7955,0.7528,0.6884,0.6701,0.6903,0.6903,0.6695,0.6547,0.6439,0.6375,0.6346,0.6447,0.6641,0.7235,0.7799,0.8627,0.906,0.8764,0.8559,0.8451,2.0502,2.0181,1.9894,1.9598,1.9327,1.9409,1.9454,1.9454,1.9524,1.9576,1.9558,1.9454,1.948,1.9498,1.9498,1.9498,1.955,1.9576,1.9583,1.9576,1.9628,1.955,1.9454,1.9454,1.9402,1.9324,1.9298,1.9298,1.929,1.9298,1.9298,1.9239,1.9144,1.9021,1.8875,1.8831,1.8748,1.8671,1.8616,1.8486,1.8436,1.8557,1.8632,1.8615,1.8127,1.699,1.5418,1.4695,1.3671,1.2511,1.2309,1.2294,1.2283,1.2273,1.2122,1.1902,1.1761,1.1736,1.1736,1.178,1.2122,1.2443,1.2686,1.2662,1.2759,1.2419,1.2346,1.2251,1.2142,1.2143,1.1993,1.2156,1.2159,1.2193,1.2294,1.2406,1.2449,1.2585,1.2751,1.2753,1.2876,1.2959,1.2931,1.3038,1.2872,1.274,1.2577,1.2174,1.1905,1.153,1.0993,0.9903,0.9065,0.8173,0.7459,0.7231,0.7065,0.6704,0.6517,0.6556,0.647,0.6297,0.6262,0.6187,0.6012,0.5894,0.5938,0.5977,0.5898,0.6341,0.7238,0.7861,0.7807,0.7657,0.7519,2.0612,2.0196,2.0018,1.9667,1.9316,1.9298,1.9298,1.9298,1.9298,1.9298,1.9298,1.9298,1.9298,1.9298,1.9298,1.9298,1.9298,1.9305,1.9305,1.9298,1.9298,1.9324,1.9324,1.9298,1.9324,1.9298,1.9298,1.9298,1.9298,1.9298,1.9298,1.9298,1.9298,1.9155,1.9002,1.8953,1.8872,1.8817,1.8717,1.8711,1.8645,1.8641,1.8704,1.8452,1.7788,1.6646,1.5312,1.4238,1.331,1.2267,1.1845,1.1811,1.1776,1.1688,1.1561,1.1292,1.1218,1.1243,1.1267,1.1267,1.1658,1.2024,1.2224,1.2248,1.2219,1.1883,1.1825,1.1727,1.1599,1.1676,1.1713,1.1839,1.1926,1.1978,1.2072,1.2208,1.223,1.2375,1.2475,1.2427,1.2409,1.2409,1.2377,1.2383,1.2411,1.2329,1.2216,1.1735,1.1279,1.0968,1.0365,0.9192,0.8375,0.7705,0.7134,0.6777,0.6606,0.6502,0.6348,0.6196,0.6022,0.5861,0.5886,0.5839,0.5539,0.534,0.5372,0.5374,0.5345,0.5492,0.5979,0.6456,0.6751,0.6811,0.6793,2.0802,2.0234,2.021,1.9845,1.9352,1.9215,1.922,1.9272,1.9298,1.9298,1.9298,1.9298,1.9298,1.9298,1.9298,1.9298,1.9298,1.9298,1.9298,1.9298,1.9298,1.9298,1.9298,1.9298,1.9298,1.9298,1.9272,1.9253,1.9272,1.9201,1.9227,1.9253,1.9253,1.921,1.9217,1.9173,1.9071,1.8964,1.8701,1.8745,1.8793,1.8843,1.892,1.8617,1.783,1.6587,1.5265,1.4038,1.273,1.1891,1.1579,1.1422,1.1318,1.1212,1.1208,1.1194,1.1194,1.1194,1.1194,1.1194,1.1218,1.1487,1.1389,1.1267,1.1316,1.1428,1.1481,1.1586,1.1578,1.1808,1.1968,1.2055,1.2117,1.2192,1.2272,1.2277,1.2211,1.2299,1.2371,1.2382,1.2382,1.2382,1.2382,1.2335,1.2292,1.2299,1.2068,1.1177,1.0776,1.061,0.9833,0.8396,0.7705,0.7332,0.6871,0.6448,0.6274,0.62,0.5889,0.5714,0.5558,0.5412,0.5381,0.5235,0.4947,0.4755,0.4622,0.4721,0.4873,0.5037,0.5072,0.5574,0.5996,0.6213,0.6319,2.0607,2.0268,2.0223,1.9861,1.9278,1.8843,1.8907,1.9272,1.9298,1.9272,1.9298,1.9298,1.9253,1.9298,1.9298,1.9272,1.9272,1.9298,1.9298,1.9272,1.9194,1.9246,1.9272,1.9246,1.9272,1.9272,1.9253,1.9149,1.9026,1.9,1.9026,1.9026,1.9175,1.9227,1.9246,1.9272,1.9113,1.887,1.844,1.8573,1.8582,1.8399,1.8586,1.8396,1.812,1.6853,1.5336,1.4649,1.3372,1.2,1.1763,1.1608,1.1453,1.1416,1.1392,1.1208,1.1194,1.1194,1.1194,1.1194,1.1198,1.1203,1.1208,1.1194,1.1194,1.1241,1.1306,1.1504,1.1669,1.1905,1.2076,1.2175,1.2253,1.2292,1.2349,1.2321,1.2296,1.2319,1.2382,1.2382,1.2382,1.2382,1.2382,1.2377,1.2344,1.2354,1.1873,1.0837,1.0331,1.0156,0.9213,0.7768,0.7403,0.7147,0.6589,0.6149,0.5998,0.5845,0.5517,0.5254,0.5132,0.4985,0.4855,0.4681,0.4402,0.4075,0.376,0.3954,0.4261,0.4054,0.4102,0.4705,0.5228,0.5468,0.5731,1.9617,1.9421,1.9756,1.9515,1.8955,1.8559,1.8639,1.8933,1.9089,1.9123,1.913,1.9123,1.9071,1.8926,1.89,1.8907,1.8907,1.8874,1.8874,1.8881,1.8959,1.89,1.8952,1.8959,1.89,1.8959,1.8933,1.8803,1.8757,1.8843,1.8869,1.8731,1.8992,1.9018,1.8959,1.8821,1.8553,1.8218,1.7943,1.8108,1.7898,1.7523,1.7595,1.7753,1.7753,1.6412,1.5255,1.4805,1.342,1.213,1.1945,1.182,1.1631,1.1542,1.1416,1.1246,1.1194,1.1194,1.1208,1.1298,1.1264,1.1246,1.1245,1.1326,1.1331,1.1339,1.1527,1.1725,1.1857,1.2004,1.2151,1.2297,1.234,1.2382,1.2382,1.2382,1.2377,1.2377,1.2382,1.2382,1.2382,1.2382,1.2382,1.2382,1.205,1.1523,1.0799,0.9826,0.9628,0.984,0.8614,0.705,0.7067,0.7081,0.6462,0.5815,0.5623,0.5406,0.5071,0.4836,0.4705,0.4433,0.4172,0.4035,0.3927,0.3661,0.3451,0.3484,0.3642,0.3508,0.355,0.4007,0.4521,0.4806,0.5093,1.8035,1.7834,1.8779,1.8861,1.8393,1.8318,1.8344,1.8403,1.8679,1.8843,1.8843,1.8843,1.8698,1.8579,1.8534,1.8534,1.856,1.8553,1.8553,1.8429,1.8534,1.8553,1.8527,1.8422,1.856,1.8475,1.8429,1.8534,1.8482,1.8541,1.8548,1.8403,1.8698,1.875,1.8586,1.856,1.8127,1.7266,1.7087,1.7094,1.6876,1.6393,1.5722,1.5755,1.5227,1.4358,1.4013,1.3318,1.2383,1.2228,1.2054,1.1948,1.1662,1.1462,1.1295,1.1151,1.1031,1.0998,1.103,1.1084,1.1129,1.1168,1.1288,1.1301,1.1279,1.1308,1.1466,1.182,1.197,1.1998,1.2125,1.2195,1.2209,1.2169,1.2114,1.2114,1.2114,1.2114,1.2114,1.2114,1.2114,1.2114,1.2137,1.2055,1.1587,1.0762,1.0077,0.9194,0.8431,0.883,0.7887,0.631,0.6317,0.6349,0.5963,0.5393,0.5179,0.4926,0.4609,0.4376,0.4226,0.3854,0.341,0.3432,0.3508,0.3469,0.3352,0.3411,0.3471,0.3542,0.3576,0.3554,0.3811,0.4117,0.4341,1.6522,1.6535,1.7262,1.775,1.8044,1.7878,1.7905,1.8095,1.8174,1.8331,1.8482,1.8508,1.8482,1.837,1.8318,1.8318,1.8344,1.8291,1.837,1.837,1.8344,1.8134,1.8291,1.8108,1.8187,1.8396,1.837,1.8134,1.8003,1.8062,1.8227,1.8148,1.8384,1.8455,1.8325,1.8265,1.7595,1.6433,1.5802,1.5589,1.5284,1.4733,1.4148,1.4701,1.462,1.4121,1.3803,1.3506,1.2869,1.2501,1.2149,1.1745,1.1218,1.1021,1.0799,1.063,1.0679,1.0683,1.0706,1.0764,1.0769,1.0776,1.0831,1.0968,1.1051,1.1162,1.1369,1.1747,1.1982,1.2003,1.2023,1.2032,1.2032,1.1923,1.1814,1.1814,1.1814,1.1814,1.1814,1.1814,1.1814,1.1841,1.1837,1.1564,1.104,1.057,1.01,0.9137,0.7337,0.6897,0.6667,0.5545,0.5384,0.5322,0.5124,0.492,0.4655,0.4436,0.4166,0.396,0.375,0.3494,0.3219,0.3137,0.3134,0.3117,0.3221,0.3415,0.3477,0.3442,0.3391,0.3307,0.3281,0.3503,0.3643,1.4995,1.5081,1.5755,1.6454,1.6967,1.6909,1.7206,1.7747,1.7826,1.7905,1.8055,1.8141,1.8167,1.8082,1.8055,1.8082,1.8055,1.8055,1.8003,1.8029,1.7917,1.7569,1.7542,1.7358,1.6651,1.6731,1.714,1.7147,1.7232,1.7806,1.8023,1.7911,1.8082,1.816,1.8003,1.7575,1.679,1.5524,1.4486,1.3787,1.3431,1.2879,1.2726,1.341,1.3388,1.3149,1.3046,1.278,1.2486,1.2137,1.1882,1.1581,1.1155,1.0952,1.0724,1.053,1.0437,1.0413,1.041,1.0429,1.0477,1.0547,1.0699,1.0978,1.1107,1.1176,1.1225,1.1563,1.1733,1.1774,1.1778,1.181,1.1787,1.1705,1.1678,1.1678,1.1678,1.1678,1.1705,1.1705,1.1705,1.1705,1.1705,1.1678,1.0876,0.9071,0.8796,0.7802,0.6197,0.5393,0.505,0.4842,0.4745,0.475,0.4769,0.446,0.4069,0.3865,0.3788,0.3614,0.3457,0.3245,0.3052,0.2921,0.2834,0.2844,0.2956,0.3146,0.3148,0.3047,0.3024,0.2973,0.2973,0.2973,0.3085,1.3542,1.3705,1.4336,1.5022,1.563,1.5675,1.618,1.6962,1.712,1.7067,1.7067,1.745,1.7589,1.7668,1.7615,1.7615,1.7529,1.7312,1.7338,1.7312,1.7312,1.6638,1.6148,1.5882,1.5476,1.5209,1.5396,1.5855,1.618,1.6915,1.7424,1.7582,1.7714,1.7766,1.7206,1.6426,1.5482,1.4218,1.309,1.1987,1.1478,1.119,1.1509,1.1564,1.1486,1.1514,1.1541,1.1564,1.1537,1.1596,1.1555,1.1259,1.1001,1.0755,1.0565,1.0355,1.0184,1.0221,1.0289,1.0401,1.0474,1.0625,1.0832,1.0954,1.1053,1.1125,1.1172,1.125,1.142,1.15,1.1537,1.1537,1.1514,1.1459,1.1459,1.1459,1.1459,1.1459,1.1459,1.1459,1.1432,1.1432,1.1213,1.124,1.0014,0.8158,0.6803,0.5558,0.4644,0.4505,0.4259,0.4216,0.4202,0.4249,0.4326,0.4156,0.3737,0.3713,0.3661,0.3414,0.3157,0.2927,0.2713,0.2598,0.2534,0.2553,0.2607,0.2749,0.2715,0.2711,0.2659,0.2664,0.2748,0.2721,0.2693,1.2564,1.3136,1.3148,1.361,1.4374,1.4427,1.4588,1.4754,1.4829,1.4781,1.5183,1.5988,1.6691,1.7589,1.7615,1.7503,1.7206,1.6697,1.6266,1.6207,1.6213,1.5455,1.4835,1.4701,1.4888,1.454,1.4272,1.4915,1.5188,1.5914,1.6776,1.745,1.745,1.712,1.6287,1.5509,1.4706,1.3356,1.2499,1.1692,1.1044,1.0857,1.0829,1.0884,1.0884,1.1021,1.1103,1.1181,1.1377,1.1432,1.1332,1.0987,1.0728,1.053,1.0334,1.0171,0.9979,0.9992,1.0088,1.0188,1.0263,1.0405,1.0543,1.0629,1.0727,1.0818,1.0845,1.0893,1.1044,1.1181,1.1213,1.1208,1.1181,1.1048,1.0966,1.0966,1.0966,1.0966,1.0966,1.0911,1.0825,1.0382,0.9719,0.9361,0.8554,0.703,0.6114,0.4951,0.4088,0.381,0.3559,0.3671,0.3782,0.3727,0.378,0.3889,0.3638,0.3614,0.3503,0.325,0.2942,0.2577,0.2395,0.2288,0.2268,0.227,0.2355,0.2389,0.2525,0.2518,0.2381,0.2356,0.244,0.2468,0.2384]},{"header":{"parameterUnit":"m.s-1","parameterCategory":1,"la1":31.0,"la2":29.5877,"lo1":-88.7671,"lo2":-86.6584,"dy":0.0162,"dx":0.0185,"nx":115,"ny":88,"refTime":"2024-06-20T12:00:00:Z","depth":0,"parameterNumber":3,"parameterNumberName":"V-component_of_WINDS"},"data":[0.0,0.0,0.0,0.0,0.0,0.0,0.0,0.0,0.0,0.0,0.0,0.0,0.0,0.0,0.0,0.0,0.0,0.0,0.0,0.0,0.0,0.0,0.0,0.0,0.0,0.0,0.0,0.0,0.0,0.0,0.0,0.0,0.0,0.0,0.0,0.0,0.0,0.0,0.0,0.0,0.0,0.0,0.0,0.0,0.0,0.0,0.0,0.0,0.0,0.0,0.0,0.0,0.0,0.0,0.0,0.0,0.0,0.0,0.0,0.0,0.0,0.0,0.0,0.0,0.0,0.0,0.0,0.0,0.0,0.0,0.0,0.0,0.0,0.0,0.0,0.0,0.0,0.0,0.0,0.0,0.0,0.0,0.0,0.0,0.0,0.0,0.0,0.0,0.0,0.0,0.0,0.0,0.0,0.0,0.0,0.0,0.0,0.0,0.0,0.0,0.0,0.0,0.0,0.0,0.0,0.0,0.0,0.0,0.0,0.0,0.0,0.0,0.0,0.0,0.0,0.0,0.0,0.0,0.0,0.0,0.0,0.0,0.0,0.0,0.0,0.0,0.0,0.0,0.0,0.0,0.0,0.0,0.0,0.0,0.0,0.0,0.0,0.0,0.0,0.0,0.0,0.0,0.0,0.0,0.0,0.0,0.0,0.0,0.0,0.0,0.0,0.0,0.0,0.0,0.0,0.0,0.0,0.0,0.0,0.0,0.0,0.0,0.0,0.0,0.0,0.0,0.0,0.0,0.0,0.0,0.0,0.0,0.0,0.0,0.0,0.0,0.0,0.0,0.0,0.0,0.0,0.0,0.0,0.0,0.0,0.0,0.0,0.0,0.0,0.0,0.0,0.0,0.0,0.0,0.0,0.0,0.0,0.0,0.0,0.0,0.0,0.0,0.0,0.0,0.0,0.0,0.0,0.0,0.0,0.0,0.0,0.0,0.0,0.0,0.0,0.0,0.0,0.0,0.0,0.0,0.0,0.0,0.0,0.0,0.0,0.0,0.0,0.0,0.0,0.0,0.0,0.0,0.0,0.0,0.0,0.0,0.0,0.0,0.0,0.0,0.0,0.0,0.0,0.0,0.0,0.0,0.0,0.0,0.0,0.0,0.0,0.0,0.0,0.0,0.0,0.0,0.0,0.0,0.0,0.0,0.0,0.0,0.0,0.0,0.0,0.0,0.0,0.0,0.0,0.0,0.0,0.0,0.0,0.0,0.0,0.0,0.0,0.0,0.0,0.0,0.0,0.0,0.0,0.0,0.0,0.0,0.0,0.0,0.0,0.0,0.0,0.0,0.0,0.0,0.0,0.0,0.0,0.0,0.0,0.0,0.0,0.0,0.0,0.0,0.0,0.0,0.0,0.0,0.0,0.0,0.0,0.0,0.0,0.0,0.0,0.0,0.0,0.0,0.0,0.0,0.0,0.0,0.0,0.0,0.0,0.0,0.0,0.0,0.0,0.0,0.0,0.0,0.0,0.0,0.0,0.0,0.0,0.0,0.0,0.0,0.0,0.0,0.0,0.0,0.0,0.0,0.0,0.0,0.0,0.0,0.0,0.0,0.0,0.0,0.0,0.0,0.0,0.0,0.0,0.0,0.0,0.0,0.0,0.0,0.0,0.0,0.0,0.0,0.0,0.0,0.0,0.0,0.0,0.0,0.0,0.0,0.0,0.0,0.0,0.0,0.0,0.0,0.0,0.0,0.0,0.0,0.0,0.0,0.0,0.0,0.0,0.0,0.0,0.0,0.0,0.0,0.0,0.0,0.0,0.0,0.0,0.0,0.0,0.0,0.0,0.0,0.0,0.0,0.0,0.0,0.0,0.0,0.0,0.0,0.0,0.0,0.0,0.0,0.0,0.0,0.0,0.0,0.0,0.0,0.0,0.0,0.0,0.0,0.0,0.0,0.0,0.0,0.0,0.0,0.0,0.0,0.0,0.0,0.0,0.0,0.0,0.0,0.0,0.0,0.0,0.0,0.0,0.0,0.0,0.0,0.0,0.0,0.0,0.0,0.0,0.0,0.0,0.0,0.0,0.0,0.0,0.0,0.0,0.0,0.0,0.0,0.0,0.0,0.0,0.0,0.0,0.0,0.0,0.0,0.0,0.0,0.0,0.0,0.0,0.0,0.0,0.0,0.0,0.0,0.0,0.0,0.0,0.0,0.0,0.0,0.0,0.0,0.0,0.0,0.0,0.0,0.0,0.0,0.0,0.0,0.0,0.0,0.0,0.0,0.0,0.0,0.0,0.0,0.0,0.0,0.0,0.0,0.0,0.0,0.0,0.0,0.0,0.0,0.0,0.0,0.0,0.0,0.0,0.0,0.0,0.0,0.0,0.0,0.0,0.0,0.0,0.0,0.0,0.0,0.0,0.0,0.0,0.0,0.0,0.0,0.0,0.0,0.0,0.0,0.0,0.0,0.0,0.0,0.0,0.0,0.0,0.0,0.0,0.0,0.0,0.0,0.0,0.0,0.0,0.0,0.0,0.0,0.0,0.0,0.0,0.0,0.0,0.0,0.0,0.0,0.0,0.0,0.0,0.0,0.0,0.0,0.0,0.0,0.0,0.0,0.0,0.0,0.0,0.0,0.0,0.0,0.0,0.0,0.0,0.0,0.0,0.0,0.0,0.0,0.0,0.0,0.0,0.0,0.0,0.0,0.0,0.0,0.0,0.0,0.0,0.0,0.0,0.0,0.0,0.0,0.0,0.0,0.0,0.0,0.0,0.0,0.0,0.0,0.0,0.0,0.0,0.0,0.0,0.0,0.0,0.0,0.0,0.0,0.0,0.0,0.0,0.0,0.0,0.0,0.0,0.0,0.0,0.0,0.0,0.0,0.0,0.0,0.0,0.0,0.0,0.0,0.0,0.0,0.0,0.0,0.0,0.0,0.0,0.0,0.0,0.0,0.0,0.0,0.0,0.0,0.0,0.0,0.0,0.0,0.0,0.0,0.0,0.0,0.0,0.0,0.0,0.0,0.0,0.0,0.0,0.0,0.0,0.0,0.0,0.0,0.0,0.0,0.0,0.0,0.0,0.0,0.0,0.0,0.0,0.0,0.0,0.0,0.0,0.0,0.0,0.0,0.0,0.0,0.0,0.0,0.0,0.0,0.0,0.0,0.0,0.0,0.0,0.0,0.0,0.0,0.0,0.0,0.0,0.0,0.0,0.0,0.0,0.0,0.0,0.0,0.0,0.0,0.0,0.0,0.0,0.0,0.0,0.0,0.0,0.0,0.0,0.0,0.0,0.0,0.0,0.0,0.0,0.0,0.0,0.0,0.0,0.0,0.0,0.0,0.0,0.0,0.0,0.0,0.0,0.0,0.0,0.0,0.0,0.0,0.0,0.0,0.0,0.0,0.0,0.0,0.0,0.0,0.0,0.0,0.0,0.0,0.0,0.0,0.0,0.0,0.0,0.0,0.0,0.0,0.0,0.0,0.0,0.0,0.0,0.0,0.0,0.0,0.0,0.0,0.0,0.0,0.0,0.0,0.0,0.0,0.0,0.0,0.0,0.0,0.0,0.0,0.0,0.0,0.0,0.0,0.0,0.0,0.0,0.0,0.0,0.0,0.0,0.0,0.0,0.0,0.0,0.0,0.0,0.0,0.0,0.0,0.0,0.0,0.0,0.0,0.0,0.0,0.0,0.0,0.0,0.0,0.0,0.0,0.0,0.0,0.0,0.0,0.0,0.0,0.0,0.0,0.0,0.0,0.0,0.0,0.0,0.0,0.0,0.0,0.0,0.0,0.0,0.0,0.0,0.0,0.0,0.0,0.0,0.0,0.0,0.0,0.0,0.0,0.0,0.0,0.0,0.0,0.0,0.0,0.0,0.0,0.0,0.0,0.0,0.0,0.0,0.0,0.0,0.0,0.0,0.0,0.0,0.0,0.0,0.0,0.0,0.0,0.0,0.0,0.0,0.0,0.0,0.0,0.0,0.0,0.0,0.0,0.0,0.0,0.0,0.0,0.0,0.0,0.0,0.0,0.0,0.0,0.0,0.0,0.0,0.0,0.0,0.0,0.0,0.0,0.0,0.0,0.0,0.0,0.0,0.0,0.0,0.0,0.0,0.0,0.0,0.0,0.0,0.0,0.0,0.0,0.0,0.0,0.0,0.0,0.0,0.0,0.0,0.0,0.0,0.0,0.0,0.0,0.0,0.0,0.0,0.0,0.0,0.0,0.0,0.0,0.0,0.0,0.0,0.0,0.0,0.0,0.0,0.0,0.0,0.0,0.0,0.0,0.0,0.0,0.0,0.0,0.0,0.0,0.0,0.0,1.1821,0.0,0.0,0.0,0.0,0.0,0.0,0.0,0.0,0.0,0.0,0.0,0.0,0.0,0.0,0.0,0.0,0.0,0.0,0.0,0.0,0.0,0.0,0.0,0.0,0.0,0.0,0.0,0.0,0.0,0.0,0.0,0.0,0.0,0.0,0.0,0.0,0.0,0.0,0.0,0.0,0.0,0.0,0.0,0.0,0.0,0.0,0.0,0.0,0.0,0.0,0.0,0.0,0.0,0.0,0.0,0.0,0.0,0.0,0.0,0.0,0.0,0.0,0.0,0.0,0.0,0.0,0.0,0.0,0.0,0.0,0.0,0.0,0.0,0.0,0.0,0.0,0.0,0.0,0.0,0.0,0.0,0.0,0.0,0.0,0.0,0.0,0.0,0.0,0.0,0.0,0.0,0.0,0.0,0.0,0.0,0.0,0.0,0.0,0.0,0.0,0.0,0.0,0.0,0.0,0.0,0.0,0.0,0.0,0.0,0.0,1.1757,1.1816,1.1816,1.1816,1.1874,0.0,0.0,0.0,0.0,0.0,0.0,0.0,0.0,0.0,0.0,0.0,0.0,0.0,0.0,0.0,0.0,0.0,0.0,0.0,0.0,0.0,0.0,0.0,0.0,0.0,0.0,0.0,0.0,0.0,0.0,0.0,0.0,0.0,0.0,0.0,0.0,0.0,0.0,0.0,0.0,0.0,0.0,0.0,0.0,0.0,0.0,0.0,0.0,0.0,0.0,0.0,0.0,0.0,0.0,0.0,0.0,0.0,0.0,0.0,0.0,0.0,0.0,0.0,0.0,0.0,0.0,0.0,0.0,0.0,0.0,0.0,0.0,0.0,0.0,0.0,0.0,0.0,0.0,0.0,0.0,0.0,0.0,0.0,0.0,0.0,0.0,0.0,0.0,0.0,0.0,0.0,0.0,0.0,0.0,0.0,0.0,0.0,0.0,0.0,0.0,0.0,0.0,0.0,0.0,0.0,0.0,0.0,0.0,0.0,0.0,0.0,0.0,1.211,1.2128,1.2315,0.0,0.0,0.0,0.0,0.0,0.0,0.0,0.0,0.0,0.0,0.0,0.0,0.0,0.0,0.0,0.0,0.0,0.0,0.0,0.0,0.0,0.0,0.0,0.0,0.0,0.0,0.0,0.0,0.0,0.0,0.0,0.0,0.0,0.0,0.0,0.0,0.0,0.0,0.0,0.0,0.0,0.0,0.0,0.0,0.0,0.0,0.0,0.0,0.0,0.0,0.0,0.0,0.0,0.0,0.0,0.0,0.0,0.0,0.0,0.0,0.0,0.0,0.0,0.0,0.0,0.0,0.0,0.0,0.0,0.0,0.0,0.0,0.0,0.0,0.0,0.0,0.0,0.0,0.0,0.0,0.0,0.0,0.0,0.0,0.0,0.0,0.0,0.0,0.0,0.0,0.0,0.0,0.0,0.0,0.0,0.0,0.0,0.0,0.0,0.0,0.0,0.0,0.0,0.0,0.0,0.0,0.0,0.0,0.0,0.0,1.2383,1.3573,1.3023,0.0,1.3447,0.0,0.0,0.0,0.0,0.0,0.0,0.0,0.0,0.0,0.0,0.0,0.0,0.0,0.0,0.0,0.0,0.0,0.0,0.0,0.0,0.0,0.0,0.0,0.0,0.0,0.0,0.0,0.0,0.0,0.0,0.0,0.0,0.0,0.0,0.0,0.0,0.0,0.0,0.0,0.0,0.0,0.0,0.0,0.0,0.0,0.0,0.0,0.0,0.0,0.0,0.0,0.0,0.0,0.0,0.0,0.0,0.0,0.0,0.0,0.0,0.0,0.0,0.0,0.0,0.0,0.0,0.0,0.0,0.0,0.0,0.0,0.0,0.0,0.0,0.0,0.0,0.0,0.0,0.0,0.0,0.0,0.0,0.0,0.0,0.0,0.0,0.0,0.0,0.0,0.0,0.0,0.0,0.0,0.0,0.0,0.0,0.0,0.0,0.0,0.0,0.0,0.0,0.0,0.0,0.0,0.0,0.0,0.0,0.0,0.0,1.325,1.3782,1.3688,1.3624,0.0,0.0,0.0,0.0,0.0,0.0,0.0,0.0,0.0,0.0,0.0,0.0,0.0,0.0,0.0,0.0,0.0,0.0,0.0,0.0,0.0,0.0,0.0,0.0,0.0,0.0,0.0,0.0,0.0,0.0,0.0,0.0,0.0,0.0,0.0,0.0,0.0,0.0,0.0,0.0,0.0,0.0,0.0,0.0,0.0,0.0,0.0,0.0,0.0,0.0,0.0,0.0,0.0,0.0,0.0,0.0,0.0,0.0,0.0,0.0,0.0,0.0,0.0,0.0,0.0,0.0,0.0,0.0,0.0,0.0,0.0,0.0,0.0,0.0,0.0,0.0,0.0,0.0,0.0,0.0,0.0,0.0,0.0,0.0,0.0,0.0,0.0,0.0,0.0,0.0,0.0,0.0,0.0,0.0,0.0,0.0,0.0,0.0,0.0,0.0,0.0,0.0,0.0,0.0,0.0,0.0,0.0,0.0,0.0,0.0,1.352,1.3893,1.4077,1.4157,1.4002,1.3584,0.0,0.0,0.0,0.0,0.0,0.0,0.0,0.0,0.0,0.0,0.0,0.0,0.0,0.0,0.0,0.0,0.0,0.0,0.0,0.0,0.0,0.0,0.0,0.0,0.0,0.0,0.0,0.0,0.0,0.0,0.0,0.0,0.0,0.0,0.0,0.0,0.0,0.0,0.0,0.0,0.0,0.0,0.0,0.0,0.0,0.0,0.0,0.0,0.0,0.0,0.0,0.0,0.0,0.0,0.0,0.0,0.0,0.0,0.0,0.0,0.0,0.0,0.0,0.0,0.0,0.0,0.0,0.0,0.0,0.0,0.0,0.0,0.0,0.0,0.0,0.0,0.0,0.0,0.0,0.0,0.0,0.0,0.0,0.0,0.0,0.0,0.0,0.0,0.0,0.0,0.0,0.0,0.0,0.0,0.0,0.0,0.0,0.0,0.0,0.0,0.0,0.0,0.0,0.0,0.0,0.0,0.0,0.0,1.5655,1.4483,1.4096,1.4714,1.4389,1.3982,0.0,0.0,0.0,0.0,0.0,0.0,0.0,0.0,0.0,0.0,0.0,0.0,0.0,0.0,0.0,0.0,0.0,0.0,0.0,0.0,0.0,0.0,0.0,0.0,0.0,0.0,0.0,0.0,0.0,0.0,0.0,0.0,0.0,0.0,0.0,0.0,0.0,0.0,0.0,0.0,0.0,0.0,0.0,0.0,0.0,0.0,0.0,0.0,0.0,0.0,0.0,0.0,0.0,0.0,0.0,0.0,0.0,0.0,0.0,0.0,0.0,0.0,0.0,0.0,0.0,0.0,0.0,0.0,0.0,0.0,0.0,0.0,0.0,0.0,0.0,0.0,0.0,0.0,0.0,0.0,0.0,0.0,0.0,0.0,0.0,0.0,0.0,0.0,0.0,0.0,0.0,0.0,0.0,0.0,0.0,0.0,0.0,0.0,0.0,0.0,0.0,0.0,0.0,0.0,0.0,0.0,0.0,0.0,0.0,1.3493,1.3662,1.4294,1.5342,1.4719,1.4262,0.0,0.0,0.0,0.0,0.0,0.0,0.0,0.0,0.0,0.0,0.0,0.0,0.0,0.0,0.0,0.0,0.0,0.0,0.0,0.0,0.0,0.0,0.0,0.0,0.0,0.0,0.0,0.0,0.0,0.0,0.0,0.0,0.0,0.0,0.0,0.0,0.0,0.0,0.0,0.0,0.0,0.0,0.0,0.0,0.0,0.0,0.0,0.0,0.0,0.0,0.0,0.0,0.0,0.0,0.0,0.0,0.0,0.0,0.0,0.0,0.0,0.0,0.0,0.0,0.0,0.0,0.0,0.0,0.0,0.0,0.0,0.0,0.0,0.0,0.0,0.0,0.0,0.0,0.0,0.0,0.0,0.0,0.0,0.0,0.0,0.0,0.0,0.0,0.0,0.0,0.0,0.0,0.0,0.0,0.0,0.0,0.0,0.0,0.0,0.0,0.0,0.0,0.0,0.0,0.0,0.0,0.0,0.0,0.0,1.3363,0.0,1.5061,0.0,1.4934,1.4272,0.0,0.0,0.0,0.0,0.0,0.0,0.0,0.0,0.0,0.0,0.0,0.0,0.0,0.0,0.0,0.0,0.0,0.0,0.0,0.0,0.0,0.0,0.0,0.0,0.0,0.0,0.0,0.0,0.0,0.0,0.0,0.0,0.0,0.0,0.0,0.0,0.0,0.0,0.0,0.0,0.0,0.0,0.0,0.0,0.0,0.0,0.0,0.0,0.0,0.0,0.0,0.0,0.0,0.0,0.0,0.0,0.0,0.0,0.0,0.0,0.0,0.0,0.0,0.0,0.0,0.0,0.0,0.0,0.0,0.0,0.0,0.0,0.0,0.0,0.0,0.0,0.0,0.0,0.0,0.0,0.0,0.0,0.0,0.0,0.0,0.0,0.0,0.0,0.0,0.0,0.0,0.0,0.0,0.0,0.0,0.0,0.0,0.0,0.0,0.0,0.0,0.0,0.0,0.0,0.0,0.0,0.0,0.0,1.3591,1.5797,1.6323,1.6353,1.6081,1.5034,1.3966,0.0,0.0,0.0,0.0,0.0,0.0,0.0,0.0,0.0,0.0,0.0,0.0,0.0,0.0,0.0,0.0,0.0,0.0,0.0,0.0,0.0,0.0,0.0,0.0,0.0,0.0,0.0,0.0,0.0,0.0,0.0,0.0,0.0,0.0,0.0,0.0,0.0,0.0,0.0,0.0,0.0,0.0,0.0,0.0,0.0,0.0,0.0,0.0,0.0,0.0,0.0,0.0,0.0,0.0,0.0,0.0,0.0,0.0,0.0,0.0,0.0,0.0,0.0,0.0,0.0,0.0,0.0,0.0,0.0,0.0,0.0,0.0,0.0,0.0,0.0,0.0,0.0,0.0,0.0,0.0,0.0,0.0,0.0,0.0,0.0,0.0,0.0,0.0,0.0,0.0,0.0,0.0,0.0,0.0,0.0,0.0,0.0,0.0,0.0,0.0,0.0,0.0,0.0,0.0,0.0,0.0,0.0,0.0,0.0,1.4217,1.4938,1.5508,1.5831,1.4543,1.4069,0.0,0.0,0.0,0.0,0.0,0.0,0.0,0.0,0.0,0.0,0.0,0.0,0.0,0.0,0.0,0.0,0.0,0.0,0.0,0.0,0.0,0.0,0.0,0.0,0.0,0.0,0.0,0.0,0.0,0.0,0.0,0.0,0.0,0.0,0.0,0.0,0.0,0.0,0.0,0.0,0.0,0.0,0.0,0.0,0.0,0.0,0.0,0.0,0.0,0.0,0.0,0.0,0.0,0.0,0.0,0.0,0.0,0.0,0.0,0.0,0.0,0.0,0.0,0.0,0.0,0.0,0.0,0.0,0.0,0.0,0.0,0.0,0.0,0.0,0.0,0.0,0.0,0.0,0.0,0.0,0.0,0.0,0.0,0.0,0.0,0.0,0.0,0.0,0.0,0.0,0.0,0.0,0.0,0.0,0.0,0.0,0.0,0.0,0.0,0.0,0.0,0.0,0.0,0.0,0.0,0.0,0.0,0.0,0.0,1.5238,1.6071,1.6593,1.6653,1.5605,1.4987,1.4896,0.0,0.0,0.0,0.0,0.0,0.0,0.0,0.0,0.0,0.0,0.0,0.0,0.0,0.0,0.0,0.0,0.0,0.0,0.0,0.0,0.0,0.0,0.0,0.0,0.0,0.0,0.0,0.0,0.0,0.0,0.0,0.0,0.0,0.0,0.0,0.0,0.0,0.0,0.0,0.0,0.0,0.0,0.0,0.0,0.0,0.0,0.0,0.0,0.0,0.0,0.0,0.0,0.0,0.0,0.0,0.0,0.0,0.0,0.0,0.0,0.0,0.0,0.0,0.0,0.0,0.0,0.0,0.0,0.0,0.0,0.0,0.0,0.0,0.0,0.0,0.0,0.0,0.0,0.0,0.0,0.0,0.0,0.0,0.0,0.0,0.0,0.0,0.0,0.0,0.0,0.0,0.0,0.0,0.0,0.0,0.0,0.0,0.0,0.0,0.0,0.0,0.0,0.0,0.0,0.0,0.0,0.0,0.0,1.8182,1.9284,1.9342,1.828,1.7814,1.653,0.0,0.0,0.0,0.0,0.0,0.0,0.0,0.0,0.0,0.0,0.0,0.0,0.0,0.0,0.0,0.0,0.0,0.0,0.0,0.0,0.0,0.0,0.0,0.0,0.0,0.0,0.0,0.0,0.0,0.0,0.0,0.0,0.0,0.0,0.0,0.0,0.0,0.0,0.0,0.0,0.0,0.0,0.0,0.0,0.0,0.0,0.0,0.0,0.0,0.0,0.0,0.0,0.0,0.0,0.0,0.0,0.0,0.0,0.0,0.0,0.0,0.0,0.0,0.0,0.0,0.0,0.0,0.0,0.0,0.0,0.0,0.0,0.0,0.0,0.0,0.0,0.0,0.0,0.0,0.0,0.0,0.0,0.0,0.0,0.0,0.0,0.0,0.0,0.0,0.0,0.0,0.0,0.0,0.0,0.0,0.0,0.0,0.0,0.0,0.0,0.0,0.0,0.0,0.0,0.0,0.0,0.0,0.0,0.0,1.9457,2.1093,2.14,2.0179,1.8601,1.7679,0.0,0.0,0.0,0.0,0.0,0.0,0.0,0.0,0.0,0.0,0.0,0.0,0.0,0.0,0.0,0.0,0.0,0.0,0.0,0.0,0.0,0.0,0.0,0.0,0.0,0.0,0.0,0.0,0.0,0.0,0.0,0.0,0.0,0.0,0.0,0.0,0.0,0.0,0.0,0.0,0.0,0.0,0.0,0.0,0.0,0.0,0.0,0.0,0.0,0.0,0.0,0.0,0.0,0.0,0.0,0.0,0.0,0.0,0.0,0.0,0.0,0.0,0.0,0.0,0.0,0.0,0.0,0.0,0.0,0.0,0.0,0.0,0.0,0.0,0.0,0.0,0.0,0.0,0.0,0.0,0.0,0.0,0.0,0.0,0.0,0.0,0.0,0.0,0.0,0.0,0.0,0.0,0.0,0.0,0.0,0.0,0.0,0.0,0.0,0.0,0.0,0.0,0.0,0.0,0.0,0.0,0.0,0.0,1.9487,2.0938,2.2555,2.3031,2.2282,2.0525,1.9173,0.0,0.0,0.0,0.0,0.0,0.0,0.0,0.0,0.0,0.0,0.0,0.0,0.0,0.0,0.0,0.0,0.0,0.0,0.0,0.0,0.0,0.0,0.0,0.0,0.0,0.0,0.0,0.0,0.0,0.0,0.0,0.0,0.0,0.0,0.0,0.0,0.0,0.0,0.0,0.0,0.0,0.0,0.0,0.0,0.0,0.0,0.0,0.0,0.0,0.0,0.0,0.0,0.0,0.0,0.0,0.0,0.0,0.0,0.0,0.0,0.0,0.0,0.0,0.0,0.0,0.0,0.0,0.0,0.0,0.0,0.0,0.0,0.0,0.0,0.0,0.0,0.0,0.0,0.0,0.0,0.0,0.0,0.0,0.0,0.0,0.0,0.0,0.0,0.0,0.0,0.0,0.0,0.0,0.0,0.0,0.0,0.0,0.0,0.0,0.0,0.0,0.0,0.0,0.0,0.0,0.0,0.0,0.0,2.0429,2.2412,2.36,2.4187,2.4172,2.2759,2.0775,0.0,0.0,0.0,0.0,0.0,0.0,0.0,0.0,0.0,0.0,0.0,0.0,0.0,0.0,0.0,0.0,0.0,0.0,0.0,0.0,0.0,0.0,0.0,0.0,0.0,0.0,0.0,0.0,0.0,0.0,0.0,0.0,0.0,0.0,0.0,0.0,0.0,0.0,0.0,0.0,0.0,0.0,0.0,0.0,0.0,0.0,0.0,0.0,0.0,0.0,0.0,0.0,0.0,0.0,0.0,0.0,0.0,0.0,0.0,0.0,0.0,0.0,0.0,0.0,0.0,0.0,0.0,0.0,0.0,0.0,0.0,0.0,0.0,0.0,0.0,0.0,0.0,0.0,0.0,0.0,0.0,0.0,0.0,0.0,0.0,0.0,0.0,0.0,0.0,0.0,0.0,0.0,0.0,0.0,0.0,0.0,0.0,0.0,0.0,0.0,0.0,0.0,0.0,0.0,0.0,0.0,0.0,0.0,2.1715,2.2709,2.3685,2.4229,2.4261,2.2639,2.1335,0.0,0.0,0.0,0.0,0.0,0.0,0.0,0.0,0.0,0.0,0.0,0.0,0.0,0.0,0.0,0.0,0.0,0.0,0.0,0.0,0.0,0.0,0.0,0.0,0.0,0.0,0.0,0.0,0.0,0.0,0.0,0.0,0.0,0.0,0.0,0.0,0.0,0.0,0.0,0.0,0.0,0.0,0.0,0.0,0.0,0.0,0.0,0.0,1.8436,0.0,0.0,0.0,0.0,0.0,0.0,0.0,0.0,0.0,0.0,0.0,0.0,0.0,0.0,0.0,0.0,0.0,0.0,0.0,0.0,0.0,0.0,0.0,0.0,0.0,0.0,0.0,0.0,0.0,0.0,0.0,0.0,0.0,0.0,0.0,0.0,0.0,0.0,0.0,0.0,0.0,0.0,0.0,0.0,0.0,0.0,0.0,0.0,0.0,0.0,0.0,0.0,0.0,0.0,0.0,0.0,0.0,0.0,0.0,2.224,2.3214,2.4074,2.4543,2.4532,2.3574,2.2399,0.0,0.0,0.0,0.0,0.0,0.0,0.0,0.0,0.0,0.0,0.0,0.0,0.0,0.0,0.0,0.0,0.0,0.0,0.0,0.0,0.0,0.0,0.0,0.0,0.0,0.0,0.0,0.0,0.0,0.0,0.0,0.0,0.0,0.0,0.0,0.0,0.0,0.0,0.0,0.0,0.0,0.0,0.0,0.0,0.0,0.0,0.0,0.0,0.0,0.0,0.0,0.0,0.0,0.0,0.0,0.0,0.0,0.0,0.0,0.0,0.0,0.0,0.0,0.0,0.0,0.0,0.0,0.0,0.0,0.0,0.0,0.0,0.0,0.0,0.0,0.0,0.0,0.0,0.0,0.0,0.0,0.0,0.0,0.0,0.0,0.0,0.0,0.0,0.0,0.0,0.0,0.0,0.0,0.0,0.0,0.0,0.0,0.0,0.0,0.0,0.0,0.0,0.0,0.0,0.0,0.0,0.0,2.053,2.2404,2.3851,2.455,2.4902,2.4902,2.4694,2.3506,2.1278,0.0,0.0,0.0,0.0,0.0,0.0,0.0,0.0,0.0,0.0,0.0,0.0,0.0,0.0,0.0,0.0,0.0,0.0,0.0,0.0,0.0,0.0,0.0,0.0,0.0,0.0,0.0,0.0,0.0,0.0,0.0,0.0,0.0,0.0,0.0,0.0,0.0,0.0,1.633,1.8661,0.0,0.0,0.0,0.0,0.0,0.0,0.0,0.0,2.0507,0.0,0.0,0.0,0.0,0.0,0.0,0.0,0.0,0.0,0.0,0.0,0.0,0.0,0.0,0.0,0.0,0.0,0.0,0.0,0.0,0.0,0.0,0.0,0.0,0.0,0.0,0.0,0.0,0.0,0.0,0.0,0.0,0.0,0.0,0.0,0.0,0.0,0.0,0.0,0.0,0.0,0.0,0.0,0.0,0.0,0.0,0.0,0.0,0.0,0.0,0.0,0.0,0.0,0.0,0.0,0.0,2.1528,2.1668,2.2676,2.4648,2.4835,2.4902,2.4906,2.4913,2.3877,2.1683,0.0,0.0,0.0,0.0,0.0,0.0,0.0,0.0,0.0,0.0,0.0,0.0,0.0,0.0,0.0,0.0,0.0,0.0,0.0,0.0,0.0,0.0,0.0,0.0,0.0,0.0,0.0,0.0,0.0,0.0,0.0,0.0,0.0,0.0,0.0,0.0,0.0,0.0,0.0,1.9831,2.0624,0.0,0.0,0.0,0.0,0.0,0.0,0.0,0.0,2.0997,0.0,0.0,0.0,0.0,0.0,0.0,0.0,0.0,0.0,0.0,0.0,0.0,0.0,0.0,0.0,0.0,0.0,0.0,0.0,0.0,0.0,0.0,0.0,0.0,0.0,0.0,0.0,0.0,0.0,0.0,0.0,0.0,0.0,0.0,0.0,0.0,0.0,0.0,0.0,0.0,0.0,0.0,0.0,0.0,0.0,0.0,0.0,0.0,0.0,0.0,0.0,0.0,0.0,0.0,0.0,2.0903,2.2178,2.3377,2.4542,2.4794,2.5001,2.5192,2.4707,2.366,0.0,0.0,0.0,0.0,0.0,0.0,0.0,0.0,0.0,0.0,0.0,0.0,0.0,0.0,0.0,0.0,0.0,0.0,0.0,0.0,0.0,0.0,0.0,0.0,0.0,0.0,0.0,0.0,0.0,0.0,0.0,0.0,0.0,0.0,0.0,0.0,0.0,0.0,0.0,0.0,2.1343,2.2278,2.4037,0.0,0.0,0.0,0.0,0.0,0.0,2.2269,2.178,0.0,0.0,0.0,0.0,0.0,0.0,0.0,0.0,0.0,0.0,0.0,0.0,0.0,0.0,0.0,0.0,0.0,0.0,0.0,0.0,0.0,0.0,0.0,0.0,0.0,0.0,0.0,0.0,0.0,0.0,0.0,0.0,0.0,0.0,0.0,0.0,0.0,0.0,0.0,0.0,0.0,0.0,0.0,0.0,0.0,0.0,0.0,0.0,0.0,0.0,0.0,0.0,0.0,0.0,0.0,1.9821,2.2216,2.3738,2.4277,2.4689,2.5098,2.5461,2.4467,2.3398,0.0,0.0,0.0,0.0,0.0,0.0,0.0,0.0,0.0,0.0,0.0,0.0,0.0,0.0,0.0,0.0,0.0,0.0,0.0,0.0,0.0,0.0,0.0,0.0,0.0,0.0,0.0,0.0,0.0,0.0,0.0,0.0,0.0,0.0,0.0,0.0,0.0,0.0,0.0,0.0,0.0,2.382,2.513,2.4321,0.0,0.0,0.0,0.0,2.2606,2.3113,0.0,0.0,0.0,0.0,0.0,0.0,0.0,0.0,0.0,0.0,0.0,0.0,0.0,0.0,0.0,0.0,0.0,0.0,0.0,0.0,0.0,0.0,0.0,0.0,0.0,0.0,0.0,0.0,0.0,0.0,0.0,0.0,0.0,0.0,0.0,0.0,0.0,0.0,0.0,0.0,0.0,0.0,0.0,0.0,0.0,0.0,0.0,0.0,0.0,0.0,0.0,0.0,0.0,0.0,0.0,0.0,2.0081,2.1559,2.295,2.4235,2.4699,2.5098,2.5451,2.4458,2.3398,0.0,0.0,0.0,0.0,0.0,0.0,0.0,0.0,0.0,0.0,0.0,0.0,0.0,0.0,0.0,0.0,0.0,0.0,0.0,0.0,0.0,0.0,0.0,0.0,0.0,0.0,0.0,0.0,0.0,0.0,0.0,0.0,0.0,0.0,0.0,0.0,0.0,0.0,0.0,0.0,0.0,2.3666,2.6075,2.4358,2.3346,0.0,0.0,2.5309,2.591,2.6242,0.0,0.0,0.0,0.0,0.0,0.0,0.0,0.0,0.0,0.0,0.0,0.0,0.0,0.0,0.0,0.0,0.0,0.0,0.0,0.0,0.0,0.0,0.0,0.0,0.0,0.0,0.0,0.0,0.0,0.0,0.0,0.0,0.0,0.0,0.0,0.0,0.0,0.0,0.0,0.0,0.0,0.0,0.0,0.0,0.0,0.0,0.0,0.0,0.0,0.0,0.0,0.0,0.0,0.0,0.0,1.8608,2.0306,2.2433,2.3742,2.4214,2.4405,2.4709,2.5157,2.3719,2.2645,0.0,0.0,0.0,0.0,0.0,0.0,0.0,0.0,0.0,0.0,0.0,0.0,0.0,0.0,0.0,0.0,0.0,0.0,0.0,0.0,0.0,0.0,0.0,0.0,0.0,0.0,0.0,0.0,0.0,0.0,0.0,0.0,0.0,0.0,0.0,0.0,0.0,0.0,0.0,0.0,0.0,0.0,2.583,2.5332,0.0,0.0,0.0,2.5757,2.4866,0.0,0.0,0.0,0.0,0.0,0.0,0.0,0.0,0.0,0.0,0.0,0.0,0.0,0.0,0.0,0.0,0.0,0.0,0.0,0.0,0.0,0.0,0.0,0.0,0.0,0.0,0.0,0.0,0.0,0.0,0.0,0.0,0.0,0.0,0.0,0.0,0.0,0.0,0.0,0.0,0.0,0.0,0.0,0.0,0.0,0.0,0.0,0.0,0.0,0.0,0.0,0.0,0.0,0.0,0.0,0.0,0.0,2.04,2.3034,2.4338,2.4213,2.4317,2.4528,2.4851,2.3592,0.0,0.0,0.0,0.0,0.0,0.0,0.0,0.0,0.0,0.0,0.0,0.0,0.0,0.0,0.0,0.0,0.0,0.0,0.0,0.0,0.0,0.0,0.0,0.0,0.0,0.0,0.0,1.4435,0.0,0.0,0.0,0.0,0.0,0.0,0.0,0.0,0.0,0.0,0.0,0.0,0.0,0.0,2.642,2.592,2.6495,2.6831,0.0,0.0,2.6241,2.4802,2.6806,2.7586,0.0,0.0,0.0,0.0,0.0,0.0,0.0,0.0,0.0,0.0,0.0,0.0,0.0,0.0,0.0,0.0,0.0,0.0,0.0,0.0,0.0,0.0,0.0,0.0,0.0,0.0,0.0,0.0,0.0,0.0,0.0,0.0,0.0,0.0,0.0,0.0,0.0,0.0,0.0,0.0,0.0,0.0,0.0,0.0,0.0,0.0,0.0,0.0,0.0,0.0,0.0,0.0,0.0,0.0,1.9052,2.0323,2.2651,2.3997,2.4187,2.4584,2.4799,2.4902,2.485,2.3811,0.0,0.0,0.0,0.0,0.0,0.0,0.0,0.0,0.0,0.0,0.0,0.0,0.0,0.0,0.0,0.0,0.0,0.0,0.0,0.0,0.0,0.0,0.0,0.0,0.0,0.0,0.0,0.0,0.0,0.0,0.0,0.0,0.0,0.0,0.0,0.0,0.0,0.0,0.0,0.0,0.0,2.6716,2.7022,2.7606,2.8048,0.0,2.7617,2.7355,2.7958,2.9005,2.9182,2.7483,0.0,0.0,0.0,0.0,0.0,0.0,0.0,0.0,0.0,0.0,0.0,0.0,0.0,0.0,0.0,0.0,0.0,0.0,0.0,0.0,0.0,0.0,0.0,0.0,0.0,0.0,0.0,0.0,1.2187,0.0,0.0,0.0,0.0,0.0,0.0,0.0,0.0,0.0,0.0,0.0,0.0,0.0,0.0,0.0,0.0,0.0,0.0,0.0,0.0,0.0,0.0,0.0,0.0,1.9439,1.9981,2.3117,2.4489,2.3997,2.4349,2.4624,2.4715,2.4857,2.3885,0.0,0.0,0.0,0.0,0.0,0.0,0.0,0.0,0.0,0.0,0.0,0.0,0.0,0.0,0.0,0.0,0.0,0.0,0.0,0.0,0.0,0.0,0.0,0.0,0.0,0.0,0.0,0.0,1.7462,1.7773,1.682,0.0,0.0,0.0,0.0,0.0,0.0,0.0,0.0,0.0,0.0,2.7996,2.9288,2.9673,0.0,0.0,2.9763,2.9275,2.8659,2.9311,2.9177,2.7032,2.616,0.0,0.0,0.0,0.0,0.0,0.0,0.0,0.0,0.0,0.0,0.0,0.0,0.0,0.0,0.0,0.0,0.0,0.0,0.0,0.0,0.0,0.0,0.0,0.0,0.0,0.0,1.306,1.2551,0.0,0.0,0.0,0.0,0.0,0.0,0.0,0.0,0.0,0.0,0.0,0.0,0.0,0.0,0.0,0.0,0.0,0.0,0.0,0.0,0.0,0.0,0.0,0.0,1.9444,1.9782,2.3071,2.4448,2.3818,2.4199,2.4466,2.4604,2.4982,2.4105,0.0,0.0,0.0,0.0,0.0,0.0,0.0,0.0,0.0,0.0,0.0,0.0,0.0,0.0,0.0,0.0,0.0,0.0,0.0,0.0,0.0,0.0,0.0,0.0,0.0,0.0,0.0,0.0,1.7818,1.8007,1.7142,0.0,0.0,0.0,0.0,0.0,0.0,0.0,0.0,0.0,0.0,2.9248,3.0344,3.0721,3.0804,3.0501,3.0068,2.9439,2.8494,2.8825,2.8673,2.7195,0.0,0.0,0.0,0.0,0.0,0.0,0.0,0.0,0.0,0.0,0.0,0.0,0.0,0.0,0.0,0.0,0.0,0.0,0.0,0.0,0.0,0.0,0.0,0.0,0.0,0.0,0.0,1.3109,0.0,0.0,1.3147,0.0,0.0,0.0,0.0,0.0,0.0,0.0,0.0,0.0,0.0,0.0,0.0,0.0,0.0,0.0,0.0,0.0,0.0,0.0,0.0,0.0,0.0,1.8843,1.9995,2.2389,2.3659,2.3782,2.4194,2.4466,2.462,2.5361,2.4732,2.2508,0.0,0.0,0.0,0.0,0.0,0.0,0.0,0.0,0.0,0.0,0.0,0.0,0.0,0.0,0.0,0.0,0.0,0.0,0.0,0.0,0.0,0.0,0.0,0.0,0.0,0.0,1.5504,1.6148,1.7013,0.0,0.0,0.0,0.0,0.0,0.0,0.0,0.0,0.0,2.524,2.8328,3.0319,2.9785,3.0382,3.0476,2.9096,2.8001,2.7345,2.7597,2.7585,2.779,0.0,0.0,0.0,0.0,0.0,0.0,0.0,0.0,0.0,0.0,0.0,0.0,0.0,0.0,0.0,0.0,0.0,0.0,0.0,0.0,0.0,0.0,0.0,0.0,0.0,0.0,0.0,1.5973,1.532,0.0,0.0,0.0,0.0,0.0,0.0,0.0,0.0,0.0,0.0,0.0,2.1071,2.1525,0.0,0.0,0.0,0.0,0.0,0.0,0.0,0.0,0.0,0.0,0.0,0.0,1.955,2.0352,2.3103,2.4256,2.364,2.4338,2.4754,2.4809,2.5412,2.4628,2.2238,0.0,0.0,0.0,0.0,0.0,0.0,0.0,0.0,0.0,0.0,0.0,0.0,0.0,0.0,0.0,0.0,0.0,0.0,0.0,0.0,0.0,0.0,0.0,0.0,0.0,1.6412,0.0,0.0,0.0,0.0,0.0,0.0,0.0,0.0,0.0,0.0,2.4569,2.6192,2.8278,2.9112,2.9956,3.1089,3.1495,3.176,0.0,0.0,0.0,0.0,0.0,0.0,0.0,0.0,0.0,0.0,0.0,0.0,0.0,0.0,2.7399,2.4678,2.4836,2.5477,2.5765,0.0,0.0,0.0,0.0,0.0,0.0,0.0,0.0,0.0,0.0,0.0,0.0,0.0,0.0,1.824,1.753,1.7232,0.0,0.0,0.0,0.0,0.0,0.0,0.0,0.0,2.193,2.2733,2.2957,2.3389,2.3349,2.286,2.208,2.0621,0.0,0.0,0.0,0.0,0.0,0.0,0.0,0.0,1.9641,2.0411,2.3058,2.4219,2.3747,2.4194,2.4658,2.5092,2.5348,2.4716,2.3117,2.1675,1.996,0.0,0.0,0.0,0.0,0.0,0.0,0.0,0.0,0.0,0.0,0.0,0.0,0.0,0.0,0.0,0.0,0.0,0.0,0.0,0.0,0.0,0.0,0.0,1.7576,0.0,0.0,0.0,0.0,0.0,0.0,0.0,0.0,0.0,2.4619,2.6252,2.8197,3.0215,3.0326,3.0628,3.1741,0.0,0.0,0.0,0.0,0.0,0.0,0.0,2.894,2.9545,2.9898,3.061,3.2212,3.2459,3.2212,3.1696,0.0,0.0,2.7794,2.7578,2.8017,2.8321,2.8768,2.9192,2.9518,2.9546,2.9637,0.0,0.0,0.0,0.0,1.9854,0.0,0.0,0.0,2.0983,2.0539,0.0,1.8979,0.0,0.0,0.0,0.0,1.8787,2.0797,0.0,0.0,2.4754,2.5788,2.5126,2.5093,2.5041,2.4889,2.4181,2.3514,2.2781,2.0813,1.9329,0.0,0.0,0.0,0.0,0.0,1.9191,2.0333,2.2342,2.3581,2.4026,2.3777,2.422,2.5411,2.5246,2.511,2.5035,2.3686,2.2308,2.0888,1.8786,0.0,0.0,0.0,0.0,0.0,0.0,0.0,0.0,0.0,0.0,0.0,0.0,0.0,0.0,0.0,0.0,0.0,0.0,0.0,0.0,1.8448,0.0,0.0,0.0,0.0,0.0,0.0,0.0,0.0,0.0,2.6591,2.4436,2.7411,3.0122,3.0889,0.0,0.0,0.0,0.0,3.1184,3.0217,2.9676,2.9622,3.0053,3.0612,3.159,3.3364,0.0,0.0,3.5022,3.3733,3.2781,3.2686,3.3937,3.4105,3.1879,3.024,2.9474,3.0183,3.0364,3.0429,3.1168,3.1391,3.1209,2.5799,0.0,0.0,0.0,0.0,2.2835,2.2889,2.3097,2.3668,2.3171,2.1947,2.1724,0.0,0.0,0.0,0.0,0.0,0.0,2.3148,2.4158,2.495,2.5427,2.574,2.5694,2.5642,2.5615,2.5392,2.5215,2.5062,2.447,2.2271,1.8603,0.0,0.0,0.0,0.0,2.0646,2.1893,2.3124,2.3659,2.3534,2.3899,2.4405,2.5069,2.5595,2.5631,2.5102,2.4688,2.381,2.235,2.0683,0.0,0.0,0.0,0.0,0.0,0.0,0.0,0.0,0.0,0.0,0.0,0.0,0.0,0.0,0.0,0.0,0.0,0.0,0.0,1.7537,1.8923,1.9708,0.0,0.0,0.0,0.0,0.0,0.0,0.0,0.0,0.0,2.8069,2.9442,3.0674,0.0,0.0,3.1066,3.044,3.1501,3.2483,3.2885,3.2491,0.0,3.3083,3.2354,3.2282,3.3992,3.605,3.751,3.7594,3.7694,3.774,3.7702,3.7556,3.7157,3.6551,3.5469,3.4722,3.491,3.4545,3.4389,3.508,3.4443,3.3716,2.883,2.7453,2.5581,2.5063,2.5489,2.5446,2.5561,2.5765,2.6239,2.5924,2.5069,2.4771,2.4398,2.3967,2.3677,0.0,0.0,0.0,2.5268,2.6419,2.6322,2.6361,2.6493,2.6455,2.627,2.5952,2.5945,2.6111,2.6436,2.6124,2.4597,2.183,0.0,2.0526,2.0248,2.0941,2.1688,2.2457,2.3424,2.3835,2.3631,2.4369,2.4813,2.4902,2.5761,2.6128,2.598,2.5681,2.5118,2.4232,2.2654,2.0972,0.0,0.0,0.0,0.0,0.0,0.0,0.0,0.0,0.0,0.0,0.0,1.7033,1.5616,0.0,0.0,0.0,1.8583,1.925,2.0359,2.1072,0.0,0.0,0.0,0.0,0.0,0.0,0.0,2.6798,2.935,3.1153,3.1423,3.1891,3.2337,3.2673,3.239,3.2049,3.1769,0.0,3.3641,3.438,3.4123,3.421,3.5196,3.4768,3.4773,3.6246,3.7765,3.8897,3.9085,3.9465,3.9745,3.973,3.9268,3.8831,3.8831,3.8265,3.7617,3.7114,3.6625,3.6462,3.6925,3.6208,3.5644,3.118,3.0985,2.8789,2.7783,2.7697,2.7724,2.7983,2.8412,2.8519,2.85,2.8343,2.768,2.74,2.7341,2.6684,0.0,2.7391,2.7381,2.7713,2.8392,2.8383,2.8044,2.7398,2.7372,2.696,2.618,2.6164,2.6519,2.7137,2.6495,2.6323,2.6581,2.4603,2.321,2.2451,2.2461,2.2452,2.2356,2.3387,2.3991,2.4115,2.4965,2.5246,2.4906,2.5708,2.6465,2.7133,2.6551,2.6194,2.6137,2.4498,2.2852,2.1346,0.0,0.0,0.0,0.0,0.0,0.0,0.0,0.0,0.0,0.0,0.0,0.0,0.0,0.0,0.0,2.2058,0.0,2.4735,2.427,0.0,0.0,0.0,2.5825,2.8227,2.9189,3.0259,3.1742,0.0,0.0,3.4297,3.4394,3.4711,3.5556,3.4852,3.4313,3.4447,3.4511,3.4695,3.5053,3.5057,3.5465,3.6613,3.7281,3.8086,3.9264,3.9677,3.9745,3.9784,3.9718,3.9682,3.9664,3.9464,3.9349,3.9398,3.9205,3.873,3.7579,3.719,3.7096,3.721,3.6975,3.6777,3.2749,3.2704,3.2031,3.0801,2.9245,2.9057,2.8766,2.8529,2.8985,2.889,2.8402,2.822,2.8137,2.8127,2.7952,2.7978,2.8127,2.8144,2.8236,2.8392,2.8308,2.8154,2.7979,2.7925,2.781,2.76,2.76,2.7705,2.794,2.7759,2.744,2.6984,2.644,2.5511,2.4137,2.3579,2.3398,2.3586,2.3401,2.3626,2.4235,2.4472,2.4689,2.4902,2.5396,2.5912,2.6434,2.6294,2.6194,2.6178,2.5237,2.4213,2.3112,1.9578,0.0,0.0,0.0,0.0,0.0,0.0,0.0,0.0,0.0,1.9904,1.6923,0.0,2.0501,0.0,2.3514,2.5195,2.5546,2.5994,0.0,0.0,2.7084,2.7656,3.0682,3.1159,3.1654,3.2681,3.404,3.4973,3.5121,3.5616,3.6235,3.6961,3.5854,3.4782,3.4321,3.5398,3.6248,3.6363,3.6934,3.7619,3.796,3.8824,3.983,4.1047,4.1225,4.1092,4.0616,4.0522,4.0303,3.9708,3.9408,3.9554,4.0176,3.9669,3.9333,3.9407,3.8608,3.7893,3.8433,3.765,3.6949,3.4301,3.4257,3.4125,3.2807,3.0791,3.0966,3.0815,3.0492,3.0813,3.0528,2.9814,2.9466,2.9334,2.9317,2.9334,2.9317,2.9334,2.9344,2.9344,2.9334,2.9267,2.9055,2.8725,2.8698,2.853,2.8244,2.8234,2.8421,2.8708,2.8725,2.8682,2.8606,2.8606,2.7914,2.6529,2.5076,2.4104,2.3592,2.3552,2.3774,2.4297,2.4649,2.4711,2.4425,2.4994,2.5443,2.5714,2.5391,2.5366,2.5673,2.5146,2.4498,2.3721,2.1061,1.9211,0.0,0.0,0.0,0.0,0.0,0.0,0.0,0.0,0.0,0.0,0.0,2.231,2.269,2.5278,2.7189,2.7828,2.8351,2.9354,3.117,3.0658,3.128,3.4123,3.4419,3.4707,3.5556,3.6701,3.7327,3.697,3.7274,3.7524,3.7586,3.6836,3.6131,3.5828,3.6566,3.7145,3.719,3.7652,3.8239,3.865,3.976,4.0748,4.1367,4.163,4.1603,4.1291,4.119,4.1008,4.0606,4.0419,4.0454,4.0912,4.0633,4.0408,4.0617,4.0111,3.9533,3.9619,3.8605,3.7882,3.587,3.579,3.5669,3.451,3.2771,3.3404,3.3161,3.2329,3.2334,3.1982,3.1432,3.0986,3.082,3.0903,3.0731,3.0704,3.0754,3.0582,3.0489,3.0489,3.0489,3.0158,2.9556,2.9638,2.9334,2.8674,2.8774,2.9079,2.9522,2.9539,2.981,3.035,3.0357,2.978,2.8599,2.6607,2.48,2.3249,2.3758,2.4085,2.4189,2.4769,2.4613,2.3774,2.446,2.4901,2.4936,2.434,2.4299,2.4903,2.4624,2.4299,2.3991,2.2652,2.172,0.0,1.9867,0.0,0.0,0.0,0.0,0.0,0.0,0.0,0.0,2.3773,2.4331,2.5223,2.7346,2.9266,3.0825,3.1056,3.2234,3.4963,3.4856,3.5382,3.7461,3.7818,3.8157,3.8879,3.9512,3.9637,3.8977,3.8941,3.8629,3.7961,3.7764,3.7586,3.7559,3.7533,3.7595,3.7711,3.7836,3.8483,3.9454,4.0499,4.1275,4.145,4.1793,4.1843,4.1874,4.1812,4.1734,4.1723,4.1554,4.1571,4.1672,4.1601,4.1523,4.1563,4.1219,4.0859,4.0515,3.9726,3.9393,3.7442,3.7435,3.7299,3.6999,3.6629,3.6674,3.3863,2.935,2.9274,2.9785,3.0781,3.1818,3.2613,3.3072,3.1923,3.1735,3.221,3.1046,3.0489,3.0489,3.0489,3.0423,3.0323,3.0903,3.0793,3.0168,3.0715,3.0764,3.029,3.029,3.0069,2.9612,2.9605,2.8983,2.7789,0.0,0.0,0.0,2.3711,2.3622,2.3476,2.3053,2.2877,2.2988,2.3483,0.0,2.4183,2.4083,2.4067,2.4199,2.4132,0.0,0.0,0.0,0.0,0.0,0.0,0.0,0.0,0.0,0.0,0.0,2.4105,2.3885,2.3594,2.5229,2.6949,2.8399,3.0054,3.1706,3.3268,3.3964,3.4803,3.6006,3.6622,3.7372,3.8442,3.9102,3.953,3.9672,3.9833,3.9869,3.9744,3.9708,3.9423,3.8691,3.8566,3.8308,3.7711,3.7666,3.7853,3.8451,3.9012,3.9851,4.0969,4.1343,4.186,4.2575,4.3036,4.2943,4.2437,4.2457,4.2299,4.1824,4.1631,4.1794,4.2153,4.1736,4.1506,4.1782,4.1304,4.0835,4.1001,4.0675,4.0394,3.9,3.8976,3.884,3.8163,0.0,3.6944,3.4502,3.0769,3.2186,3.2951,3.3231,3.3607,3.4,3.427,3.2812,3.2348,3.2608,3.0797,3.0158,3.0472,3.0135,3.035,3.1041,3.1416,3.1598,3.1603,3.1967,3.1758,3.1068,3.1035,3.0654,2.9953,2.971,2.9266,2.8656,2.8458,2.7418,2.5444,2.5263,2.4976,2.4609,2.4408,2.4106,2.3663,2.4035,0.0,0.0,0.0,0.0,0.0,0.0,0.0,0.0,0.0,0.0,2.4557,2.3529,2.3195,2.3968,2.4397,2.514,2.6323,2.6782,2.6853,2.6436,2.8191,2.9983,3.1564,3.2438,3.3526,3.5061,3.5578,3.6426,3.7898,3.8183,3.8629,3.9726,4.0253,4.0493,4.0546,4.0832,4.0949,4.0556,4.0493,4.0172,3.9476,3.9333,3.9191,3.8808,3.8433,3.8487,3.9226,3.9993,4.0677,4.1254,4.1859,4.2262,4.2867,4.3205,4.3209,4.2878,4.2897,4.2842,4.2466,4.2392,4.2508,4.2701,4.2448,4.2277,4.2439,4.2087,4.1751,4.1876,4.1178,4.069,4.0113,4.0083,3.9973,3.8878,3.717,3.6949,3.5787,3.4229,3.6092,0.0,0.0,3.5429,3.5363,3.5379,3.395,3.3353,3.3337,3.1321,3.0615,3.1046,3.0466,3.0748,3.178,3.1929,3.2249,3.2691,3.2823,3.2508,3.1797,3.1664,3.1289,3.0706,3.0168,2.9886,2.9783,2.9494,2.8696,2.7426,2.705,2.6529,2.5853,2.604,2.5579,2.4415,2.4712,2.4605,2.4025,2.3992,2.4274,2.487,2.4903,2.5245,2.5972,2.6017,2.6091,2.6218,2.6222,2.6514,2.7163,2.721,2.7567,2.8356,2.9423,3.0011,3.0029,3.1171,3.2634,3.4365,3.4517,3.515,3.6667,3.6827,3.7702,3.9869,3.9565,3.9789,4.1074,4.1324,4.1306,4.1387,4.1869,4.2065,4.1413,4.1306,4.102,4.0332,4.0118,4.0118,4.0047,3.9601,3.9476,4.0047,4.0788,4.1334,4.1453,4.197,4.2596,4.2606,4.2883,4.3087,4.3114,4.3151,4.3205,4.3132,4.3214,4.3142,4.3114,4.3005,4.3087,4.3059,4.2825,4.2624,4.2516,4.1606,4.1032,4.0113,4.0113,4.0087,3.9826,3.943,3.9391,3.913,3.856,3.6272,3.5171,3.5114,3.629,3.7152,3.7652,3.6208,3.5893,3.6373,3.4849,3.3856,3.3326,3.321,3.2956,3.2591,3.3204,3.3221,3.2774,3.3337,3.3271,3.2558,3.1907,3.1548,3.1356,3.0757,3.0204,2.9848,3.0135,2.9805,2.8803,2.7637,2.6545,2.549,2.508,2.4556,2.3938,2.409,2.4116,2.3992,2.4009,2.405,2.4149,2.4166,2.4733,2.5993,2.6132,2.6605,2.7742,2.7857,2.791,2.8017,2.8024,2.8374,2.9244,3.1197,3.24,3.2418,3.2596,3.3659,3.5801,3.606,3.672,3.8219,3.8415,3.9066,4.0628,4.0824,4.1145,4.1966,4.2065,4.2083,4.2083,4.2208,4.2279,4.2101,4.2065,4.178,4.1127,4.0931,4.0931,4.0913,4.0842,4.0806,4.1002,4.1601,4.2065,4.2076,4.2203,4.2381,4.2351,4.2575,4.2769,4.2769,4.2957,4.3133,4.3169,4.3151,4.3041,4.2826,4.2769,4.27,4.2524,4.244,4.2381,4.2381,4.2067,4.2006,4.0113,4.0113,4.0113,4.0075,3.9999,3.9939,3.982,3.9573,3.8154,3.7507,3.7569,3.8224,3.8694,3.8861,3.7386,3.6916,3.7215,3.5291,3.4452,3.4452,3.3767,3.3578,3.3879,3.3903,3.3891,3.39,3.4232,3.4005,3.3287,3.2547,3.199,3.1543,3.0619,3.0,2.9843,3.0016,3.0027,2.9848,2.9011,2.8105,2.7201,2.6951,2.6464,2.5714,2.5754,2.5583,2.5201,2.5209,2.5375,2.5774,2.5807,2.6158,2.6967,2.7203,2.7483,2.7893,2.8088,2.8189,2.8189,2.8613,2.938,3.0582,3.2017,3.3275,3.4097,3.4552,3.5435,3.6908,3.7416,3.7996,3.8745,3.9155,3.9851,4.0985,4.1109,4.1413,4.2137,4.2297,4.2297,4.2297,4.2297,4.2297,4.2297,4.2297,4.2208,4.1798,4.1744,4.1752,4.1744,4.1734,4.1752,4.178,4.2065,4.2244,4.2315,4.2297,4.2297,4.2297,4.2402,4.2474,4.2484,4.265,4.2717,4.2709,4.2718,4.266,4.2494,4.2484,4.2404,4.2351,4.2297,4.2297,4.2297,4.2297,4.2297,4.0235,4.0113,4.0113,4.0113,4.0083,3.9986,3.9901,3.9794,3.9777,3.9794,3.9794,3.9729,3.9703,3.9573,3.8367,3.7912,3.7752,3.6112,3.5502,3.5747,3.4816,3.4659,3.5134,3.471,3.4654,3.4913,3.4923,3.4584,3.4016,3.3304,3.2481,3.1582,3.0495,3.0,3.0064,3.0163,3.0337,3.0568,3.0337,2.9783,2.8973,2.888,2.8447,2.7681,2.7566,2.719,2.6501,2.6452,2.6634,2.7017,2.73,2.7603,2.7964,2.8465,2.8614,2.8442,2.8621,2.8751,2.8766,2.9451,3.044,3.1599,3.2606,3.3749,3.5052,3.5935,3.672,3.7532,3.8272,3.8816,3.9119,3.9744,4.0493,4.1252,4.1359,4.1637,4.219,4.2297,4.2297,4.2297,4.2297,4.2297,4.2297,4.2297,4.2279,4.2262,4.2297,4.2297,4.2297,4.2422,4.2573,4.2555,4.2583,4.2619,4.2601,4.2787,4.2797,4.2644,4.2779,4.2728,4.2596,4.2433,4.245,4.2438,4.2338,4.2348,4.2318,4.2308,4.2308,4.2297,4.2297,4.2297,4.2297,4.2297,4.2297,4.0726,4.0146,4.0146,4.0113,4.0113,4.0083,4.0075,4.0045,4.0075,4.0058,4.0037,3.9807,3.9716,3.969,3.9506,3.9406,3.9448,3.9272,3.8773,3.8242,3.8154,3.7451,3.6289,3.6055,3.5666,3.5131,3.497,3.4868,3.4658,3.3995,3.2961,3.1664,3.0811,3.0565,3.0791,3.1205,3.1238,3.0883,3.1232,3.086,2.9783,2.9455,2.9102,2.8593,2.8402,2.7945,2.7251,2.7192,2.6917,2.6455,2.7311,2.8015,2.8476,2.943,3.012,3.0333,3.0424,3.0413,3.0358,3.1028,3.1518,3.1803,3.3116,3.4303,3.5141,3.5971,3.6729,3.7568,3.8371,3.9102,3.9744,4.0521,4.1288,4.1958,4.2101,4.2244,4.229,4.2297,4.2297,4.2297,4.2297,4.2297,4.2297,4.2297,4.2297,4.2297,4.2297,4.2297,4.2333,4.2769,4.3144,4.3258,4.3365,4.3383,4.3436,4.3954,4.3811,4.3472,4.3882,4.3561,4.2858,4.284,4.3215,4.2619,4.2297,4.2297,4.2297,4.2297,4.2297,4.2297,4.2297,4.2297,4.2297,4.2297,4.2297,4.1971,4.1665,4.1083,4.0565,4.013,4.0113,4.0113,4.0113,4.0113,4.0113,4.0083,3.9999,3.9931,3.9931,3.9862,3.9858,3.9918,3.9845,3.9672,3.9337,3.9009,3.8198,3.709,3.6623,3.6018,3.5272,3.5163,3.4906,3.4417,3.3661,3.2779,3.1901,3.1432,3.1138,3.097,3.1521,3.1527,3.0931,3.1521,3.1388,3.0555,3.0269,2.9915,2.941,2.9267,2.8882,2.8224,2.8117,2.7953,2.7605,2.8005,2.8404,2.8724,2.9434,3.0001,3.0371,3.0635,3.0912,3.1246,3.1586,3.1946,3.239,3.3455,3.441,3.5169,3.6363,3.7461,3.8237,3.8995,3.9762,4.0511,4.1351,4.1958,4.2244,4.2297,4.2297,4.2297,4.2297,4.2297,4.2297,4.2297,4.2297,4.2297,4.2297,4.2297,4.2297,4.2297,4.2297,4.2333,4.259,4.2761,4.2912,4.3508,4.4096,4.4132,4.3954,4.3864,4.3597,4.3322,4.2904,4.3197,4.2726,4.2779,4.2919,4.2573,4.2315,4.2297,4.2297,4.2297,4.2308,4.2308,4.2336,4.2415,4.2356,4.2346,4.2962,4.271,4.1984,4.1219,4.0468,4.0417,4.0286,4.0113,4.0113,4.0113,4.0113,4.0113,4.0113,4.0087,3.9986,4.0011,4.0075,3.9948,3.9926,3.9897,3.9454,3.8667,3.7635,3.7146,3.6348,3.5483,3.5303,3.5012,3.4415,3.3434,3.2811,3.2552,3.1892,3.1535,3.1568,3.2054,3.1937,3.1344,3.1937,3.1863,3.1036,3.0824,3.0553,3.0151,3.0111,2.9743,2.9039,2.8989,2.8867,2.8558,2.8836,2.9164,2.9477,3.0092,3.0641,3.101,3.1284,3.1628,3.2117,3.2153,3.2373,3.2945,3.3682,3.4452,3.5283,3.6506,3.78,3.9004,3.9601,4.0208,4.102,4.1833,4.2262,4.2297,4.2297,4.2297,4.2297,4.2297,4.2297,4.2297,4.2297,4.2297,4.2297,4.2297,4.2297,4.2297,4.2297,4.2318,4.2399,4.2535,4.2724,4.2754,4.3849,4.4521,4.4589,4.4542,4.4061,4.3722,4.3429,4.334,4.349,4.2912,4.269,4.3169,4.268,4.2369,4.2315,4.2297,4.2328,4.2356,4.2377,4.2417,4.2498,4.2437,4.2437,4.3437,4.2813,4.2559,4.2018,4.1346,4.1167,4.0743,4.018,4.0113,4.0113,4.0113,4.0113,4.0113,4.0113,4.0087,4.01,4.0087,3.9977,3.9973,4.0045,3.991,3.9151,3.792,3.7706,3.69,3.5648,3.5389,3.5292,3.5118,3.3835,3.345,3.3952,3.2114,3.1702,3.2651,3.2885,3.2657,3.1957,3.2527,3.2364,3.1187,3.1002,3.0928,3.0821,3.0845,3.0466,2.987,2.975,2.9441,2.8738,2.9715,3.0468,3.0922,3.1887,3.2636,3.3003,3.2996,3.2965,3.2993,3.2975,3.3058,3.3214,3.3805,3.4561,3.543,3.622,3.7586,3.9619,3.9904,4.0324,4.1119,4.1897,4.2308,4.2308,4.2297,4.2308,4.2297,4.2308,4.2297,4.2297,4.2297,4.2297,4.2297,4.2297,4.2308,4.2308,4.2308,4.2374,4.2545,4.3038,4.3438,4.3704,4.4229,4.4754,4.47,4.4628,4.4832,4.446,4.3885,4.4064,4.3757,4.3461,4.3447,4.3332,4.2775,4.2428,4.2354,4.2328,4.2379,4.2437,4.2528,4.2578,4.2607,4.2589,4.2589,4.4383,4.3636,4.3562,4.297,4.2086,4.1545,4.1142,4.0747,4.0286,4.0113,4.0113,4.0113,4.0113,4.0113,4.0113,4.0113,4.0113,4.0049,4.0062,4.0113,4.0033,3.9509,3.8637,3.8094,3.7327,3.6393,3.5762,3.5492,3.5391,3.4392,3.4039,3.4128,3.3047,3.2492,3.2572,3.2592,3.2211,3.1655,3.2211,3.2114,3.1273,3.1131,3.1112,3.1092,3.1092,3.0964,3.0711,3.0704,3.053,3.0192,3.0574,3.1039,3.1655,3.2542,3.315,3.3337,3.3301,3.3274,3.3229,3.3229,3.3414,3.382,3.4102,3.4833,3.5992,3.6844,3.7998,3.9541,4.05,4.1119,4.1817,4.2282,4.2425,4.2435,4.2425,4.2425,4.2415,4.2356,4.2297,4.2297,4.2297,4.2297,4.2318,4.2297,4.2346,4.245,4.2811,4.2898,4.2771,4.325,4.3791,4.3901,4.4402,4.4909,4.4867,4.4442,4.4213,4.4001,4.3727,4.3673,4.3438,4.3105,4.299,4.3463,4.2979,4.2531,4.246,4.248,4.251,4.2548,4.2637,4.2858,4.2715,4.285,4.2814,4.5051,4.4539,4.4495,4.3918,4.2961,4.2163,4.1601,4.1201,4.0485,4.015,4.0096,4.0113,4.0113,4.0113,4.0113,4.0113,4.01,4.0045,4.0062,4.01,4.0062,3.9673,3.9005,3.8497,3.7748,3.6801,3.5994,3.5628,3.5515,3.4756,3.4547,3.4799,3.3592,3.286,3.2628,3.2446,3.2022,3.1759,3.2283,3.2418,3.1952,3.1918,3.1792,3.1589,3.1556,3.1427,3.1207,3.119,3.1161,3.1092,3.1055,3.1372,3.2083,3.276,3.3203,3.3364,3.3393,3.3389,3.3337,3.333,3.3643,3.432,3.4631,3.531,3.6553,3.7335,3.8447,3.9717,4.0515,4.1334,4.2259,4.2566,4.2576,4.2546,4.2526,4.2526,4.2544,4.2458,4.2427,4.2409,4.2409,4.2409,4.2399,4.2399,4.2458,4.2526,4.3192,4.3368,4.2935,4.3576,4.4119,4.4013,4.4579,4.4993,4.4965,4.4536,4.4109,4.3845,4.3344,4.3256,4.3276,4.2907,4.2871,4.3364,4.331,4.2825,4.2619,4.2639,4.2649,4.2676,4.3069,4.3408,4.329,4.3226,4.3226,4.5393,4.5319,4.5243,4.4726,4.397,4.3117,4.2236,4.1554,4.0725,4.0357,4.0286,4.0142,4.0108,4.0113,4.0113,4.0113,4.007,3.9986,3.9999,4.0087,3.9973,3.9632,3.9106,3.8954,3.8137,3.6812,3.5983,3.5616,3.5549,3.4957,3.4901,3.5059,3.3541,3.2956,3.3406,3.2774,3.2361,3.2446,3.2966,3.3277,3.3372,3.322,3.2916,3.2395,3.2259,3.1921,3.1275,3.1207,3.119,3.1181,3.1181,3.1534,3.2196,3.2684,3.3011,3.3341,3.3393,3.3393,3.3411,3.3458,3.3885,3.464,3.5237,3.5982,3.6833,3.752,3.8537,3.9848,4.0298,4.0892,4.2277,4.2715,4.2735,4.2629,4.2609,4.2609,4.2609,4.2599,4.2599,4.258,4.257,4.2599,4.2599,4.2695,4.2759,4.2905,4.3508,4.3872,4.3449,4.4345,4.4775,4.4579,4.4929,4.5467,4.5118,4.4668,4.4269,4.3846,4.3216,4.2884,4.3156,4.304,4.296,4.3274,4.3158,4.2725,4.2699,4.2718,4.2765,4.2893,4.343,4.3839,4.3766,4.3684,4.3821,4.5576,4.541,4.5371,4.5167,4.4761,4.4005,4.342,4.2991,4.178,4.1141,4.0926,4.0459,4.0188,4.0125,4.0113,4.0113,4.01,4.0062,4.0045,4.01,4.0062,3.9944,3.9694,3.9225,3.8222,3.6868,3.5983,3.5616,3.5611,3.5391,3.5397,3.5278,3.4421,3.3975,3.41,3.344,3.3051,3.3095,3.3288,3.3389,3.3389,3.3406,3.3277,3.3051,3.2581,3.2175,3.1972,3.1471,3.1207,3.119,3.12,3.1524,3.224,3.2878,3.3238,3.3371,3.3393,3.3393,3.3465,3.3947,3.4544,3.5359,3.6132,3.6859,3.7513,3.784,3.8671,3.9967,4.031,4.0996,4.234,4.2823,4.2833,4.2754,4.2745,4.2735,4.2717,4.2676,4.2609,4.2609,4.2609,4.2609,4.2735,4.2987,4.3422,4.3662,4.4609,4.5137,4.4831,4.5303,4.6018,4.5842,4.6083,4.6081,4.5892,4.555,4.5094,4.4492,4.3742,4.3072,4.3226,4.3136,4.3092,4.3019,4.2885,4.2822,4.2805,4.2815,4.2852,4.3142,4.3614,4.3887,4.4041,4.4178,4.4304,4.5714,4.5533,4.5432,4.5357,4.5188,4.4479,4.4091,4.3802,4.2672,4.2035,4.1784,4.1124,4.0861,4.0858,4.0493,4.0378,4.054,4.0374,4.0263,4.0238,4.0121,4.0096,4.0011,3.9356,3.8594,3.7664,3.684,3.6462,3.6439,3.6186,3.605,3.5898,3.5024,3.4641,3.4759,3.3937,3.3599,3.4055,3.3981,3.3937,3.4157,3.4207,3.4089,3.3795,3.3366,3.3004,3.2723,3.2249,3.1765,3.1309,3.119,3.156,3.2257,3.2734,3.3101,3.3356,3.3411,3.3494,3.3828,3.4317,3.5106,3.6073,3.6715,3.7296,3.7934,3.826,3.9102,4.0077,4.0681,4.1423,4.2553,4.2872,4.2881,4.286,4.2833,4.2833,4.2823,4.2775,4.2718,4.2718,4.2718,4.2853,4.3213,4.3502,4.4099,4.453,4.5552,4.6104,4.5777,4.6258,4.6576,4.6776,4.6791,4.6791,4.6856,4.6468,4.5981,4.5246,4.4458,4.3867,4.3594,4.3178,4.2971,4.2961,4.288,4.2871,4.2862,4.2872,4.2927,4.3381,4.3897,4.4385,4.4729,4.4675,4.4667,4.5837,4.5786,4.5563,4.5459,4.5363,4.4734,4.4397,4.41,4.3383,4.2929,4.2621,4.1992,4.1869,4.201,4.106,4.0889,4.1201,4.0701,4.0444,4.0395,4.0258,4.0175,4.0057,3.9413,3.896,3.8761,3.8122,3.7823,3.7677,3.718,3.6858,3.6604,3.5525,3.5018,3.5402,3.4297,3.446,3.5379,3.5023,3.5057,3.5503,3.5526,3.5244,3.4606,3.4437,3.407,3.3541,3.33,3.2707,3.1556,3.1594,3.2007,3.2345,3.244,3.3037,3.3622,3.3544,3.4001,3.4508,3.4914,3.5548,3.6878,3.7258,3.7476,3.8437,3.9116,3.9741,4.0601,4.1225,4.1958,4.2683,4.291,4.29,4.291,4.2891,4.2891,4.291,4.2891,4.2872,4.2881,4.2928,4.3172,4.3849,4.4112,4.4601,4.5289,4.6103,4.6258,4.6235,4.6708,4.7104,4.7259,4.7337,4.7148,4.7088,4.667,4.6164,4.5528,4.482,4.4256,4.3792,4.3338,4.2975,4.2966,4.2947,4.2938,4.2947,4.2975,4.3293,4.382,4.4427,4.5085,4.5357,4.5342,4.5007,4.6289,4.61,4.603,4.5892,4.5709,4.5471,4.5265,4.4974,4.4264,4.3589,4.3035,4.2736,4.2364,4.1822,4.151,4.1408,4.1374,4.0822,4.051,4.0497,4.0448,4.0412,4.0246,3.9666,3.9313,3.9199,3.8659,3.8189,3.8189,3.8007,3.7626,3.7024,3.6616,3.6423,3.6542,3.6242,3.627,3.665,3.6559,3.6167,3.5911,3.5911,3.5765,3.5473,3.4941,3.4552,3.4215,3.396,3.3574,3.2971,3.3421,3.3605,3.3546,3.3952,3.4316,3.4543,3.4936,3.5214,3.553,3.6027,3.6832,3.7766,3.8416,3.9106,3.9813,4.0066,4.0591,4.1216,4.1632,4.2049,4.271,4.2919,4.2919,4.291,4.2919,4.2919,4.291,4.291,4.291,4.291,4.2919,4.3318,4.3952,4.4568,4.5174,4.5997,4.6667,4.7278,4.7083,4.7168,4.7594,4.7725,4.7739,4.7438,4.7146,4.6746,4.6273,4.5672,4.5026,4.4398,4.3961,4.3533,4.3287,4.3142,4.3105,4.3087,4.3114,4.3151,4.3688,4.4196,4.4742,4.5286,4.5861,4.6018,4.5535,4.6518,4.6374,4.6247,4.6038,4.5824,4.5811,4.5637,4.535,4.4962,4.4505,4.401,4.3649,4.3211,4.2633,4.205,4.1728,4.1605,4.0986,4.0667,4.068,4.0667,4.059,4.0414,3.9997,3.9865,3.9814,3.9433,3.9267,3.9182,3.8925,3.8498,3.8116,3.7712,3.7712,3.8036,3.7723,3.7746,3.7946,3.7786,3.724,3.6522,3.6471,3.621,3.5928,3.5445,3.5191,3.5128,3.5264,3.4879,3.41,3.4235,3.4525,3.4327,3.48,3.515,3.5201,3.5604,3.6082,3.6829,3.7372,3.8082,3.9038,3.9746,4.0038,4.0464,4.0799,4.1379,4.1669,4.2078,4.2541,4.2868,4.2994,4.2985,4.3022,4.3012,4.2947,4.2919,4.291,4.2929,4.2957,4.3021,4.3293,4.4064,4.4626,4.5377,4.6188,4.6721,4.728,4.7643,4.7837,4.7943,4.8,4.7683,4.7234,4.6641,4.6167,4.5924,4.5404,4.4939,4.4373,4.3926,4.357,4.3388,4.3214,4.3214,4.3251,4.3324,4.3488,4.3907,4.4417,4.4937,4.5475,4.605,4.5905,4.5522,4.6619,4.6625,4.6381,4.6124,4.5938,4.5887,4.5765,4.5485,4.5407,4.5294,4.5014,4.4609,4.4118,4.3928,4.2624,4.2034,4.1798,4.1144,4.0916,4.0859,4.0847,4.0764,4.059,4.0509,4.0458,4.0446,4.0541,4.0434,4.0235,3.9783,3.9497,3.915,3.8647,3.879,3.8996,3.8716,3.8841,3.9081,3.8716,3.8083,3.7455,3.7301,3.705,3.6618,3.6454,3.6232,3.6296,3.6583,3.6389,3.4607,3.4843,3.5106,3.5044,3.5314,3.5674,3.5971,3.6487,3.7236,3.832,3.8739,3.9269,4.0458,4.0768,4.0879,4.1098,4.166,4.2059,4.215,4.2759,4.3042,4.3133,4.3132,4.3114,4.3151,4.3114,4.304,4.2966,4.2938,4.2994,4.3077,4.3095,4.3505,4.4023,4.4414,4.4821,4.5918,4.6442,4.6801,4.728,4.7549,4.7791,4.808,4.7579,4.6882,4.6189,4.5505,4.5305,4.5004,4.461,4.4125,4.3697,4.3396,4.3314,4.325,4.3322,4.3468,4.3661,4.3917,4.4245,4.4757,4.5342,4.5789,4.6116,4.5414,4.4903,4.6911,4.6911,4.6853,4.6672,4.6441,4.6435,4.6149,4.5709,4.5714,4.5316,4.4785,4.4958,4.4479,4.3415,4.3091,4.2612,4.1972,4.1319,4.0912,4.0894,4.0894,4.0871,4.0799,4.0787,4.0799,4.0787,4.0799,4.0799,4.0713,4.0552,4.0231,3.9657,3.9519,3.9427,3.9577,3.9501,3.9393,3.9588,3.9445,3.9003,3.8401,3.8252,3.811,3.7768,3.7695,3.7399,3.7055,3.7397,3.7589,3.7437,3.7226,3.7015,3.6824,3.705,3.7486,3.7996,3.8488,3.9195,4.004,4.0294,4.0652,4.1546,4.1748,4.1976,4.2595,4.2686,4.2887,4.2941,4.3087,4.3233,4.3214,4.3196,4.3196,4.3214,4.3205,4.3169,4.3151,4.3123,4.3142,4.3169,4.3196,4.3488,4.4235,4.429,4.4789,4.5598,4.5963,4.6239,4.6661,4.7101,4.7361,4.7602,4.7055,4.6313,4.5791,4.5114,4.4738,4.4608,4.4276,4.4266,4.382,4.3565,4.3611,4.3547,4.3454,4.3657,4.3969,4.4299,4.4637,4.5187,4.5645,4.5837,4.5782,4.5013,4.4784,4.7009,4.7009,4.7009,4.6853,4.6625,4.659,4.6369,4.605,4.5988,4.5628,4.5186,4.5446,4.488,4.3759,4.3672,4.3293,4.2534,4.1762,4.121,4.0986,4.0894,4.0894,4.0894,4.0894,4.0894,4.0894,4.0883,4.0894,4.0894,4.0877,4.0658,4.0313,4.0203,4.022,4.0267,4.0215,4.022,4.0273,4.0244,3.9882,3.9244,3.9094,3.8853,3.8458,3.8139,3.7665,3.7366,3.7912,3.8288,3.8618,3.9013,3.911,3.8761,3.8968,3.9335,3.9589,4.0032,4.0655,4.1245,4.1546,4.1831,4.2565,4.2647,4.2831,4.3132,4.3251,4.3305,4.3314,4.3322,4.3358,4.333,4.3304,4.3304,4.3331,4.3323,4.3323,4.3322,4.3269,4.3251,4.3278,4.3286,4.346,4.3789,4.3999,4.4309,4.4891,4.5036,4.533,4.6026,4.6421,4.6569,4.6607,4.6204,4.5727,4.5322,4.477,4.4206,4.4076,4.3982,4.4239,4.4352,4.4188,4.4096,4.3923,4.3741,4.4043,4.4365,4.4678,4.5036,4.5532,4.5853,4.5826,4.5496,4.4771,4.4918,4.7009,4.7009,4.7009,4.6865,4.6684,4.6661,4.653,4.6284,4.6259,4.6077,4.5875,4.5824,4.5207,4.4482,4.4272,4.3862,4.312,4.2344,4.1607,4.1257,4.0963,4.0912,4.0894,4.0894,4.0894,4.0894,4.0894,4.0894,4.0942,4.0935,4.0878,4.0895,4.0865,4.0762,4.0831,4.0883,4.0796,4.0762,4.0745,4.0555,4.0003,3.9882,3.9595,3.9163,3.8721,3.8279,3.8211,3.8548,3.8948,3.9152,4.0372,4.0841,4.0906,4.0661,4.0855,4.0591,4.0997,4.158,4.2244,4.2508,4.2739,4.3393,4.3384,4.333,4.3313,4.334,4.3394,4.3429,4.3437,4.3489,4.3515,4.3437,4.3437,4.3463,4.3446,4.3455,4.3454,4.333,4.3331,4.3385,4.3384,4.3494,4.3494,4.3622,4.387,4.4117,4.4245,4.4556,4.526,4.5737,4.592,4.6057,4.578,4.5521,4.5106,4.5068,4.4418,4.4509,4.4286,4.4618,4.5043,4.5036,4.4872,4.424,4.4121,4.4478,4.4735,4.4939,4.5352,4.5846,4.5727,4.538,4.4957,4.4487,4.4828,4.7009,4.7009,4.7009,4.6975,4.6952,4.6934,4.6784,4.6566,4.6525,4.6369,4.6124,4.5895,4.5406,4.4776,4.44,4.3909,4.3333,4.2671,4.2128,4.18,4.1449,4.1155,4.1115,4.1156,4.1023,4.0894,4.093,4.1035,4.1065,4.1012,4.107,4.1082,4.1006,4.0942,4.0942,4.0894,4.0982,4.0989,4.0977,4.0827,4.0706,4.0637,4.0579,4.0297,4.002,3.9703,3.9358,3.9435,3.9908,4.0696,4.0994,4.1805,4.2301,4.1752,4.1542,4.1828,4.2,4.2433,4.3054,4.3258,4.3341,4.347,4.3497,4.3489,4.3471,4.348,4.3516,4.3497,4.3515,4.3522,4.3565,4.3532,4.3497,4.3506,4.3515,4.3516,4.3506,4.3562,4.3573,4.3681,4.3608,4.3453,4.3463,4.3463,4.3656,4.3831,4.3876,4.4178,4.4744,4.5127,4.5344,4.5471,4.5544,4.5284,4.4997,4.5144,4.5058,4.551,4.5527,4.5619,4.5925,4.5955,4.5689,4.5281,4.4979,4.5145,4.5301,4.5347,4.5456,4.5831,4.5372,4.485,4.4487,4.4171,4.4046,4.7616,4.7574,4.7187,4.7009,4.7009,4.7009,4.6922,4.6801,4.6789,4.6643,4.6429,4.6259,4.5949,4.554,4.5359,4.4878,4.4187,4.3833,4.338,4.2979,4.2625,4.2195,4.1911,4.187,4.1592,4.1389,4.1278,4.1232,4.122,4.1261,4.1312,4.138,4.1295,4.1267,4.1267,4.1278,4.1255,4.1255,4.1255,4.1255,4.1255,4.1255,4.1209,4.1065,4.09,4.0504,4.0144,4.0422,4.0709,4.1183,4.1861,4.2641,4.2981,4.3005,4.2597,4.2876,4.2951,4.3132,4.3552,4.3642,4.3642,4.3642,4.3652,4.3652,4.3652,4.3661,4.3625,4.3634,4.3652,4.3669,4.3711,4.3669,4.3669,4.3661,4.3652,4.3652,4.3744,4.4021,4.4122,4.4114,4.3904,4.3723,4.3506,4.3523,4.3539,4.3565,4.3582,4.39,4.4311,4.4536,4.4798,4.4853,4.5009,4.5283,4.5218,4.5512,4.5882,4.6363,4.6611,4.6704,4.6807,4.6867,4.6863,4.6662,4.6424,4.5902,4.5882,4.5926,4.5862,4.5687,4.5245,4.4774,4.4243,4.3899,4.3867,4.8222,4.8127,4.7348,4.7009,4.7009,4.7009,4.7009,4.7009,4.6998,4.6876,4.6696,4.6602,4.6471,4.6278,4.6135,4.5817,4.5309,4.5145,4.4589,4.415,4.3799,4.3488,4.3154,4.2955,4.2705,4.2291,4.2006,4.1694,4.1464,4.1475,4.1593,4.1626,4.1637,4.1604,4.1571,4.1526,4.1604,4.1604,4.1604,4.1604,4.1604,4.1593,4.1515,4.1323,4.1081,4.0834,4.0705,4.1101,4.1429,4.181,4.2467,4.324,4.3355,4.3625,4.3744,4.3666,4.3659,4.3693,4.3744,4.3769,4.3771,4.3763,4.3788,4.3788,4.3788,4.3771,4.3769,4.3802,4.3796,4.3796,4.382,4.3822,4.3796,4.3788,4.3779,4.3907,4.4185,4.4472,4.4741,4.4621,4.4283,4.4193,4.4196,4.3977,4.4093,4.3694,4.3701,4.3724,4.4087,4.4073,4.4225,4.4235,4.45,4.5105,4.5482,4.6055,4.6603,4.7336,4.7482,4.7536,4.7657,4.7764,4.7612,4.7314,4.6967,4.6497,4.6512,4.6246,4.5797,4.5428,4.5105,4.4697,4.4167,4.3945,4.3929,4.8291,4.8127,4.7348,4.7009,4.7009,4.6991,4.7009,4.7009,4.7009,4.6998,4.6899,4.6708,4.6602,4.6513,4.632,4.6165,4.5919,4.5539,4.5229,4.4994,4.4507,4.4137,4.3815,4.3763,4.3721,4.3385,4.3074,4.2506,4.2024,4.1774,4.1719,4.1816,4.1747,4.1626,4.1703,4.1714,4.1604,4.1615,4.1626,4.1637,4.1637,4.1648,4.1615,4.1569,4.1556,4.1562,4.1619,4.1912,4.2121,4.2544,4.2878,4.324,4.3462,4.3678,4.381,4.3835,4.3837,4.3788,4.3812,4.3829,4.381,4.3818,4.3829,4.3804,4.3802,4.3837,4.3835,4.3873,4.3843,4.3835,4.3875,4.3845,4.3812,4.382,4.3837,4.4243,4.466,4.5117,4.5349,4.5793,4.5692,4.5389,4.5208,4.4904,4.4618,4.4182,4.3837,4.3841,4.3881,4.3921,4.3937,4.4029,4.449,4.5122,4.5946,4.6493,4.7233,4.8112,4.8261,4.8265,4.8142,4.8063,4.7777,4.7457,4.7201,4.683,4.6476,4.608,4.5574,4.5257,4.5088,4.4626,4.4082,4.4008,4.4,4.9586,4.8933,4.7635,4.7111,4.71,4.7043,4.7009,4.7009,4.7009,4.7009,4.698,4.6888,4.683,4.6766,4.6684,4.6661,4.6578,4.6265,4.6164,4.6117,4.5709,4.5366,4.5076,4.4941,4.4835,4.4374,4.4032,4.3536,4.2889,4.2317,4.2051,4.2072,4.2048,4.2026,4.1952,4.1977,4.1998,4.2016,4.2016,4.2016,4.2005,4.1984,4.1931,4.1805,4.2141,4.2267,4.2318,4.2685,4.2846,4.3114,4.3249,4.3415,4.358,4.3765,4.3918,4.3953,4.3937,4.3913,4.3913,4.3931,4.3897,4.3905,4.3905,4.3913,4.3905,4.3905,4.3913,4.3942,4.3918,4.391,4.3945,4.3929,4.3921,4.3905,4.3907,4.4434,4.5008,4.5673,4.6124,4.6643,4.6996,4.6488,4.5955,4.543,4.4913,4.4293,4.3965,4.3897,4.3937,4.3976,4.3992,4.4,4.4618,4.5326,4.6259,4.705,4.7788,4.853,4.8911,4.8796,4.841,4.8206,4.7775,4.7802,4.7865,4.7345,4.6577,4.6352,4.6266,4.5727,4.5112,4.478,4.4448,4.4059,4.4253,5.0434,4.9676,4.8169,4.7413,4.7205,4.71,4.7054,4.7054,4.7002,4.7009,4.702,4.702,4.7032,4.7002,4.7009,4.698,4.6968,4.7009,4.7009,4.7009,4.6938,4.6587,4.6248,4.6074,4.5853,4.5254,4.5118,4.4746,4.4174,4.3456,4.2882,4.2343,4.2246,4.2267,4.2287,4.2256,4.2236,4.2236,4.2246,4.2256,4.2267,4.2267,4.2173,4.2228,4.2474,4.274,4.2721,4.3032,4.3268,4.3374,4.3536,4.3662,4.3656,4.382,4.3966,4.3989,4.3992,4.3981,4.3974,4.4,4.3997,4.3997,4.3997,4.3974,4.3981,4.3997,4.3997,4.3989,4.3989,4.3989,4.3997,4.3989,4.3981,4.3974,4.4,4.4573,4.5146,4.5778,4.6292,4.6657,4.6972,4.7175,4.6611,4.5937,4.5253,4.4466,4.4149,4.3987,4.3989,4.4036,4.4074,4.4097,4.4407,4.5162,4.6109,4.7099,4.8022,4.8682,4.9034,4.8814,4.8074,4.773,4.7419,4.7677,4.7963,4.7507,4.6532,4.6809,4.6986,4.6161,4.5462,4.526,4.4942,4.4509,4.4748,5.0144,4.9984,4.8866,4.7956,4.7287,4.7205,4.7178,4.7185,4.7066,4.7014,4.7037,4.7111,4.7111,4.7048,4.7122,4.7122,4.702,4.7009,4.7014,4.7014,4.6985,4.6992,4.6894,4.691,4.6943,4.6787,4.6327,4.5997,4.5749,4.4881,4.3757,4.256,4.2627,4.2425,4.2343,4.2417,4.2346,4.2328,4.2338,4.2338,4.2328,4.2328,4.2308,4.2297,4.2361,4.2571,4.3096,4.3286,4.3462,4.3605,4.3828,4.3876,4.3804,4.3923,4.4044,4.4082,4.409,4.409,4.4101,4.4036,4.3997,4.3997,4.3997,4.3997,4.3997,4.4013,4.4013,4.4036,4.4074,4.4067,4.4044,4.4013,4.4101,4.4153,4.4351,4.4929,4.5432,4.5799,4.6297,4.6649,4.7093,4.7613,4.7454,4.6839,4.5491,4.4639,4.423,4.4067,4.409,4.4136,4.4203,4.424,4.4288,4.4871,4.573,4.6584,4.7299,4.7871,4.8295,4.7831,4.71,4.6933,4.7165,4.6742,4.6831,4.6683,4.6886,4.7461,4.7511,4.6465,4.5947,4.6172,4.5853,4.5347,4.5858,5.0553,5.0017,4.9122,4.824,4.7425,4.7298,4.7254,4.7261,4.7198,4.7187,4.7176,4.7238,4.7238,4.7209,4.7238,4.7249,4.7187,4.7187,4.7176,4.7187,4.7198,4.7209,4.7272,4.7283,4.724,4.7248,4.696,4.6564,4.6104,4.5885,4.5159,4.416,4.354,4.3202,4.3074,4.2747,4.2532,4.2481,4.2503,4.2498,4.249,4.248,4.249,4.249,4.2681,4.293,4.3346,4.3605,4.3804,4.3981,4.4131,4.4074,4.4028,4.412,4.4207,4.4255,4.4262,4.4288,4.4244,4.4128,4.4005,4.3997,4.3997,4.4013,4.4044,4.4097,4.4151,4.4207,4.4244,4.4266,4.4322,4.4329,4.4351,4.443,4.4808,4.541,4.5794,4.6126,4.6881,4.7474,4.8082,4.8677,4.8295,4.7782,4.6232,4.4822,4.4482,4.4207,4.4237,4.428,4.4367,4.4467,4.4522,4.4934,4.5807,4.6225,4.6576,4.704,4.7559,4.7116,4.6646,4.6929,4.6979,4.6364,4.6028,4.6318,4.7009,4.8164,4.8113,4.7164,4.7182,4.7599,4.7054,4.6243,4.6883,5.0825,5.0028,4.9238,4.8388,4.7597,4.7407,4.7363,4.7345,4.7302,4.7309,4.7309,4.7341,4.7341,4.7331,4.7352,4.7331,4.7309,4.7287,4.7298,4.7298,4.7287,4.7331,4.7352,4.7374,4.7396,4.7396,4.74,4.7104,4.6783,4.6672,4.6311,4.5717,4.5022,4.4546,4.393,4.354,4.3135,4.2968,4.3206,4.3103,4.3085,4.3272,4.338,4.3468,4.3724,4.3807,4.4051,4.4219,4.4339,4.4337,4.4351,4.4358,4.4358,4.4391,4.4435,4.4473,4.4489,4.4515,4.4426,4.4325,4.4151,4.4199,4.4199,4.4192,4.4199,4.4274,4.4332,4.4347,4.4444,4.4601,4.474,4.4904,4.4934,4.5074,4.5707,4.6263,4.63,4.6574,4.7545,4.8396,4.8765,4.8757,4.8393,4.7796,4.6776,4.5354,4.4658,4.4436,4.4397,4.4484,4.4584,4.4688,4.4788,4.5335,4.5952,4.6064,4.6152,4.6329,4.6743,4.676,4.6571,4.6789,4.6715,4.6166,4.5992,4.6243,4.6882,4.7782,4.8014,4.7903,4.813,4.8394,4.7865,4.7188,4.7733,5.0825,5.0028,4.9228,4.842,4.7693,4.7554,4.75,4.7472,4.7385,4.7341,4.7363,4.7457,4.7428,4.7385,4.745,4.7439,4.7367,4.7334,4.7352,4.7363,4.7374,4.7396,4.7468,4.7511,4.7533,4.7657,4.7628,4.7571,4.7548,4.7419,4.7375,4.7212,4.6458,4.5727,4.5039,4.4928,4.4515,4.3994,4.4507,4.4276,4.4088,4.4386,4.4548,4.4668,4.487,4.4839,4.4651,4.4787,4.4804,4.4533,4.4501,4.4508,4.4508,4.4489,4.451,4.4549,4.4549,4.4535,4.4515,4.4482,4.4461,4.4411,4.4376,4.4397,4.444,4.4494,4.4501,4.4508,4.4669,4.5,4.5324,4.5688,4.5717,4.5982,4.6624,4.7064,4.7109,4.7447,4.8467,4.9009,4.8589,4.8247,4.801,4.7623,4.6943,4.5975,4.5052,4.4697,4.4753,4.4647,4.4764,4.4933,4.5044,4.5355,4.5773,4.5699,4.5752,4.5893,4.6038,4.6186,4.6186,4.6177,4.6041,4.5819,4.5907,4.6069,4.6607,4.725,4.7697,4.8221,4.8615,4.8735,4.8313,4.8231,4.8706,5.0825,5.0028,4.9238,4.8431,4.7761,4.7665,4.7625,4.7625,4.7575,4.7554,4.7583,4.7625,4.7615,4.7586,4.7586,4.7586,4.7565,4.7554,4.7572,4.7554,4.7533,4.7565,4.7625,4.7625,4.7646,4.7678,4.7689,4.7689,4.7671,4.7689,4.7689,4.7544,4.7308,4.6494,4.5498,4.5114,4.4916,4.48,4.5013,4.5046,4.4855,4.508,4.526,4.5288,4.5507,4.5443,4.5176,4.5395,4.5245,4.483,4.4764,4.4708,4.467,4.4632,4.4653,4.4712,4.477,4.4776,4.4776,4.4745,4.4653,4.4585,4.4517,4.4524,4.4496,4.4592,4.4612,4.4841,4.5214,4.5618,4.5961,4.6584,4.6806,4.7039,4.7537,4.7972,4.8244,4.8773,4.9416,4.9537,4.9344,4.9221,4.9006,4.8553,4.7829,4.7238,4.6432,4.5732,4.5621,4.5092,4.4924,4.5137,4.5313,4.5482,4.5644,4.5819,4.5905,4.6058,4.6005,4.5921,4.5854,4.5898,4.5824,4.5834,4.5858,4.5932,4.6674,4.7398,4.8038,4.8572,4.898,4.9457,4.9466,4.939,4.957,5.1097,5.0064,4.9546,4.8677,4.7808,4.7689,4.7689,4.7689,4.7689,4.7689,4.7689,4.7689,4.7689,4.7689,4.7689,4.7689,4.7689,4.7707,4.7707,4.7689,4.7689,4.7678,4.7678,4.7689,4.7678,4.7689,4.7689,4.7689,4.7689,4.7689,4.7689,4.7689,4.7689,4.7114,4.6375,4.6184,4.5985,4.5923,4.5964,4.6093,4.593,4.5995,4.6222,4.6323,4.6415,4.6443,4.618,4.6032,4.5943,4.5484,4.5192,4.506,4.4928,4.4789,4.4802,4.487,4.4889,4.4883,4.4877,4.4877,4.4777,4.468,4.4646,4.4639,4.4627,4.4738,4.5016,4.5344,4.5881,4.6506,4.698,4.7593,4.7832,4.8041,4.842,4.8849,4.8824,4.929,4.9688,4.9841,4.9886,4.9886,4.9874,4.955,4.8979,4.8436,4.788,4.7176,4.6423,4.5795,4.5234,4.5307,4.5465,4.5584,4.5854,4.6205,4.6269,4.6264,4.6266,4.6286,4.6132,4.6271,4.6071,4.5899,4.5937,4.6196,4.692,4.7627,4.8318,4.8911,4.9366,4.9877,5.0429,5.046,5.0325,5.1568,5.0238,5.0101,4.9195,4.7898,4.7785,4.772,4.7699,4.7689,4.7689,4.7689,4.7689,4.7689,4.7689,4.7689,4.7689,4.7689,4.7689,4.7689,4.7689,4.7689,4.7689,4.7689,4.7689,4.7689,4.7689,4.7699,4.7728,4.7699,4.7749,4.7738,4.7728,4.7728,4.7471,4.7342,4.7233,4.698,4.6791,4.7023,4.6985,4.6734,4.7156,4.7272,4.7413,4.761,4.7582,4.751,4.7582,4.72,4.6713,4.6228,4.5704,4.5287,4.4971,4.4952,4.4895,4.4895,4.4895,4.4895,4.4895,4.4889,4.4821,4.4846,4.4877,4.4864,4.4896,4.5205,4.5723,4.6329,4.7359,4.8225,4.8464,4.8711,4.9014,4.9336,4.9355,4.909,4.933,4.9734,4.9893,4.9893,4.9893,4.9893,4.9703,4.9533,4.933,4.8743,4.8173,4.7384,4.642,4.5892,4.5442,4.5584,4.5645,4.5974,4.6429,4.667,4.67,4.7114,4.7175,4.6957,4.6601,4.6329,4.6169,4.6102,4.6456,4.7196,4.7932,4.8663,4.9215,4.9821,5.014,5.0662,5.0832,5.078,5.1982,5.1045,5.0369,4.9546,4.8706,4.8143,4.7845,4.7699,4.7689,4.7699,4.7689,4.7689,4.7728,4.7689,4.7689,4.7699,4.7699,4.7689,4.7689,4.7699,4.7731,4.771,4.7699,4.771,4.7699,4.7699,4.7728,4.777,4.784,4.785,4.784,4.784,4.7759,4.7738,4.771,4.7699,4.7531,4.7523,4.7881,4.7682,4.7553,4.7854,4.7949,4.8002,4.8065,4.8007,4.8,4.801,4.7611,4.725,4.7068,4.6664,4.5937,4.5786,4.5691,4.4952,4.4895,4.4895,4.4895,4.4895,4.4914,4.4933,4.4952,4.4895,4.4895,4.5085,4.5451,4.6247,4.691,4.7858,4.8661,4.9059,4.926,4.9533,4.976,4.9646,4.9431,4.9526,4.9893,4.9893,4.9893,4.9893,4.9893,4.9874,4.9741,4.9779,4.9574,4.9011,4.8342,4.7401,4.6717,4.6266,4.6089,4.6268,4.6331,4.6706,4.6942,4.7178,4.7729,4.7975,4.7575,4.7179,4.6682,4.6484,4.6511,4.6874,4.7449,4.8217,4.9014,4.9776,5.036,5.0602,5.0806,5.0957,5.1046,5.2468,5.1686,5.0638,4.9621,4.8665,4.819,4.7929,4.7835,4.7772,4.778,4.7798,4.778,4.7801,4.7816,4.7827,4.7845,4.7845,4.7837,4.7837,4.7855,4.7824,4.7827,4.7806,4.7824,4.7827,4.7824,4.7835,4.7886,4.7925,4.7912,4.7902,4.7935,4.7832,4.7822,4.7824,4.7858,4.7941,4.8007,4.8152,4.8111,4.819,4.8307,4.826,4.8202,4.8202,4.8262,4.8292,4.833,4.8287,4.7983,4.7908,4.7517,4.6759,4.6398,4.5786,4.5103,4.4895,4.4895,4.4952,4.5312,4.5179,4.5103,4.5204,4.5426,4.5445,4.5583,4.6342,4.7138,4.7668,4.8256,4.8964,4.9551,4.9722,4.9893,4.9893,4.9893,4.9874,4.9874,4.9893,4.9893,4.9893,4.9893,4.9893,4.9893,4.9954,5.0038,4.9999,4.9682,4.9104,4.8365,4.7784,4.7349,4.711,4.7028,4.7098,4.7359,4.7953,4.839,4.876,4.8824,4.8306,4.7959,4.7689,4.7309,4.6945,4.7515,4.8216,4.8684,4.9377,5.017,5.0774,5.0917,5.1031,5.1083,5.1134,5.3033,5.2255,5.0988,4.9539,4.815,4.8032,4.8022,4.802,4.7955,4.7912,4.7912,4.7912,4.7927,4.7931,4.797,4.797,4.796,4.7941,4.7941,4.801,4.797,4.7941,4.7951,4.7992,4.796,4.7972,4.801,4.797,4.799,4.7988,4.8006,4.802,4.7927,4.7907,4.7949,4.796,4.8083,4.8337,4.8421,4.8439,4.8495,4.864,4.884,4.885,4.9038,4.9259,4.9378,4.9489,4.955,4.9045,4.8686,4.837,4.7435,4.6619,4.5836,4.5248,4.4975,4.4943,4.5076,4.5405,4.5374,4.5425,4.5697,4.6076,4.6202,4.5994,4.6638,4.7738,4.8345,4.8801,4.9433,4.9718,4.9895,4.9965,4.9978,4.9978,4.9978,4.9978,4.9978,4.9978,4.9978,4.9978,4.9953,4.9973,5.0063,5.0227,5.023,5.0061,4.9878,4.9293,4.8761,4.834,4.7984,4.7822,4.8128,4.851,4.9279,4.9737,4.9865,4.971,4.9233,4.897,4.8768,4.8316,4.7918,4.847,4.9085,4.9551,5.0036,5.0657,5.1145,5.1224,5.1284,5.1241,5.1223,5.383,5.3458,5.1686,4.9865,4.826,4.8218,4.8208,4.8158,4.8128,4.8068,4.799,4.798,4.799,4.8012,4.8032,4.8032,4.8022,4.8042,4.8012,4.8012,4.8022,4.8101,4.8042,4.8111,4.8082,4.8002,4.8012,4.8101,4.8151,4.8149,4.8108,4.8138,4.8048,4.8,4.805,4.8052,4.826,4.8585,4.8815,4.8883,4.8938,4.9148,4.934,4.9137,4.9161,4.9347,4.9458,4.9539,4.9648,4.9561,4.9648,4.8922,4.7642,4.6806,4.5975,4.5253,4.502,4.5039,4.5134,4.5381,4.54,4.5539,4.5887,4.6578,4.6819,4.6491,4.6903,4.8118,4.8965,4.9402,4.9719,4.9878,4.9998,5.0024,5.005,5.005,5.005,5.005,5.005,5.005,5.005,5.0044,5.0025,5.0089,5.0187,5.0268,5.0344,5.0369,5.0604,5.0271,4.9593,4.9141,4.8668,4.8596,4.901,4.9404,5.0057,5.0391,5.0473,5.0313,5.0094,4.9584,4.9113,4.9099,4.904,4.9198,4.9563,5.0412,5.0916,5.1232,5.1314,5.1319,5.134,5.1306,5.1296,5.4417,5.415,5.2246,5.0266,4.867,4.8504,4.842,4.8267,4.8237,4.8208,4.8131,4.812,4.811,4.8121,4.8131,4.8121,4.8131,4.8131,4.8151,4.8141,4.8162,4.8269,4.8279,4.8345,4.8531,4.8504,4.8402,4.8421,4.8411,4.8265,4.8206,4.8226,4.8121,4.8092,4.8151,4.8288,4.8504,4.8863,4.9201,4.9401,4.9479,4.9686,4.9766,4.9505,4.9531,4.9615,4.9663,4.9752,4.9847,4.9953,4.9974,4.9062,4.7958,4.7203,4.6334,4.5496,4.5097,4.5103,4.5203,4.5399,4.5609,4.5913,4.646,4.7317,4.7989,4.7813,4.8142,4.9226,4.9467,4.9879,4.9898,5.0031,5.0057,5.0076,5.0082,5.0082,5.0082,5.0082,5.0076,5.0076,5.0076,5.0076,5.0076,5.0082,5.0223,5.048,5.0529,5.0692,5.0933,5.1044,5.0431,5.0,4.9558,4.9617,5.0105,5.035,5.0637,5.0888,5.0973,5.0887,5.0624,4.9934,4.9457,4.9523,4.943,4.9136,4.9658,5.0527,5.1016,5.1198,5.1278,5.1359,5.1359,5.1359,5.1353,5.4696,5.4212,5.2471,5.0611,4.9013,4.8876,4.8711,4.8486,4.843,4.8449,4.8449,4.8354,4.8324,4.8295,4.8315,4.8315,4.8325,4.8383,4.8373,4.8383,4.8383,4.8577,4.8701,4.8789,4.8898,4.8982,4.8924,4.8797,4.8711,4.8523,4.8363,4.8306,4.8258,4.8238,4.842,4.8649,4.8917,4.9279,4.9611,4.9929,5.0088,5.0214,5.0101,5.0089,5.0126,5.012,5.0114,5.0089,5.0095,5.0101,5.0051,4.9257,4.8374,4.7649,4.6691,4.5877,4.5235,4.5287,4.5471,4.5967,4.6291,4.6717,4.7391,4.8044,4.8723,4.9167,4.9497,4.9719,4.9961,5.0063,5.0095,5.0095,5.012,5.0133,5.0133,5.0133,5.0133,5.0133,5.0133,5.0133,5.0139,5.0139,5.0188,5.0182,5.0342,5.0616,5.0816,5.1007,5.1157,5.1169,5.0916,5.0743,5.0568,5.0799,5.1047,5.1022,5.1035,5.1096,5.1158,5.1234,5.1153,5.0579,5.02,5.0089,4.9916,4.9759,4.9736,5.0355,5.0748,5.1198,5.1279,5.1376,5.1372,5.1393,5.1394,5.4288,5.2684,5.1653,5.0462,4.9315,4.9198,4.915,4.9121,4.9078,4.9113,4.899,4.8754,4.8559,4.8324,4.8315,4.8335,4.842,4.8578,4.8703,4.8702,4.8721,4.8925,4.9097,4.9137,4.908,4.9185,4.9263,4.9072,4.9009,4.8799,4.855,4.8354,4.8354,4.843,4.8676,4.8908,4.9156,4.952,4.9783,5.0019,5.0206,5.0267,5.0273,5.0261,5.0261,5.0231,5.0213,5.0175,5.0151,5.0139,5.0081,4.9558,4.8895,4.8119,4.7222,4.6358,4.572,4.5778,4.6097,4.6434,4.6778,4.7547,4.8176,4.8697,4.9276,4.9695,4.9949,5.0039,5.0206,5.0175,5.0188,5.0169,5.0175,5.0225,5.0243,5.0243,5.0243,5.0243,5.0243,5.0255,5.0253,5.0327,5.0439,5.0507,5.061,5.0825,5.0943,5.1128,5.1224,5.1265,5.1302,5.1294,5.1267,5.129,5.1247,5.12,5.1219,5.1279,5.1306,5.1303,5.1322,5.1322,5.1018,5.0514,5.0672,5.073,5.0766,5.0314,5.0836,5.1247,5.1331,5.1391,5.1387,5.1386,5.139]}]]